<?xml version="1.0" encoding="utf-8" standalone="yes"?>
<gpx version="1.1" creator="Locus Map, Android"
 xmlns="http://www.topografix.com/GPX/1/1"
 xmlns:xsi="http://www.w3.org/2001/XMLSchema-instance"
 xsi:schemaLocation="http://www.topografix.com/GPX/1/1 http://www.topografix.com/GPX/1/1/gpx.xsd"
 xmlns:gpxx="http://www.garmin.com/xmlschemas/GpxExtensions/v3"
 xmlns:gpxtrkx="http://www.garmin.com/xmlschemas/TrackStatsExtension/v1"
 xmlns:gpxtpx="http://www.garmin.com/xmlschemas/TrackPointExtension/v2"
 xmlns:locus="http://www.locusmap.eu">
	<metadata>
		<desc>File with points/tracks from Locus Map Classic/3.67.0</desc>
		<time>2023-05-07T14:26:01.798Z</time>
	</metadata>
<trk>
<name>giro ad anello brusada.gpx</name>
	<extensions>
		<line xmlns="http://www.topografix.com/GPX/gpx_style/0/2">
			<color>0000FF</color>
			<opacity>0.59</opacity>
			<width>6.0</width>
			<extensions>
				<locus:lsColorBase>#960000FF</locus:lsColorBase>
				<locus:lsWidth>6.0</locus:lsWidth>
				<locus:lsUnits>PIXELS</locus:lsUnits>
			</extensions>
		</line>
	</extensions>
<trkseg>
<trkpt lat="46.1601200" lon="9.4875950">
	<time>2023-05-06T05:58:18.000Z</time>
</trkpt>
<trkpt lat="46.1601200" lon="9.4875890">
	<ele>544.06</ele>
	<time>2023-05-06T05:58:19.000Z</time>
</trkpt>
<trkpt lat="46.1601830" lon="9.4876170">
	<ele>545.62</ele>
	<time>2023-05-06T05:58:37.000Z</time>
</trkpt>
<trkpt lat="46.1602300" lon="9.4876250">
	<ele>546.43</ele>
	<time>2023-05-06T05:58:42.000Z</time>
</trkpt>
<trkpt lat="46.1602970" lon="9.4876090">
	<ele>548.05</ele>
	<time>2023-05-06T05:58:50.000Z</time>
</trkpt>
<trkpt lat="46.1603360" lon="9.4875300">
	<ele>549.35</ele>
	<time>2023-05-06T05:59:00.000Z</time>
</trkpt>
<trkpt lat="46.1603620" lon="9.4874530">
	<ele>550.56</ele>
	<time>2023-05-06T05:59:10.000Z</time>
</trkpt>
<trkpt lat="46.1604160" lon="9.4873705">
	<ele>552.10</ele>
	<time>2023-05-06T05:59:20.000Z</time>
</trkpt>
<trkpt lat="46.1604500" lon="9.4872800">
	<ele>553.16</ele>
	<time>2023-05-06T05:59:30.000Z</time>
</trkpt>
<trkpt lat="46.1604900" lon="9.4871870">
	<ele>554.59</ele>
	<time>2023-05-06T05:59:40.000Z</time>
</trkpt>
<trkpt lat="46.1605260" lon="9.4870830">
	<ele>556.11</ele>
	<time>2023-05-06T05:59:50.000Z</time>
</trkpt>
<trkpt lat="46.1605720" lon="9.4870180">
	<ele>557.79</ele>
	<time>2023-05-06T06:00:00.000Z</time>
</trkpt>
<trkpt lat="46.1606140" lon="9.4869520">
	<ele>559.35</ele>
	<time>2023-05-06T06:00:10.000Z</time>
</trkpt>
<trkpt lat="46.1606830" lon="9.4869400">
	<ele>560.99</ele>
	<time>2023-05-06T06:00:20.000Z</time>
</trkpt>
<trkpt lat="46.1607480" lon="9.4869510">
	<ele>562.70</ele>
	<time>2023-05-06T06:00:30.000Z</time>
</trkpt>
<trkpt lat="46.1608120" lon="9.4870000">
	<ele>564.46</ele>
	<time>2023-05-06T06:00:40.000Z</time>
</trkpt>
<trkpt lat="46.1608770" lon="9.4870540">
	<ele>566.00</ele>
	<time>2023-05-06T06:00:50.000Z</time>
</trkpt>
<trkpt lat="46.1609540" lon="9.4870380">
	<ele>567.62</ele>
	<time>2023-05-06T06:01:00.000Z</time>
</trkpt>
<trkpt lat="46.1609760" lon="9.4869470">
	<ele>567.56</ele>
	<time>2023-05-06T06:01:10.000Z</time>
</trkpt>
<trkpt lat="46.1609760" lon="9.4868145">
	<ele>568.47</ele>
	<time>2023-05-06T06:01:20.000Z</time>
</trkpt>
<trkpt lat="46.1609540" lon="9.4866970">
	<ele>570.04</ele>
	<time>2023-05-06T06:01:30.000Z</time>
</trkpt>
<trkpt lat="46.1609900" lon="9.4865980">
	<ele>571.36</ele>
	<time>2023-05-06T06:01:40.000Z</time>
</trkpt>
<trkpt lat="46.1610680" lon="9.4865450">
	<ele>572.83</ele>
	<time>2023-05-06T06:01:50.000Z</time>
</trkpt>
<trkpt lat="46.1611480" lon="9.4865570">
	<ele>574.38</ele>
	<time>2023-05-06T06:02:00.000Z</time>
</trkpt>
<trkpt lat="46.1612170" lon="9.4865980">
	<ele>576.00</ele>
	<time>2023-05-06T06:02:09.000Z</time>
</trkpt>
<trkpt lat="46.1612500" lon="9.4866290">
	<ele>576.66</ele>
	<time>2023-05-06T06:02:14.000Z</time>
</trkpt>
<trkpt lat="46.1613350" lon="9.4866350">
	<ele>578.08</ele>
	<time>2023-05-06T06:02:24.000Z</time>
</trkpt>
<trkpt lat="46.1614230" lon="9.4866340">
	<ele>572.66</ele>
	<time>2023-05-06T06:02:34.000Z</time>
</trkpt>
<trkpt lat="46.1614720" lon="9.4865570">
	<ele>577.89</ele>
	<time>2023-05-06T06:02:57.000Z</time>
</trkpt>
<trkpt lat="46.1614530" lon="9.4864860">
	<ele>581.08</ele>
	<time>2023-05-06T06:03:02.000Z</time>
</trkpt>
<trkpt lat="46.1614270" lon="9.4864080">
	<ele>582.48</ele>
	<time>2023-05-06T06:03:12.000Z</time>
</trkpt>
<trkpt lat="46.1614200" lon="9.4863180">
	<ele>584.32</ele>
	<time>2023-05-06T06:03:22.000Z</time>
</trkpt>
<trkpt lat="46.1614800" lon="9.4862050">
	<ele>586.05</ele>
	<time>2023-05-06T06:03:32.000Z</time>
</trkpt>
<trkpt lat="46.1615560" lon="9.4861530">
	<ele>587.51</ele>
	<time>2023-05-06T06:03:42.000Z</time>
</trkpt>
<trkpt lat="46.1616300" lon="9.4860840">
	<ele>589.22</ele>
	<time>2023-05-06T06:03:52.000Z</time>
</trkpt>
<trkpt lat="46.1616700" lon="9.4859740">
	<ele>590.23</ele>
	<time>2023-05-06T06:04:02.000Z</time>
</trkpt>
<trkpt lat="46.1616970" lon="9.4858590">
	<ele>591.75</ele>
	<time>2023-05-06T06:04:12.000Z</time>
</trkpt>
<trkpt lat="46.1617240" lon="9.4857610">
	<ele>593.81</ele>
	<time>2023-05-06T06:04:22.000Z</time>
</trkpt>
<trkpt lat="46.1617500" lon="9.4856680">
	<ele>595.47</ele>
	<time>2023-05-06T06:04:32.000Z</time>
</trkpt>
<trkpt lat="46.1617770" lon="9.4855870">
	<ele>597.08</ele>
	<time>2023-05-06T06:04:42.000Z</time>
</trkpt>
<trkpt lat="46.1618080" lon="9.4855070">
	<ele>598.66</ele>
	<time>2023-05-06T06:04:52.000Z</time>
</trkpt>
<trkpt lat="46.1618420" lon="9.4854220">
	<ele>600.33</ele>
	<time>2023-05-06T06:05:02.000Z</time>
</trkpt>
<trkpt lat="46.1618900" lon="9.4853350">
	<ele>601.66</ele>
	<time>2023-05-06T06:05:12.000Z</time>
</trkpt>
<trkpt lat="46.1619300" lon="9.4852370">
	<ele>602.98</ele>
	<time>2023-05-06T06:05:22.000Z</time>
</trkpt>
<trkpt lat="46.1619720" lon="9.4851430">
	<ele>604.48</ele>
	<time>2023-05-06T06:05:32.000Z</time>
</trkpt>
<trkpt lat="46.1620200" lon="9.4850445">
	<ele>605.76</ele>
	<time>2023-05-06T06:05:42.000Z</time>
</trkpt>
<trkpt lat="46.1620640" lon="9.4849450">
	<ele>607.09</ele>
	<time>2023-05-06T06:05:52.000Z</time>
</trkpt>
<trkpt lat="46.1621060" lon="9.4848450">
	<ele>608.34</ele>
	<time>2023-05-06T06:06:02.000Z</time>
</trkpt>
<trkpt lat="46.1621480" lon="9.4847400">
	<ele>609.83</ele>
	<time>2023-05-06T06:06:12.000Z</time>
</trkpt>
<trkpt lat="46.1621800" lon="9.4846450">
	<ele>611.24</ele>
	<time>2023-05-06T06:06:22.000Z</time>
</trkpt>
<trkpt lat="46.1622200" lon="9.4845510">
	<ele>612.69</ele>
	<time>2023-05-06T06:06:32.000Z</time>
</trkpt>
<trkpt lat="46.1622600" lon="9.4844580">
	<ele>614.25</ele>
	<time>2023-05-06T06:06:42.000Z</time>
</trkpt>
<trkpt lat="46.1622900" lon="9.4843600">
	<ele>616.08</ele>
	<time>2023-05-06T06:06:52.000Z</time>
</trkpt>
<trkpt lat="46.1623150" lon="9.4842660">
	<ele>617.91</ele>
	<time>2023-05-06T06:07:02.000Z</time>
</trkpt>
<trkpt lat="46.1623700" lon="9.4842160">
	<ele>619.56</ele>
	<time>2023-05-06T06:07:12.000Z</time>
</trkpt>
<trkpt lat="46.1624260" lon="9.4842260">
	<ele>620.82</ele>
	<time>2023-05-06T06:07:21.000Z</time>
</trkpt>
<trkpt lat="46.1624600" lon="9.4842450">
	<ele>616.98</ele>
	<time>2023-05-06T06:07:29.000Z</time>
</trkpt>
<trkpt lat="46.1624340" lon="9.4842830">
	<ele>620.32</ele>
	<time>2023-05-06T06:07:34.000Z</time>
</trkpt>
<trkpt lat="46.1624900" lon="9.4842870">
	<ele>622.40</ele>
	<time>2023-05-06T06:07:49.000Z</time>
</trkpt>
<trkpt lat="46.1625300" lon="9.4842740">
	<ele>624.53</ele>
	<time>2023-05-06T06:07:59.000Z</time>
</trkpt>
<trkpt lat="46.1625900" lon="9.4842530">
	<ele>627.00</ele>
	<time>2023-05-06T06:08:14.000Z</time>
</trkpt>
<trkpt lat="46.1626500" lon="9.4842420">
	<ele>628.76</ele>
	<time>2023-05-06T06:08:24.000Z</time>
</trkpt>
<trkpt lat="46.1627200" lon="9.4842370">
	<ele>630.49</ele>
	<time>2023-05-06T06:08:34.000Z</time>
</trkpt>
<trkpt lat="46.1627770" lon="9.4842060">
	<ele>632.14</ele>
	<time>2023-05-06T06:08:44.000Z</time>
</trkpt>
<trkpt lat="46.1628270" lon="9.4842010">
	<ele>633.82</ele>
	<time>2023-05-06T06:08:54.000Z</time>
</trkpt>
<trkpt lat="46.1628950" lon="9.4842070">
	<ele>635.45</ele>
	<time>2023-05-06T06:09:04.000Z</time>
</trkpt>
<trkpt lat="46.1629600" lon="9.4842000">
	<ele>637.23</ele>
	<time>2023-05-06T06:09:14.000Z</time>
</trkpt>
<trkpt lat="46.1630300" lon="9.4841970">
	<ele>638.69</ele>
	<time>2023-05-06T06:09:24.000Z</time>
</trkpt>
<trkpt lat="46.1630820" lon="9.4842180">
	<ele>640.69</ele>
	<time>2023-05-06T06:09:34.000Z</time>
</trkpt>
<trkpt lat="46.1631300" lon="9.4842205">
	<ele>642.45</ele>
	<time>2023-05-06T06:09:44.000Z</time>
</trkpt>
<trkpt lat="46.1631660" lon="9.4842380">
	<ele>643.98</ele>
	<time>2023-05-06T06:09:54.000Z</time>
</trkpt>
<trkpt lat="46.1632400" lon="9.4842320">
	<ele>646.54</ele>
	<time>2023-05-06T06:10:14.000Z</time>
</trkpt>
<trkpt lat="46.1632920" lon="9.4842280">
	<ele>648.23</ele>
	<time>2023-05-06T06:10:23.000Z</time>
</trkpt>
<trkpt lat="46.1633340" lon="9.4842680">
	<ele>649.79</ele>
	<time>2023-05-06T06:10:34.000Z</time>
</trkpt>
<trkpt lat="46.1633870" lon="9.4842590">
	<ele>651.31</ele>
	<time>2023-05-06T06:10:44.000Z</time>
</trkpt>
<trkpt lat="46.1634030" lon="9.4843100">
	<ele>651.70</ele>
	<time>2023-05-06T06:10:59.000Z</time>
</trkpt>
<trkpt lat="46.1633950" lon="9.4842900">
	<ele>652.29</ele>
	<time>2023-05-06T06:11:34.000Z</time>
</trkpt>
<trkpt lat="46.1634400" lon="9.4842800">
	<ele>653.19</ele>
	<time>2023-05-06T06:12:24.000Z</time>
</trkpt>
<trkpt lat="46.1634980" lon="9.4842430">
	<ele>654.29</ele>
	<time>2023-05-06T06:12:34.000Z</time>
</trkpt>
<trkpt lat="46.1635000" lon="9.4841510">
	<ele>655.23</ele>
	<time>2023-05-06T06:13:24.000Z</time>
</trkpt>
<trkpt lat="46.1635100" lon="9.4840450">
	<ele>656.90</ele>
	<time>2023-05-06T06:13:34.000Z</time>
</trkpt>
<trkpt lat="46.1635440" lon="9.4839440">
	<ele>658.62</ele>
	<time>2023-05-06T06:13:44.000Z</time>
</trkpt>
<trkpt lat="46.1635500" lon="9.4838300">
	<ele>660.08</ele>
	<time>2023-05-06T06:13:55.000Z</time>
</trkpt>
<trkpt lat="46.1635930" lon="9.4837260">
	<ele>661.92</ele>
	<time>2023-05-06T06:14:05.000Z</time>
</trkpt>
<trkpt lat="46.1636350" lon="9.4836150">
	<ele>663.94</ele>
	<time>2023-05-06T06:14:17.000Z</time>
	<extensions>
		<gpxtpx:TrackPointExtension>
			<gpxtpx:hr>101</gpxtpx:hr>
		</gpxtpx:TrackPointExtension>
	</extensions>
</trkpt>
<trkpt lat="46.1636660" lon="9.4835080">
	<ele>665.43</ele>
	<time>2023-05-06T06:14:27.000Z</time>
</trkpt>
<trkpt lat="46.1637080" lon="9.4834360">
	<ele>667.35</ele>
	<time>2023-05-06T06:14:37.000Z</time>
</trkpt>
<trkpt lat="46.1637540" lon="9.4833600">
	<ele>669.08</ele>
	<time>2023-05-06T06:14:47.000Z</time>
</trkpt>
<trkpt lat="46.1638000" lon="9.4832760">
	<ele>670.61</ele>
	<time>2023-05-06T06:14:57.000Z</time>
</trkpt>
<trkpt lat="46.1638500" lon="9.4832120">
	<ele>672.21</ele>
	<time>2023-05-06T06:15:07.000Z</time>
</trkpt>
<trkpt lat="46.1639060" lon="9.4831650">
	<ele>673.54</ele>
	<time>2023-05-06T06:15:17.000Z</time>
	<extensions>
		<gpxtpx:TrackPointExtension>
			<gpxtpx:hr>99</gpxtpx:hr>
		</gpxtpx:TrackPointExtension>
	</extensions>
</trkpt>
<trkpt lat="46.1639600" lon="9.4831320">
	<ele>675.04</ele>
	<time>2023-05-06T06:15:26.000Z</time>
</trkpt>
<trkpt lat="46.1640360" lon="9.4831000">
	<ele>676.91</ele>
	<time>2023-05-06T06:15:37.000Z</time>
</trkpt>
<trkpt lat="46.1640900" lon="9.4830680">
	<ele>678.66</ele>
	<time>2023-05-06T06:15:47.000Z</time>
</trkpt>
<trkpt lat="46.1641270" lon="9.4830380">
	<ele>679.78</ele>
	<time>2023-05-06T06:15:53.000Z</time>
</trkpt>
<trkpt lat="46.1642070" lon="9.4830140">
	<ele>681.37</ele>
	<time>2023-05-06T06:16:05.000Z</time>
</trkpt>
<trkpt lat="46.1642720" lon="9.4829830">
	<ele>683.16</ele>
	<time>2023-05-06T06:16:15.000Z</time>
</trkpt>
<trkpt lat="46.1643300" lon="9.4829650">
	<ele>684.67</ele>
	<time>2023-05-06T06:16:25.000Z</time>
</trkpt>
<trkpt lat="46.1644020" lon="9.4829470">
	<ele>686.18</ele>
	<time>2023-05-06T06:16:35.000Z</time>
</trkpt>
<trkpt lat="46.1644550" lon="9.4829480">
	<ele>687.71</ele>
	<time>2023-05-06T06:16:45.000Z</time>
</trkpt>
<trkpt lat="46.1645200" lon="9.4829460">
	<ele>689.24</ele>
	<time>2023-05-06T06:16:55.000Z</time>
</trkpt>
<trkpt lat="46.1645550" lon="9.4829420">
	<ele>690.20</ele>
	<time>2023-05-06T06:17:01.000Z</time>
</trkpt>
<trkpt lat="46.1646270" lon="9.4829320">
	<ele>692.00</ele>
	<time>2023-05-06T06:17:13.000Z</time>
</trkpt>
<trkpt lat="46.1646840" lon="9.4829235">
	<ele>693.99</ele>
	<time>2023-05-06T06:17:25.000Z</time>
</trkpt>
<trkpt lat="46.1647530" lon="9.4829130">
	<ele>696.06</ele>
	<time>2023-05-06T06:17:37.000Z</time>
</trkpt>
<trkpt lat="46.1648300" lon="9.4829200">
	<ele>698.52</ele>
	<time>2023-05-06T06:17:52.000Z</time>
</trkpt>
<trkpt lat="46.1648600" lon="9.4829190">
	<ele>699.48</ele>
	<time>2023-05-06T06:17:57.000Z</time>
</trkpt>
<trkpt lat="46.1649360" lon="9.4829200">
	<ele>702.06</ele>
	<time>2023-05-06T06:18:12.000Z</time>
</trkpt>
<trkpt lat="46.1649630" lon="9.4829180">
	<ele>703.12</ele>
	<time>2023-05-06T06:18:17.000Z</time>
	<extensions>
		<gpxtpx:TrackPointExtension>
			<gpxtpx:hr>113</gpxtpx:hr>
		</gpxtpx:TrackPointExtension>
	</extensions>
</trkpt>
<trkpt lat="46.1650430" lon="9.4829220">
	<ele>705.40</ele>
	<time>2023-05-06T06:18:32.000Z</time>
</trkpt>
<trkpt lat="46.1650700" lon="9.4829210">
	<ele>706.48</ele>
	<time>2023-05-06T06:18:37.000Z</time>
</trkpt>
<trkpt lat="46.1651230" lon="9.4829120">
	<ele>707.88</ele>
	<time>2023-05-06T06:18:47.000Z</time>
</trkpt>
<trkpt lat="46.1651800" lon="9.4828960">
	<ele>709.43</ele>
	<time>2023-05-06T06:18:57.000Z</time>
</trkpt>
<trkpt lat="46.1652400" lon="9.4828825">
	<ele>710.97</ele>
	<time>2023-05-06T06:19:07.000Z</time>
</trkpt>
<trkpt lat="46.1653020" lon="9.4828550">
	<ele>712.39</ele>
	<time>2023-05-06T06:19:17.000Z</time>
</trkpt>
<trkpt lat="46.1653670" lon="9.4828350">
	<ele>713.54</ele>
	<time>2023-05-06T06:19:27.000Z</time>
</trkpt>
<trkpt lat="46.1654430" lon="9.4827990">
	<ele>715.10</ele>
	<time>2023-05-06T06:19:37.000Z</time>
</trkpt>
<trkpt lat="46.1655160" lon="9.4827900">
	<ele>716.77</ele>
	<time>2023-05-06T06:19:47.000Z</time>
</trkpt>
<trkpt lat="46.1655850" lon="9.4827690">
	<ele>718.25</ele>
	<time>2023-05-06T06:19:56.000Z</time>
</trkpt>
<trkpt lat="46.1656270" lon="9.4827430">
	<ele>718.73</ele>
	<time>2023-05-06T06:20:02.000Z</time>
</trkpt>
<trkpt lat="46.1656880" lon="9.4827210">
	<ele>719.12</ele>
	<time>2023-05-06T06:20:17.000Z</time>
</trkpt>
<trkpt lat="46.1657400" lon="9.4827540">
	<ele>722.10</ele>
	<time>2023-05-06T06:20:37.000Z</time>
</trkpt>
<trkpt lat="46.1657900" lon="9.4826560">
	<ele>722.82</ele>
	<time>2023-05-06T06:20:47.000Z</time>
</trkpt>
<trkpt lat="46.1658200" lon="9.4826490">
	<ele>727.89</ele>
	<time>2023-05-06T06:20:57.000Z</time>
</trkpt>
<trkpt lat="46.1658130" lon="9.4825930">
	<ele>723.07</ele>
	<time>2023-05-06T06:22:02.000Z</time>
</trkpt>
<trkpt lat="46.1657520" lon="9.4825040">
	<ele>724.54</ele>
	<time>2023-05-06T06:22:27.000Z</time>
</trkpt>
<trkpt lat="46.1657000" lon="9.4824330">
	<ele>726.13</ele>
	<time>2023-05-06T06:22:37.000Z</time>
</trkpt>
<trkpt lat="46.1656720" lon="9.4823390">
	<ele>727.69</ele>
	<time>2023-05-06T06:22:47.000Z</time>
</trkpt>
<trkpt lat="46.1656600" lon="9.4822590">
	<ele>729.61</ele>
	<time>2023-05-06T06:22:57.000Z</time>
</trkpt>
<trkpt lat="46.1656150" lon="9.4822000">
	<ele>731.49</ele>
	<time>2023-05-06T06:23:07.000Z</time>
</trkpt>
<trkpt lat="46.1656000" lon="9.4821250">
	<ele>733.51</ele>
	<time>2023-05-06T06:23:17.000Z</time>
	<extensions>
		<gpxtpx:TrackPointExtension>
			<gpxtpx:hr>111</gpxtpx:hr>
		</gpxtpx:TrackPointExtension>
	</extensions>
</trkpt>
<trkpt lat="46.1655580" lon="9.4820800">
	<ele>735.10</ele>
	<time>2023-05-06T06:23:26.000Z</time>
</trkpt>
<trkpt lat="46.1655800" lon="9.4819910">
	<ele>736.66</ele>
	<time>2023-05-06T06:23:36.000Z</time>
</trkpt>
<trkpt lat="46.1656070" lon="9.4819530">
	<ele>737.58</ele>
	<time>2023-05-06T06:23:41.000Z</time>
</trkpt>
<trkpt lat="46.1656600" lon="9.4818610">
	<ele>739.09</ele>
	<time>2023-05-06T06:23:56.000Z</time>
</trkpt>
<trkpt lat="46.1657030" lon="9.4819220">
	<ele>739.64</ele>
	<time>2023-05-06T06:24:21.000Z</time>
</trkpt>
<trkpt lat="46.1657600" lon="9.4820020">
	<ele>741.86</ele>
	<time>2023-05-06T06:24:31.000Z</time>
</trkpt>
<trkpt lat="46.1658500" lon="9.4820740">
	<ele>743.09</ele>
	<time>2023-05-06T06:24:41.000Z</time>
</trkpt>
<trkpt lat="46.1658550" lon="9.4819960">
	<ele>745.07</ele>
	<time>2023-05-06T06:24:51.000Z</time>
</trkpt>
<trkpt lat="46.1658600" lon="9.4819040">
	<ele>746.95</ele>
	<time>2023-05-06T06:25:01.000Z</time>
</trkpt>
<trkpt lat="46.1658860" lon="9.4818260">
	<ele>748.51</ele>
	<time>2023-05-06T06:25:11.000Z</time>
</trkpt>
<trkpt lat="46.1659240" lon="9.4817640">
	<ele>750.20</ele>
	<time>2023-05-06T06:25:21.000Z</time>
</trkpt>
<trkpt lat="46.1659800" lon="9.4818280">
	<ele>752.80</ele>
	<time>2023-05-06T06:25:31.000Z</time>
</trkpt>
<trkpt lat="46.1660100" lon="9.4818170">
	<ele>755.12</ele>
	<time>2023-05-06T06:25:41.000Z</time>
</trkpt>
<trkpt lat="46.1660800" lon="9.4817740">
	<ele>755.92</ele>
	<time>2023-05-06T06:25:56.000Z</time>
</trkpt>
<trkpt lat="46.1661070" lon="9.4817560">
	<ele>756.99</ele>
	<time>2023-05-06T06:26:01.000Z</time>
</trkpt>
<trkpt lat="46.1661640" lon="9.4817270">
	<ele>758.42</ele>
	<time>2023-05-06T06:26:11.000Z</time>
</trkpt>
<trkpt lat="46.1661950" lon="9.4816970">
	<ele>759.91</ele>
	<time>2023-05-06T06:26:21.000Z</time>
</trkpt>
<trkpt lat="46.1662500" lon="9.4816850">
	<ele>761.64</ele>
	<time>2023-05-06T06:26:31.000Z</time>
</trkpt>
<trkpt lat="46.1662980" lon="9.4816690">
	<ele>763.05</ele>
	<time>2023-05-06T06:26:41.000Z</time>
</trkpt>
<trkpt lat="46.1663630" lon="9.4816300">
	<ele>765.22</ele>
	<time>2023-05-06T06:26:56.000Z</time>
</trkpt>
<trkpt lat="46.1663900" lon="9.4816100">
	<ele>765.76</ele>
	<time>2023-05-06T06:27:01.000Z</time>
</trkpt>
<trkpt lat="46.1664350" lon="9.4815960">
	<ele>767.70</ele>
	<time>2023-05-06T06:27:11.000Z</time>
</trkpt>
<trkpt lat="46.1664660" lon="9.4815430">
	<ele>768.98</ele>
	<time>2023-05-06T06:27:21.000Z</time>
</trkpt>
<trkpt lat="46.1665230" lon="9.4814610">
	<ele>771.19</ele>
	<time>2023-05-06T06:27:36.000Z</time>
</trkpt>
<trkpt lat="46.1665420" lon="9.4814340">
	<ele>771.92</ele>
	<time>2023-05-06T06:27:41.000Z</time>
</trkpt>
<trkpt lat="46.1665800" lon="9.4813800">
	<ele>773.91</ele>
	<time>2023-05-06T06:27:51.000Z</time>
</trkpt>
<trkpt lat="46.1666260" lon="9.4813750">
	<ele>775.33</ele>
	<time>2023-05-06T06:28:01.000Z</time>
</trkpt>
<trkpt lat="46.1666560" lon="9.4813300">
	<ele>777.32</ele>
	<time>2023-05-06T06:29:28.000Z</time>
</trkpt>
<trkpt lat="46.1666830" lon="9.4813440">
	<ele>777.94</ele>
	<time>2023-05-06T06:29:33.000Z</time>
</trkpt>
<trkpt lat="46.1667600" lon="9.4813530">
	<ele>780.71</ele>
	<time>2023-05-06T06:29:48.000Z</time>
</trkpt>
<trkpt lat="46.1667900" lon="9.4813310">
	<ele>781.42</ele>
	<time>2023-05-06T06:29:53.000Z</time>
</trkpt>
<trkpt lat="46.1668360" lon="9.4812960">
	<ele>782.88</ele>
	<time>2023-05-06T06:30:03.000Z</time>
</trkpt>
<trkpt lat="46.1668900" lon="9.4812540">
	<ele>784.46</ele>
	<time>2023-05-06T06:30:13.000Z</time>
</trkpt>
<trkpt lat="46.1669240" lon="9.4811830">
	<ele>785.81</ele>
	<time>2023-05-06T06:30:23.000Z</time>
</trkpt>
<trkpt lat="46.1669770" lon="9.4811380">
	<ele>787.41</ele>
	<time>2023-05-06T06:30:33.000Z</time>
</trkpt>
<trkpt lat="46.1670380" lon="9.4810940">
	<ele>788.51</ele>
	<time>2023-05-06T06:30:43.000Z</time>
</trkpt>
<trkpt lat="46.1670900" lon="9.4810460">
	<ele>789.61</ele>
	<time>2023-05-06T06:30:53.000Z</time>
</trkpt>
<trkpt lat="46.1671400" lon="9.4809900">
	<ele>790.84</ele>
	<time>2023-05-06T06:31:03.000Z</time>
</trkpt>
<trkpt lat="46.1671900" lon="9.4809380">
	<ele>792.33</ele>
	<time>2023-05-06T06:31:13.000Z</time>
</trkpt>
<trkpt lat="46.1672500" lon="9.4808770">
	<ele>794.24</ele>
	<time>2023-05-06T06:31:28.000Z</time>
</trkpt>
<trkpt lat="46.1672970" lon="9.4808360">
	<ele>796.00</ele>
	<time>2023-05-06T06:31:38.000Z</time>
</trkpt>
<trkpt lat="46.1673550" lon="9.4808450">
	<ele>797.85</ele>
	<time>2023-05-06T06:31:53.000Z</time>
</trkpt>
<trkpt lat="46.1674040" lon="9.4808820">
	<ele>799.55</ele>
	<time>2023-05-06T06:32:03.000Z</time>
</trkpt>
<trkpt lat="46.1674350" lon="9.4808730">
	<ele>801.10</ele>
	<time>2023-05-06T06:32:18.000Z</time>
</trkpt>
<trkpt lat="46.1674730" lon="9.4808510">
	<ele>802.99</ele>
	<time>2023-05-06T06:36:28.000Z</time>
</trkpt>
<trkpt lat="46.1675100" lon="9.4808330">
	<ele>801.50</ele>
	<time>2023-05-06T06:36:38.000Z</time>
</trkpt>
<trkpt lat="46.1675870" lon="9.4808235">
	<ele>804.96</ele>
	<time>2023-05-06T06:37:04.000Z</time>
</trkpt>
<trkpt lat="46.1676180" lon="9.4807480">
	<ele>806.52</ele>
	<time>2023-05-06T06:37:14.000Z</time>
</trkpt>
<trkpt lat="46.1676520" lon="9.4807040">
	<ele>808.75</ele>
	<time>2023-05-06T06:37:29.000Z</time>
</trkpt>
<trkpt lat="46.1676700" lon="9.4806710">
	<ele>810.49</ele>
	<time>2023-05-06T06:37:39.000Z</time>
</trkpt>
<trkpt lat="46.1676980" lon="9.4806780">
	<ele>812.37</ele>
	<time>2023-05-06T06:37:54.000Z</time>
</trkpt>
<trkpt lat="46.1677000" lon="9.4806570">
	<ele>813.17</ele>
	<time>2023-05-06T06:38:14.000Z</time>
</trkpt>
<trkpt lat="46.1677320" lon="9.4806070">
	<ele>814.35</ele>
	<time>2023-05-06T06:38:39.000Z</time>
</trkpt>
<trkpt lat="46.1677360" lon="9.4805600">
	<ele>815.59</ele>
	<time>2023-05-06T06:38:54.000Z</time>
</trkpt>
<trkpt lat="46.1677400" lon="9.4805070">
	<ele>818.18</ele>
	<time>2023-05-06T06:39:19.000Z</time>
</trkpt>
<trkpt lat="46.1677060" lon="9.4805170">
	<ele>818.80</ele>
	<time>2023-05-06T06:39:48.000Z</time>
</trkpt>
<trkpt lat="46.1676400" lon="9.4804720">
	<ele>820.52</ele>
	<time>2023-05-06T06:39:58.000Z</time>
</trkpt>
<trkpt lat="46.1676060" lon="9.4803710">
	<ele>821.90</ele>
	<time>2023-05-06T06:40:08.000Z</time>
</trkpt>
<trkpt lat="46.1675700" lon="9.4802850">
	<ele>823.64</ele>
	<time>2023-05-06T06:40:18.000Z</time>
</trkpt>
<trkpt lat="46.1675260" lon="9.4802100">
	<ele>825.32</ele>
	<time>2023-05-06T06:40:28.000Z</time>
</trkpt>
<trkpt lat="46.1674920" lon="9.4801410">
	<ele>826.56</ele>
	<time>2023-05-06T06:40:38.000Z</time>
</trkpt>
<trkpt lat="46.1674920" lon="9.4800450">
	<ele>824.71</ele>
	<time>2023-05-06T06:40:49.000Z</time>
</trkpt>
<trkpt lat="46.1674730" lon="9.4799990">
	<ele>828.41</ele>
	<time>2023-05-06T06:40:54.000Z</time>
</trkpt>
<trkpt lat="46.1673700" lon="9.4799460">
	<ele>829.21</ele>
	<time>2023-05-06T06:41:04.000Z</time>
</trkpt>
<trkpt lat="46.1673130" lon="9.4798580">
	<ele>831.02</ele>
	<time>2023-05-06T06:41:14.000Z</time>
</trkpt>
<trkpt lat="46.1672700" lon="9.4797910">
	<ele>832.96</ele>
	<time>2023-05-06T06:41:24.000Z</time>
</trkpt>
<trkpt lat="46.1672330" lon="9.4797350">
	<ele>834.25</ele>
	<time>2023-05-06T06:41:34.000Z</time>
</trkpt>
<trkpt lat="46.1671750" lon="9.4796540">
	<ele>836.64</ele>
	<time>2023-05-06T06:41:49.000Z</time>
</trkpt>
<trkpt lat="46.1671600" lon="9.4796120">
	<ele>837.16</ele>
	<time>2023-05-06T06:41:54.000Z</time>
</trkpt>
<trkpt lat="46.1671400" lon="9.4795190">
	<ele>838.49</ele>
	<time>2023-05-06T06:42:04.000Z</time>
</trkpt>
<trkpt lat="46.1671000" lon="9.4794720">
	<ele>839.72</ele>
	<time>2023-05-06T06:42:14.000Z</time>
</trkpt>
<trkpt lat="46.1670230" lon="9.4794700">
	<ele>840.61</ele>
	<time>2023-05-06T06:42:24.000Z</time>
</trkpt>
<trkpt lat="46.1669460" lon="9.4794655">
	<ele>841.56</ele>
	<time>2023-05-06T06:42:34.000Z</time>
</trkpt>
<trkpt lat="46.1668740" lon="9.4794330">
	<ele>842.20</ele>
	<time>2023-05-06T06:42:44.000Z</time>
</trkpt>
<trkpt lat="46.1668430" lon="9.4793810">
	<ele>843.22</ele>
	<time>2023-05-06T06:42:54.000Z</time>
</trkpt>
<trkpt lat="46.1668170" lon="9.4793260">
	<ele>842.77</ele>
	<time>2023-05-06T06:43:09.000Z</time>
</trkpt>
<trkpt lat="46.1667980" lon="9.4792880">
	<ele>843.51</ele>
	<time>2023-05-06T06:43:14.000Z</time>
</trkpt>
<trkpt lat="46.1667800" lon="9.4792000">
	<ele>845.58</ele>
	<time>2023-05-06T06:43:24.000Z</time>
</trkpt>
<trkpt lat="46.1667700" lon="9.4791180">
	<ele>846.54</ele>
	<time>2023-05-06T06:43:34.000Z</time>
</trkpt>
<trkpt lat="46.1668200" lon="9.4790740">
	<ele>849.20</ele>
	<time>2023-05-06T06:43:49.000Z</time>
</trkpt>
<trkpt lat="46.1668400" lon="9.4791190">
	<ele>849.88</ele>
	<time>2023-05-06T06:43:54.000Z</time>
</trkpt>
<trkpt lat="46.1668700" lon="9.4792000">
	<ele>851.16</ele>
	<time>2023-05-06T06:44:04.000Z</time>
</trkpt>
<trkpt lat="46.1669240" lon="9.4792130">
	<ele>852.54</ele>
	<time>2023-05-06T06:44:14.000Z</time>
</trkpt>
<trkpt lat="46.1669040" lon="9.4791450">
	<ele>853.97</ele>
	<time>2023-05-06T06:44:24.000Z</time>
</trkpt>
<trkpt lat="46.1669500" lon="9.4791570">
	<ele>855.38</ele>
	<time>2023-05-06T06:44:34.000Z</time>
</trkpt>
<trkpt lat="46.1670200" lon="9.4791610">
	<ele>856.31</ele>
	<time>2023-05-06T06:44:44.000Z</time>
</trkpt>
<trkpt lat="46.1670800" lon="9.4791740">
	<ele>858.09</ele>
	<time>2023-05-06T06:44:54.000Z</time>
</trkpt>
<trkpt lat="46.1671300" lon="9.4791580">
	<ele>859.50</ele>
	<time>2023-05-06T06:45:04.000Z</time>
</trkpt>
<trkpt lat="46.1671870" lon="9.4791565">
	<ele>861.16</ele>
	<time>2023-05-06T06:45:14.000Z</time>
</trkpt>
<trkpt lat="46.1672480" lon="9.4791380">
	<ele>862.00</ele>
	<time>2023-05-06T06:45:24.000Z</time>
</trkpt>
<trkpt lat="46.1673000" lon="9.4791360">
	<ele>863.25</ele>
	<time>2023-05-06T06:45:34.000Z</time>
</trkpt>
<trkpt lat="46.1673600" lon="9.4791540">
	<ele>865.27</ele>
	<time>2023-05-06T06:45:43.000Z</time>
</trkpt>
<trkpt lat="46.1674160" lon="9.4792050">
	<ele>866.76</ele>
	<time>2023-05-06T06:45:54.000Z</time>
</trkpt>
<trkpt lat="46.1674770" lon="9.4792520">
	<ele>868.33</ele>
	<time>2023-05-06T06:46:04.000Z</time>
</trkpt>
<trkpt lat="46.1675380" lon="9.4792795">
	<ele>869.46</ele>
	<time>2023-05-06T06:46:14.000Z</time>
</trkpt>
<trkpt lat="46.1676030" lon="9.4793160">
	<ele>870.55</ele>
	<time>2023-05-06T06:46:24.000Z</time>
</trkpt>
<trkpt lat="46.1676560" lon="9.4793625">
	<ele>871.90</ele>
	<time>2023-05-06T06:46:34.000Z</time>
</trkpt>
<trkpt lat="46.1676500" lon="9.4792890">
	<ele>873.24</ele>
	<time>2023-05-06T06:46:44.000Z</time>
</trkpt>
<trkpt lat="46.1676100" lon="9.4792300">
	<ele>874.64</ele>
	<time>2023-05-06T06:46:54.000Z</time>
</trkpt>
<trkpt lat="46.1675530" lon="9.4791710">
	<ele>876.72</ele>
	<time>2023-05-06T06:47:09.000Z</time>
</trkpt>
<trkpt lat="46.1675100" lon="9.4791190">
	<ele>878.12</ele>
	<time>2023-05-06T06:47:19.000Z</time>
</trkpt>
<trkpt lat="46.1674840" lon="9.4790510">
	<ele>880.02</ele>
	<time>2023-05-06T06:47:29.000Z</time>
</trkpt>
<trkpt lat="46.1674650" lon="9.4789860">
	<ele>881.68</ele>
	<time>2023-05-06T06:47:39.000Z</time>
</trkpt>
<trkpt lat="46.1674540" lon="9.4788820">
	<ele>883.96</ele>
	<time>2023-05-06T06:47:54.000Z</time>
</trkpt>
<trkpt lat="46.1674100" lon="9.4788110">
	<ele>885.71</ele>
	<time>2023-05-06T06:48:09.000Z</time>
</trkpt>
<trkpt lat="46.1673620" lon="9.4787760">
	<ele>887.38</ele>
	<time>2023-05-06T06:49:17.000Z</time>
	<extensions>
		<gpxtpx:TrackPointExtension>
			<gpxtpx:hr>107</gpxtpx:hr>
		</gpxtpx:TrackPointExtension>
	</extensions>
</trkpt>
<trkpt lat="46.1673300" lon="9.4787210">
	<ele>889.06</ele>
	<time>2023-05-06T06:49:27.000Z</time>
</trkpt>
<trkpt lat="46.1672940" lon="9.4786900">
	<ele>890.40</ele>
	<time>2023-05-06T06:49:37.000Z</time>
</trkpt>
<trkpt lat="46.1673280" lon="9.4786580">
	<ele>891.74</ele>
	<time>2023-05-06T06:49:47.000Z</time>
</trkpt>
<trkpt lat="46.1673660" lon="9.4786120">
	<ele>894.07</ele>
	<time>2023-05-06T06:50:02.000Z</time>
</trkpt>
<trkpt lat="46.1673300" lon="9.4785400">
	<ele>896.30</ele>
	<time>2023-05-06T06:50:17.000Z</time>
	<extensions>
		<gpxtpx:TrackPointExtension>
			<gpxtpx:hr>99</gpxtpx:hr>
		</gpxtpx:TrackPointExtension>
	</extensions>
</trkpt>
<trkpt lat="46.1673430" lon="9.4785000">
	<ele>896.64</ele>
	<time>2023-05-06T06:50:22.000Z</time>
</trkpt>
<trkpt lat="46.1673050" lon="9.4784730">
	<ele>896.48</ele>
	<time>2023-05-06T06:50:52.000Z</time>
</trkpt>
<trkpt lat="46.1673470" lon="9.4784350">
	<ele>898.50</ele>
	<time>2023-05-06T06:51:17.000Z</time>
	<extensions>
		<gpxtpx:TrackPointExtension>
			<gpxtpx:hr>86</gpxtpx:hr>
		</gpxtpx:TrackPointExtension>
	</extensions>
</trkpt>
<trkpt lat="46.1673800" lon="9.4783610">
	<ele>899.58</ele>
	<time>2023-05-06T06:51:27.000Z</time>
</trkpt>
<trkpt lat="46.1674600" lon="9.4783360">
	<ele>901.60</ele>
	<time>2023-05-06T06:51:42.000Z</time>
</trkpt>
<trkpt lat="46.1674960" lon="9.4782620">
	<ele>903.91</ele>
	<time>2023-05-06T06:51:57.000Z</time>
</trkpt>
<trkpt lat="46.1675340" lon="9.4782280">
	<ele>905.38</ele>
	<time>2023-05-06T06:52:07.000Z</time>
</trkpt>
<trkpt lat="46.1675600" lon="9.4782480">
	<ele>907.49</ele>
	<time>2023-05-06T06:52:22.000Z</time>
</trkpt>
<trkpt lat="46.1676030" lon="9.4781940">
	<ele>909.91</ele>
	<time>2023-05-06T06:52:37.000Z</time>
</trkpt>
<trkpt lat="46.1676450" lon="9.4781480">
	<ele>911.56</ele>
	<time>2023-05-06T06:52:47.000Z</time>
</trkpt>
<trkpt lat="46.1676900" lon="9.4781640">
	<ele>913.77</ele>
	<time>2023-05-06T06:53:02.000Z</time>
</trkpt>
<trkpt lat="46.1676750" lon="9.4782410">
	<ele>915.53</ele>
	<time>2023-05-06T06:53:12.000Z</time>
</trkpt>
<trkpt lat="46.1677100" lon="9.4782860">
	<ele>916.75</ele>
	<time>2023-05-06T06:53:19.000Z</time>
</trkpt>
<trkpt lat="46.1677130" lon="9.4783520">
	<ele>918.21</ele>
	<time>2023-05-06T06:53:30.000Z</time>
</trkpt>
<trkpt lat="46.1677470" lon="9.4782730">
	<ele>920.55</ele>
	<time>2023-05-06T06:53:45.000Z</time>
</trkpt>
<trkpt lat="46.1677360" lon="9.4782330">
	<ele>921.40</ele>
	<time>2023-05-06T06:53:50.000Z</time>
</trkpt>
<trkpt lat="46.1677780" lon="9.4781690">
	<ele>923.04</ele>
	<time>2023-05-06T06:54:05.000Z</time>
</trkpt>
<trkpt lat="46.1678100" lon="9.4782030">
	<ele>924.92</ele>
	<time>2023-05-06T06:54:15.000Z</time>
</trkpt>
<trkpt lat="46.1678430" lon="9.4782860">
	<ele>927.16</ele>
	<time>2023-05-06T06:54:30.000Z</time>
</trkpt>
<trkpt lat="46.1678800" lon="9.4783800">
	<ele>929.22</ele>
	<time>2023-05-06T06:54:45.000Z</time>
</trkpt>
<trkpt lat="46.1679270" lon="9.4783630">
	<ele>930.51</ele>
	<time>2023-05-06T06:54:55.000Z</time>
</trkpt>
<trkpt lat="46.1679460" lon="9.4782940">
	<ele>932.82</ele>
	<time>2023-05-06T06:55:10.000Z</time>
</trkpt>
<trkpt lat="46.1679600" lon="9.4782170">
	<ele>934.25</ele>
	<time>2023-05-06T06:55:20.000Z</time>
</trkpt>
<trkpt lat="46.1679900" lon="9.4782420">
	<ele>935.79</ele>
	<time>2023-05-06T06:55:30.000Z</time>
</trkpt>
<trkpt lat="46.1680200" lon="9.4782670">
	<ele>938.53</ele>
	<time>2023-05-06T06:55:49.000Z</time>
</trkpt>
<trkpt lat="46.1680200" lon="9.4781960">
	<ele>940.31</ele>
	<time>2023-05-06T06:56:00.000Z</time>
</trkpt>
<trkpt lat="46.1680530" lon="9.4781810">
	<ele>941.97</ele>
	<time>2023-05-06T06:56:10.000Z</time>
</trkpt>
<trkpt lat="46.1680600" lon="9.4780970">
	<ele>944.14</ele>
	<time>2023-05-06T06:56:25.000Z</time>
</trkpt>
<trkpt lat="46.1680560" lon="9.4780400">
	<ele>945.90</ele>
	<time>2023-05-06T06:56:35.000Z</time>
</trkpt>
<trkpt lat="46.1680700" lon="9.4779650">
	<ele>946.98</ele>
	<time>2023-05-06T06:56:45.000Z</time>
</trkpt>
<trkpt lat="46.1681140" lon="9.4778920">
	<ele>948.03</ele>
	<time>2023-05-06T06:56:55.000Z</time>
</trkpt>
<trkpt lat="46.1681600" lon="9.4778350">
	<ele>949.17</ele>
	<time>2023-05-06T06:57:05.000Z</time>
</trkpt>
<trkpt lat="46.1681800" lon="9.4777630">
	<ele>950.47</ele>
	<time>2023-05-06T06:57:15.000Z</time>
</trkpt>
<trkpt lat="46.1681630" lon="9.4777040">
	<ele>950.97</ele>
	<time>2023-05-06T06:57:22.000Z</time>
</trkpt>
<trkpt lat="46.1681180" lon="9.4776420">
	<ele>951.88</ele>
	<time>2023-05-06T06:57:32.000Z</time>
</trkpt>
<trkpt lat="46.1680830" lon="9.4775750">
	<ele>953.22</ele>
	<time>2023-05-06T06:57:42.000Z</time>
</trkpt>
<trkpt lat="46.1680220" lon="9.4775440">
	<ele>954.44</ele>
	<time>2023-05-06T06:57:52.000Z</time>
</trkpt>
<trkpt lat="46.1680200" lon="9.4774730">
	<ele>956.07</ele>
	<time>2023-05-06T06:58:02.000Z</time>
</trkpt>
<trkpt lat="46.1680100" lon="9.4773930">
	<ele>957.56</ele>
	<time>2023-05-06T06:58:12.000Z</time>
</trkpt>
<trkpt lat="46.1680100" lon="9.4773170">
	<ele>958.91</ele>
	<time>2023-05-06T06:58:22.000Z</time>
</trkpt>
<trkpt lat="46.1680450" lon="9.4772830">
	<ele>959.75</ele>
	<time>2023-05-06T07:02:02.000Z</time>
</trkpt>
<trkpt lat="46.1680700" lon="9.4772300">
	<ele>960.82</ele>
	<time>2023-05-06T07:02:08.000Z</time>
</trkpt>
<trkpt lat="46.1680870" lon="9.4771170">
	<ele>962.39</ele>
	<time>2023-05-06T07:02:18.000Z</time>
</trkpt>
<trkpt lat="46.1680640" lon="9.4770570">
	<ele>963.89</ele>
	<time>2023-05-06T07:02:28.000Z</time>
</trkpt>
<trkpt lat="46.1680220" lon="9.4770030">
	<ele>966.50</ele>
	<time>2023-05-06T07:02:43.000Z</time>
</trkpt>
<trkpt lat="46.1680830" lon="9.4769920">
	<ele>969.33</ele>
	<time>2023-05-06T07:04:52.000Z</time>
</trkpt>
<trkpt lat="46.1681560" lon="9.4770570">
	<ele>970.42</ele>
	<time>2023-05-06T07:05:02.000Z</time>
</trkpt>
<trkpt lat="46.1682200" lon="9.4771030">
	<ele>971.81</ele>
	<time>2023-05-06T07:05:12.000Z</time>
</trkpt>
<trkpt lat="46.1681860" lon="9.4769960">
	<ele>973.84</ele>
	<time>2023-05-06T07:05:27.000Z</time>
</trkpt>
<trkpt lat="46.1681440" lon="9.4769570">
	<ele>974.22</ele>
	<time>2023-05-06T07:05:32.000Z</time>
</trkpt>
<trkpt lat="46.1680700" lon="9.4768760">
	<ele>975.38</ele>
	<time>2023-05-06T07:05:42.000Z</time>
</trkpt>
<trkpt lat="46.1680370" lon="9.4767670">
	<ele>976.43</ele>
	<time>2023-05-06T07:05:52.000Z</time>
</trkpt>
<trkpt lat="46.1680450" lon="9.4766160">
	<ele>977.48</ele>
	<time>2023-05-06T07:06:02.000Z</time>
</trkpt>
<trkpt lat="46.1680200" lon="9.4764790">
	<ele>978.52</ele>
	<time>2023-05-06T07:06:12.000Z</time>
</trkpt>
<trkpt lat="46.1679730" lon="9.4763975">
	<ele>979.73</ele>
	<time>2023-05-06T07:06:22.000Z</time>
</trkpt>
<trkpt lat="46.1679270" lon="9.4763080">
	<ele>981.14</ele>
	<time>2023-05-06T07:06:32.000Z</time>
</trkpt>
<trkpt lat="46.1678960" lon="9.4762180">
	<ele>982.56</ele>
	<time>2023-05-06T07:06:42.000Z</time>
</trkpt>
<trkpt lat="46.1678500" lon="9.4761380">
	<ele>983.40</ele>
	<time>2023-05-06T07:06:52.000Z</time>
</trkpt>
<trkpt lat="46.1678430" lon="9.4760360">
	<ele>984.75</ele>
	<time>2023-05-06T07:07:01.000Z</time>
</trkpt>
<trkpt lat="46.1678730" lon="9.4759230">
	<ele>985.87</ele>
	<time>2023-05-06T07:07:11.000Z</time>
</trkpt>
<trkpt lat="46.1678800" lon="9.4758600">
	<ele>985.71</ele>
	<time>2023-05-06T07:07:16.000Z</time>
</trkpt>
<trkpt lat="46.1678960" lon="9.4756990">
	<ele>985.93</ele>
	<time>2023-05-06T07:07:26.000Z</time>
</trkpt>
<trkpt lat="46.1679100" lon="9.4755960">
	<ele>986.57</ele>
	<time>2023-05-06T07:07:36.000Z</time>
</trkpt>
<trkpt lat="46.1679460" lon="9.4754810">
	<ele>986.74</ele>
	<time>2023-05-06T07:07:46.000Z</time>
</trkpt>
<trkpt lat="46.1679420" lon="9.4753860">
	<ele>988.04</ele>
	<time>2023-05-06T07:07:56.000Z</time>
</trkpt>
<trkpt lat="46.1680070" lon="9.4753250">
	<ele>990.57</ele>
	<time>2023-05-06T07:08:11.000Z</time>
</trkpt>
<trkpt lat="46.1680370" lon="9.4752760">
	<ele>992.10</ele>
	<time>2023-05-06T07:08:21.000Z</time>
</trkpt>
<trkpt lat="46.1680560" lon="9.4751980">
	<ele>993.50</ele>
	<time>2023-05-06T07:08:31.000Z</time>
</trkpt>
<trkpt lat="46.1680680" lon="9.4751580">
	<ele>994.47</ele>
	<time>2023-05-06T07:08:36.000Z</time>
</trkpt>
<trkpt lat="46.1681180" lon="9.4750720">
	<ele>996.53</ele>
	<time>2023-05-06T07:08:51.000Z</time>
</trkpt>
<trkpt lat="46.1681500" lon="9.4750190">
	<ele>998.03</ele>
	<time>2023-05-06T07:09:01.000Z</time>
</trkpt>
<trkpt lat="46.1681750" lon="9.4749550">
	<ele>999.34</ele>
	<time>2023-05-06T07:09:11.000Z</time>
</trkpt>
<trkpt lat="46.1682050" lon="9.4749400">
	<ele>1000.01</ele>
	<time>2023-05-06T07:09:16.000Z</time>
</trkpt>
<trkpt lat="46.1682550" lon="9.4749170">
	<ele>1001.35</ele>
	<time>2023-05-06T07:09:25.000Z</time>
</trkpt>
<trkpt lat="46.1683270" lon="9.4748810">
	<ele>1002.79</ele>
	<time>2023-05-06T07:09:36.000Z</time>
</trkpt>
<trkpt lat="46.1683700" lon="9.4748160">
	<ele>1004.30</ele>
	<time>2023-05-06T07:09:46.000Z</time>
</trkpt>
<trkpt lat="46.1683960" lon="9.4747460">
	<ele>1005.62</ele>
	<time>2023-05-06T07:09:56.000Z</time>
</trkpt>
<trkpt lat="46.1683960" lon="9.4746450">
	<ele>1007.98</ele>
	<time>2023-05-06T07:10:11.000Z</time>
</trkpt>
<trkpt lat="46.1684000" lon="9.4745720">
	<ele>1009.68</ele>
	<time>2023-05-06T07:10:21.000Z</time>
</trkpt>
<trkpt lat="46.1684000" lon="9.4744890">
	<ele>1011.48</ele>
	<time>2023-05-06T07:10:31.000Z</time>
</trkpt>
<trkpt lat="46.1684100" lon="9.4744520">
	<ele>1012.11</ele>
	<time>2023-05-06T07:10:36.000Z</time>
</trkpt>
<trkpt lat="46.1684600" lon="9.4744700">
	<ele>1013.84</ele>
	<time>2023-05-06T07:10:46.000Z</time>
</trkpt>
<trkpt lat="46.1684760" lon="9.4745960">
	<ele>1014.38</ele>
	<time>2023-05-06T07:10:56.000Z</time>
</trkpt>
<trkpt lat="46.1685000" lon="9.4746720">
	<ele>1014.44</ele>
	<time>2023-05-06T07:11:01.000Z</time>
</trkpt>
<trkpt lat="46.1685200" lon="9.4748150">
	<ele>1014.90</ele>
	<time>2023-05-06T07:11:11.000Z</time>
</trkpt>
<trkpt lat="46.1685200" lon="9.4748620">
	<ele>1015.45</ele>
	<time>2023-05-06T07:11:16.000Z</time>
</trkpt>
<trkpt lat="46.1685180" lon="9.4749520">
	<ele>1016.51</ele>
	<time>2023-05-06T07:11:26.000Z</time>
</trkpt>
<trkpt lat="46.1684950" lon="9.4750395">
	<ele>1017.50</ele>
	<time>2023-05-06T07:11:36.000Z</time>
</trkpt>
<trkpt lat="46.1684900" lon="9.4751090">
	<ele>1018.52</ele>
	<time>2023-05-06T07:11:46.000Z</time>
</trkpt>
<trkpt lat="46.1685500" lon="9.4750930">
	<ele>1020.21</ele>
	<time>2023-05-06T07:11:55.000Z</time>
</trkpt>
<trkpt lat="46.1685500" lon="9.4751380">
	<ele>1021.13</ele>
	<time>2023-05-06T07:12:01.000Z</time>
</trkpt>
<trkpt lat="46.1685030" lon="9.4752280">
	<ele>1023.67</ele>
	<time>2023-05-06T07:12:16.000Z</time>
</trkpt>
<trkpt lat="46.1684530" lon="9.4752680">
	<ele>1025.06</ele>
	<time>2023-05-06T07:12:26.000Z</time>
</trkpt>
<trkpt lat="46.1685180" lon="9.4752540">
	<ele>1026.49</ele>
	<time>2023-05-06T07:12:36.000Z</time>
</trkpt>
<trkpt lat="46.1685800" lon="9.4752270">
	<ele>1027.65</ele>
	<time>2023-05-06T07:12:46.000Z</time>
</trkpt>
<trkpt lat="46.1686170" lon="9.4751810">
	<ele>1029.26</ele>
	<time>2023-05-06T07:12:56.000Z</time>
</trkpt>
<trkpt lat="46.1686500" lon="9.4751040">
	<ele>1031.34</ele>
	<time>2023-05-06T07:13:11.000Z</time>
</trkpt>
<trkpt lat="46.1686670" lon="9.4751500">
	<ele>1032.22</ele>
	<time>2023-05-06T07:13:16.000Z</time>
</trkpt>
<trkpt lat="46.1686550" lon="9.4752430">
	<ele>1033.80</ele>
	<time>2023-05-06T07:13:26.000Z</time>
</trkpt>
<trkpt lat="46.1686550" lon="9.4753200">
	<ele>1035.11</ele>
	<time>2023-05-06T07:13:36.000Z</time>
</trkpt>
<trkpt lat="46.1686860" lon="9.4753510">
	<ele>1037.41</ele>
	<time>2023-05-06T07:13:51.000Z</time>
</trkpt>
<trkpt lat="46.1687130" lon="9.4752850">
	<ele>1038.65</ele>
	<time>2023-05-06T07:14:01.000Z</time>
</trkpt>
<trkpt lat="46.1687360" lon="9.4751980">
	<ele>1040.06</ele>
	<time>2023-05-06T07:14:11.000Z</time>
</trkpt>
<trkpt lat="46.1687400" lon="9.4751510">
	<ele>1040.74</ele>
	<time>2023-05-06T07:14:16.000Z</time>
</trkpt>
<trkpt lat="46.1687660" lon="9.4750880">
	<ele>1041.99</ele>
	<time>2023-05-06T07:14:25.000Z</time>
</trkpt>
<trkpt lat="46.1687850" lon="9.4750830">
	<ele>1043.61</ele>
	<time>2023-05-06T07:14:36.000Z</time>
</trkpt>
<trkpt lat="46.1687930" lon="9.4751670">
	<ele>1044.84</ele>
	<time>2023-05-06T07:14:46.000Z</time>
</trkpt>
<trkpt lat="46.1687970" lon="9.4752480">
	<ele>1046.48</ele>
	<time>2023-05-06T07:14:56.000Z</time>
</trkpt>
<trkpt lat="46.1688200" lon="9.4753680">
	<ele>1048.18</ele>
	<time>2023-05-06T07:15:11.000Z</time>
</trkpt>
<trkpt lat="46.1688350" lon="9.4754040">
	<ele>1048.93</ele>
	<time>2023-05-06T07:15:16.000Z</time>
</trkpt>
<trkpt lat="46.1688700" lon="9.4753390">
	<ele>1051.61</ele>
	<time>2023-05-06T07:15:31.000Z</time>
</trkpt>
<trkpt lat="46.1688880" lon="9.4754050">
	<ele>1052.82</ele>
	<time>2023-05-06T07:15:41.000Z</time>
</trkpt>
<trkpt lat="46.1688840" lon="9.4755070">
	<ele>1052.95</ele>
	<time>2023-05-06T07:15:51.000Z</time>
</trkpt>
<trkpt lat="46.1688650" lon="9.4755720">
	<ele>1053.27</ele>
	<time>2023-05-06T07:15:56.000Z</time>
</trkpt>
<trkpt lat="46.1688540" lon="9.4756940">
	<ele>1053.74</ele>
	<time>2023-05-06T07:16:06.000Z</time>
</trkpt>
<trkpt lat="46.1688420" lon="9.4758215">
	<ele>1053.79</ele>
	<time>2023-05-06T07:16:16.000Z</time>
</trkpt>
<trkpt lat="46.1688160" lon="9.4758990">
	<ele>1053.88</ele>
	<time>2023-05-06T07:16:21.000Z</time>
</trkpt>
<trkpt lat="46.1688000" lon="9.4759900">
	<ele>1054.63</ele>
	<time>2023-05-06T07:16:31.000Z</time>
</trkpt>
<trkpt lat="46.1688300" lon="9.4760060">
	<ele>1055.12</ele>
	<time>2023-05-06T07:16:36.000Z</time>
</trkpt>
<trkpt lat="46.1688580" lon="9.4759210">
	<ele>1056.47</ele>
	<time>2023-05-06T07:16:46.000Z</time>
</trkpt>
<trkpt lat="46.1688960" lon="9.4758750">
	<ele>1057.96</ele>
	<time>2023-05-06T07:16:56.000Z</time>
</trkpt>
<trkpt lat="46.1689300" lon="9.4759600">
	<ele>1060.35</ele>
	<time>2023-05-06T07:17:11.000Z</time>
</trkpt>
<trkpt lat="46.1689640" lon="9.4760020">
	<ele>1061.80</ele>
	<time>2023-05-06T07:17:21.000Z</time>
</trkpt>
<trkpt lat="46.1689800" lon="9.4758780">
	<ele>1063.28</ele>
	<time>2023-05-06T07:17:36.000Z</time>
</trkpt>
<trkpt lat="46.1690060" lon="9.4757600">
	<ele>1064.77</ele>
	<time>2023-05-06T07:17:48.000Z</time>
</trkpt>
<trkpt lat="46.1690400" lon="9.4756820">
	<ele>1066.41</ele>
	<time>2023-05-06T07:17:58.000Z</time>
</trkpt>
<trkpt lat="46.1690800" lon="9.4756200">
	<ele>1068.03</ele>
	<time>2023-05-06T07:18:08.000Z</time>
</trkpt>
<trkpt lat="46.1690830" lon="9.4755390">
	<ele>1069.41</ele>
	<time>2023-05-06T07:18:18.000Z</time>
</trkpt>
<trkpt lat="46.1691000" lon="9.4754790">
	<ele>1070.60</ele>
	<time>2023-05-06T07:18:28.000Z</time>
</trkpt>
<trkpt lat="46.1691320" lon="9.4755400">
	<ele>1073.80</ele>
	<time>2023-05-06T07:18:48.000Z</time>
</trkpt>
<trkpt lat="46.1691500" lon="9.4756340">
	<ele>1075.17</ele>
	<time>2023-05-06T07:18:58.000Z</time>
</trkpt>
<trkpt lat="46.1691670" lon="9.4757150">
	<ele>1076.42</ele>
	<time>2023-05-06T07:19:08.000Z</time>
</trkpt>
<trkpt lat="46.1692000" lon="9.4756530">
	<ele>1078.01</ele>
	<time>2023-05-06T07:19:18.000Z</time>
</trkpt>
<trkpt lat="46.1692160" lon="9.4755730">
	<ele>1079.45</ele>
	<time>2023-05-06T07:19:28.000Z</time>
</trkpt>
<trkpt lat="46.1692200" lon="9.4754920">
	<ele>1080.85</ele>
	<time>2023-05-06T07:19:38.000Z</time>
</trkpt>
<trkpt lat="46.1692350" lon="9.4754090">
	<ele>1081.92</ele>
	<time>2023-05-06T07:19:48.000Z</time>
</trkpt>
<trkpt lat="46.1692160" lon="9.4752370">
	<ele>1082.34</ele>
	<time>2023-05-06T07:19:58.000Z</time>
</trkpt>
<trkpt lat="46.1691900" lon="9.4751620">
	<ele>1083.35</ele>
	<time>2023-05-06T07:20:07.000Z</time>
</trkpt>
<trkpt lat="46.1691930" lon="9.4751090">
	<ele>1084.21</ele>
	<time>2023-05-06T07:20:13.000Z</time>
</trkpt>
<trkpt lat="46.1692280" lon="9.4750180">
	<ele>1084.86</ele>
	<time>2023-05-06T07:20:23.000Z</time>
</trkpt>
<trkpt lat="46.1692500" lon="9.4749650">
	<ele>1085.23</ele>
	<time>2023-05-06T07:20:28.000Z</time>
</trkpt>
<trkpt lat="46.1692470" lon="9.4748390">
	<ele>1086.32</ele>
	<time>2023-05-06T07:20:38.000Z</time>
</trkpt>
<trkpt lat="46.1692540" lon="9.4747410">
	<ele>1087.45</ele>
	<time>2023-05-06T07:20:48.000Z</time>
</trkpt>
<trkpt lat="46.1692470" lon="9.4746060">
	<ele>1087.86</ele>
	<time>2023-05-06T07:20:58.000Z</time>
</trkpt>
<trkpt lat="46.1692280" lon="9.4744830">
	<ele>1088.69</ele>
	<time>2023-05-06T07:21:08.000Z</time>
</trkpt>
<trkpt lat="46.1692400" lon="9.4743710">
	<ele>1089.16</ele>
	<time>2023-05-06T07:21:18.000Z</time>
</trkpt>
<trkpt lat="46.1692700" lon="9.4742750">
	<ele>1089.75</ele>
	<time>2023-05-06T07:21:28.000Z</time>
</trkpt>
<trkpt lat="46.1693150" lon="9.4741600">
	<ele>1090.73</ele>
	<time>2023-05-06T07:21:38.000Z</time>
</trkpt>
<trkpt lat="46.1693570" lon="9.4740530">
	<ele>1091.69</ele>
	<time>2023-05-06T07:21:48.000Z</time>
</trkpt>
<trkpt lat="46.1693900" lon="9.4739570">
	<ele>1092.68</ele>
	<time>2023-05-06T07:21:58.000Z</time>
</trkpt>
<trkpt lat="46.1694220" lon="9.4738520">
	<ele>1093.67</ele>
	<time>2023-05-06T07:22:08.000Z</time>
</trkpt>
<trkpt lat="46.1694600" lon="9.4737625">
	<ele>1094.99</ele>
	<time>2023-05-06T07:22:18.000Z</time>
</trkpt>
<trkpt lat="46.1694700" lon="9.4736650">
	<ele>1096.34</ele>
	<time>2023-05-06T07:22:28.000Z</time>
</trkpt>
<trkpt lat="46.1694870" lon="9.4735920">
	<ele>1097.86</ele>
	<time>2023-05-06T07:22:37.000Z</time>
</trkpt>
<trkpt lat="46.1695000" lon="9.4734890">
	<ele>1099.44</ele>
	<time>2023-05-06T07:22:48.000Z</time>
</trkpt>
<trkpt lat="46.1695140" lon="9.4733925">
	<ele>1100.96</ele>
	<time>2023-05-06T07:22:58.000Z</time>
</trkpt>
<trkpt lat="46.1695300" lon="9.4733070">
	<ele>1102.59</ele>
	<time>2023-05-06T07:23:08.000Z</time>
</trkpt>
<trkpt lat="46.1695600" lon="9.4732320">
	<ele>1103.83</ele>
	<time>2023-05-06T07:23:18.000Z</time>
</trkpt>
<trkpt lat="46.1695900" lon="9.4731550">
	<ele>1105.00</ele>
	<time>2023-05-06T07:23:28.000Z</time>
</trkpt>
<trkpt lat="46.1696200" lon="9.4730580">
	<ele>1106.43</ele>
	<time>2023-05-06T07:23:38.000Z</time>
</trkpt>
<trkpt lat="46.1696470" lon="9.4729700">
	<ele>1107.89</ele>
	<time>2023-05-06T07:23:48.000Z</time>
</trkpt>
<trkpt lat="46.1696740" lon="9.4728850">
	<ele>1109.06</ele>
	<time>2023-05-06T07:23:58.000Z</time>
</trkpt>
<trkpt lat="46.1696850" lon="9.4728080">
	<ele>1110.35</ele>
	<time>2023-05-06T07:24:08.000Z</time>
</trkpt>
<trkpt lat="46.1697100" lon="9.4727120">
	<ele>1111.62</ele>
	<time>2023-05-06T07:24:18.000Z</time>
</trkpt>
<trkpt lat="46.1697400" lon="9.4726230">
	<ele>1113.20</ele>
	<time>2023-05-06T07:24:28.000Z</time>
</trkpt>
<trkpt lat="46.1697540" lon="9.4725060">
	<ele>1114.72</ele>
	<time>2023-05-06T07:24:43.000Z</time>
</trkpt>
<trkpt lat="46.1697800" lon="9.4724220">
	<ele>1115.96</ele>
	<time>2023-05-06T07:25:46.000Z</time>
</trkpt>
<trkpt lat="46.1697600" lon="9.4723590">
	<ele>1116.68</ele>
	<time>2023-05-06T07:25:53.000Z</time>
</trkpt>
<trkpt lat="46.1697800" lon="9.4722540">
	<ele>1118.60</ele>
	<time>2023-05-06T07:26:28.000Z</time>
</trkpt>
<trkpt lat="46.1698460" lon="9.4722850">
	<ele>1119.59</ele>
	<time>2023-05-06T07:26:38.000Z</time>
</trkpt>
<trkpt lat="46.1698300" lon="9.4723200">
	<ele>1119.00</ele>
	<time>2023-05-06T07:26:48.000Z</time>
</trkpt>
<trkpt lat="46.1698530" lon="9.4724180">
	<ele>1120.84</ele>
	<time>2023-05-06T07:28:48.000Z</time>
</trkpt>
<trkpt lat="46.1698720" lon="9.4724620">
	<ele>1123.43</ele>
	<time>2023-05-06T07:28:53.000Z</time>
</trkpt>
<trkpt lat="46.1699070" lon="9.4725400">
	<ele>1122.35</ele>
	<time>2023-05-06T07:29:03.000Z</time>
</trkpt>
<trkpt lat="46.1699370" lon="9.4726630">
	<ele>1123.19</ele>
	<time>2023-05-06T07:29:13.000Z</time>
</trkpt>
<trkpt lat="46.1699750" lon="9.4727720">
	<ele>1124.50</ele>
	<time>2023-05-06T07:29:23.000Z</time>
</trkpt>
<trkpt lat="46.1700060" lon="9.4728730">
	<ele>1125.93</ele>
	<time>2023-05-06T07:29:33.000Z</time>
</trkpt>
<trkpt lat="46.1700200" lon="9.4729750">
	<ele>1127.29</ele>
	<time>2023-05-06T07:29:43.000Z</time>
</trkpt>
<trkpt lat="46.1700300" lon="9.4730625">
	<ele>1128.66</ele>
	<time>2023-05-06T07:29:53.000Z</time>
</trkpt>
<trkpt lat="46.1700170" lon="9.4731480">
	<ele>1129.62</ele>
	<time>2023-05-06T07:30:38.000Z</time>
</trkpt>
<trkpt lat="46.1700250" lon="9.4732390">
	<ele>1125.34</ele>
	<time>2023-05-06T07:30:47.000Z</time>
</trkpt>
<trkpt lat="46.1700200" lon="9.4733010">
	<ele>1131.39</ele>
	<time>2023-05-06T07:30:53.000Z</time>
</trkpt>
<trkpt lat="46.1700170" lon="9.4733970">
	<ele>1132.81</ele>
	<time>2023-05-06T07:31:03.000Z</time>
</trkpt>
<trkpt lat="46.1700100" lon="9.4735090">
	<ele>1133.52</ele>
	<time>2023-05-06T07:31:13.000Z</time>
</trkpt>
<trkpt lat="46.1700020" lon="9.4736130">
	<ele>1134.17</ele>
	<time>2023-05-06T07:31:23.000Z</time>
</trkpt>
<trkpt lat="46.1699940" lon="9.4737290">
	<ele>1134.84</ele>
	<time>2023-05-06T07:31:33.000Z</time>
</trkpt>
<trkpt lat="46.1699800" lon="9.4738560">
	<ele>1136.70</ele>
	<time>2023-05-06T07:31:43.000Z</time>
</trkpt>
<trkpt lat="46.1699800" lon="9.4739930">
	<ele>1138.23</ele>
	<time>2023-05-06T07:31:53.000Z</time>
</trkpt>
<trkpt lat="46.1700060" lon="9.4741320">
	<ele>1137.80</ele>
	<time>2023-05-06T07:32:13.000Z</time>
</trkpt>
<trkpt lat="46.1700250" lon="9.4742500">
	<ele>1138.99</ele>
	<time>2023-05-06T07:32:23.000Z</time>
</trkpt>
<trkpt lat="46.1700330" lon="9.4743590">
	<ele>1139.68</ele>
	<time>2023-05-06T07:32:33.000Z</time>
</trkpt>
<trkpt lat="46.1700250" lon="9.4744910">
	<ele>1141.00</ele>
	<time>2023-05-06T07:32:43.000Z</time>
</trkpt>
<trkpt lat="46.1700200" lon="9.4746420">
	<ele>1141.90</ele>
	<time>2023-05-06T07:32:53.000Z</time>
</trkpt>
<trkpt lat="46.1700360" lon="9.4747925">
	<ele>1142.74</ele>
	<time>2023-05-06T07:33:03.000Z</time>
</trkpt>
<trkpt lat="46.1700630" lon="9.4749300">
	<ele>1143.85</ele>
	<time>2023-05-06T07:33:13.000Z</time>
</trkpt>
<trkpt lat="46.1700900" lon="9.4750560">
	<ele>1144.83</ele>
	<time>2023-05-06T07:33:23.000Z</time>
</trkpt>
<trkpt lat="46.1701160" lon="9.4751800">
	<ele>1145.90</ele>
	<time>2023-05-06T07:33:33.000Z</time>
</trkpt>
<trkpt lat="46.1701500" lon="9.4753010">
	<ele>1146.99</ele>
	<time>2023-05-06T07:33:43.000Z</time>
</trkpt>
<trkpt lat="46.1701500" lon="9.4753520">
	<ele>1147.00</ele>
	<time>2023-05-06T07:33:53.000Z</time>
</trkpt>
<trkpt lat="46.1702100" lon="9.4754290">
	<ele>1147.56</ele>
	<time>2023-05-06T07:34:08.000Z</time>
</trkpt>
<trkpt lat="46.1702040" lon="9.4754180">
	<ele>1148.13</ele>
	<time>2023-05-06T07:34:38.000Z</time>
</trkpt>
<trkpt lat="46.1702770" lon="9.4754500">
	<ele>1150.88</ele>
	<time>2023-05-06T07:34:53.000Z</time>
</trkpt>
<trkpt lat="46.1703200" lon="9.4754920">
	<ele>1152.59</ele>
	<time>2023-05-06T07:35:03.000Z</time>
</trkpt>
<trkpt lat="46.1703570" lon="9.4755450">
	<ele>1154.30</ele>
	<time>2023-05-06T07:35:53.000Z</time>
</trkpt>
<trkpt lat="46.1703870" lon="9.4755680">
	<ele>1155.61</ele>
	<time>2023-05-06T07:35:58.000Z</time>
</trkpt>
<trkpt lat="46.1704400" lon="9.4755945">
	<ele>1157.38</ele>
	<time>2023-05-06T07:36:08.000Z</time>
</trkpt>
<trkpt lat="46.1705000" lon="9.4756365">
	<ele>1158.60</ele>
	<time>2023-05-06T07:36:18.000Z</time>
</trkpt>
<trkpt lat="46.1705500" lon="9.4756720">
	<ele>1160.00</ele>
	<time>2023-05-06T07:36:28.000Z</time>
</trkpt>
<trkpt lat="46.1705970" lon="9.4756870">
	<ele>1161.63</ele>
	<time>2023-05-06T07:36:38.000Z</time>
</trkpt>
<trkpt lat="46.1706120" lon="9.4755790">
	<ele>1163.79</ele>
	<time>2023-05-06T07:36:53.000Z</time>
</trkpt>
<trkpt lat="46.1706280" lon="9.4755650">
	<ele>1164.64</ele>
	<time>2023-05-06T07:36:58.000Z</time>
</trkpt>
<trkpt lat="46.1706960" lon="9.4756130">
	<ele>1167.08</ele>
	<time>2023-05-06T07:37:13.000Z</time>
</trkpt>
<trkpt lat="46.1707230" lon="9.4756640">
	<ele>1167.51</ele>
	<time>2023-05-06T07:37:18.000Z</time>
</trkpt>
<trkpt lat="46.1708000" lon="9.4757510">
	<ele>1168.65</ele>
	<time>2023-05-06T07:37:28.000Z</time>
</trkpt>
<trkpt lat="46.1708600" lon="9.4757780">
	<ele>1170.03</ele>
	<time>2023-05-06T07:37:38.000Z</time>
</trkpt>
<trkpt lat="46.1709330" lon="9.4757840">
	<ele>1172.84</ele>
	<time>2023-05-06T07:38:13.000Z</time>
</trkpt>
<trkpt lat="46.1709670" lon="9.4757990">
	<ele>1173.68</ele>
	<time>2023-05-06T07:38:18.000Z</time>
</trkpt>
<trkpt lat="46.1710320" lon="9.4758210">
	<ele>1175.29</ele>
	<time>2023-05-06T07:38:28.000Z</time>
</trkpt>
<trkpt lat="46.1710900" lon="9.4758360">
	<ele>1177.06</ele>
	<time>2023-05-06T07:38:38.000Z</time>
</trkpt>
<trkpt lat="46.1711300" lon="9.4758650">
	<ele>1179.40</ele>
	<time>2023-05-06T07:38:53.000Z</time>
</trkpt>
<trkpt lat="46.1710970" lon="9.4758260">
	<ele>1180.23</ele>
	<time>2023-05-06T07:38:58.000Z</time>
</trkpt>
<trkpt lat="46.1710700" lon="9.4757530">
	<ele>1181.51</ele>
	<time>2023-05-06T07:39:08.000Z</time>
</trkpt>
<trkpt lat="46.1710700" lon="9.4756770">
	<ele>1183.21</ele>
	<time>2023-05-06T07:39:18.000Z</time>
</trkpt>
<trkpt lat="46.1710550" lon="9.4755770">
	<ele>1185.36</ele>
	<time>2023-05-06T07:39:33.000Z</time>
</trkpt>
<trkpt lat="46.1710470" lon="9.4755370">
	<ele>1185.94</ele>
	<time>2023-05-06T07:39:38.000Z</time>
</trkpt>
<trkpt lat="46.1710200" lon="9.4754260">
	<ele>1188.57</ele>
	<time>2023-05-06T07:39:53.000Z</time>
</trkpt>
<trkpt lat="46.1710400" lon="9.4753980">
	<ele>1189.36</ele>
	<time>2023-05-06T07:39:58.000Z</time>
</trkpt>
<trkpt lat="46.1710320" lon="9.4753210">
	<ele>1190.80</ele>
	<time>2023-05-06T07:40:08.000Z</time>
</trkpt>
<trkpt lat="46.1709750" lon="9.4752510">
	<ele>1190.88</ele>
	<time>2023-05-06T07:40:18.000Z</time>
</trkpt>
<trkpt lat="46.1709480" lon="9.4751510">
	<ele>1191.32</ele>
	<time>2023-05-06T07:40:38.000Z</time>
</trkpt>
<trkpt lat="46.1709400" lon="9.4750890">
	<ele>1192.21</ele>
	<time>2023-05-06T07:40:47.000Z</time>
</trkpt>
<trkpt lat="46.1710050" lon="9.4750395">
	<ele>1193.48</ele>
	<time>2023-05-06T07:40:58.000Z</time>
</trkpt>
<trkpt lat="46.1709900" lon="9.4749280">
	<ele>1194.94</ele>
	<time>2023-05-06T07:41:13.000Z</time>
</trkpt>
<trkpt lat="46.1709700" lon="9.4748570">
	<ele>1195.22</ele>
	<time>2023-05-06T07:41:18.000Z</time>
</trkpt>
<trkpt lat="46.1709700" lon="9.4747310">
	<ele>1196.74</ele>
	<time>2023-05-06T07:41:28.000Z</time>
</trkpt>
<trkpt lat="46.1709700" lon="9.4746190">
	<ele>1198.37</ele>
	<time>2023-05-06T07:41:38.000Z</time>
</trkpt>
<trkpt lat="46.1710320" lon="9.4745510">
	<ele>1200.18</ele>
	<time>2023-05-06T07:41:48.000Z</time>
</trkpt>
<trkpt lat="46.1710470" lon="9.4744450">
	<ele>1201.84</ele>
	<time>2023-05-06T07:41:58.000Z</time>
</trkpt>
<trkpt lat="46.1710600" lon="9.4743400">
	<ele>1202.77</ele>
	<time>2023-05-06T07:42:08.000Z</time>
</trkpt>
<trkpt lat="46.1710620" lon="9.4742820">
	<ele>1202.31</ele>
	<time>2023-05-06T07:42:18.000Z</time>
</trkpt>
<trkpt lat="46.1710700" lon="9.4741690">
	<ele>1204.97</ele>
	<time>2023-05-06T07:42:33.000Z</time>
</trkpt>
<trkpt lat="46.1710660" lon="9.4741090">
	<ele>1205.60</ele>
	<time>2023-05-06T07:42:38.000Z</time>
</trkpt>
<trkpt lat="46.1710470" lon="9.4739760">
	<ele>1204.95</ele>
	<time>2023-05-06T07:42:48.000Z</time>
</trkpt>
<trkpt lat="46.1710240" lon="9.4738410">
	<ele>1203.67</ele>
	<time>2023-05-06T07:42:58.000Z</time>
</trkpt>
<trkpt lat="46.1710050" lon="9.4736960">
	<ele>1202.04</ele>
	<time>2023-05-06T07:43:08.000Z</time>
</trkpt>
<trkpt lat="46.1710050" lon="9.4735560">
	<ele>1201.66</ele>
	<time>2023-05-06T07:43:17.000Z</time>
</trkpt>
<trkpt lat="46.1710200" lon="9.4734745">
	<ele>1202.63</ele>
	<time>2023-05-06T07:43:23.000Z</time>
</trkpt>
<trkpt lat="46.1710660" lon="9.4733930">
	<ele>1204.35</ele>
	<time>2023-05-06T07:43:33.000Z</time>
</trkpt>
<trkpt lat="46.1710660" lon="9.4733280">
	<ele>1205.23</ele>
	<time>2023-05-06T07:43:38.000Z</time>
</trkpt>
<trkpt lat="46.1710780" lon="9.4732080">
	<ele>1206.27</ele>
	<time>2023-05-06T07:43:48.000Z</time>
</trkpt>
<trkpt lat="46.1710900" lon="9.4730720">
	<ele>1207.28</ele>
	<time>2023-05-06T07:43:58.000Z</time>
</trkpt>
<trkpt lat="46.1710930" lon="9.4729480">
	<ele>1208.18</ele>
	<time>2023-05-06T07:44:08.000Z</time>
</trkpt>
<trkpt lat="46.1710900" lon="9.4728160">
	<ele>1208.17</ele>
	<time>2023-05-06T07:44:18.000Z</time>
</trkpt>
<trkpt lat="46.1710700" lon="9.4726770">
	<ele>1208.02</ele>
	<time>2023-05-06T07:44:28.000Z</time>
</trkpt>
<trkpt lat="46.1710500" lon="9.4725685">
	<ele>1206.42</ele>
	<time>2023-05-06T07:44:38.000Z</time>
</trkpt>
<trkpt lat="46.1710620" lon="9.4724960">
	<ele>1206.83</ele>
	<time>2023-05-06T07:44:48.000Z</time>
</trkpt>
<trkpt lat="46.1710240" lon="9.4724330">
	<ele>1206.94</ele>
	<time>2023-05-06T07:45:38.000Z</time>
</trkpt>
<trkpt lat="46.1710050" lon="9.4723220">
	<ele>1207.10</ele>
	<time>2023-05-06T07:45:57.000Z</time>
</trkpt>
<trkpt lat="46.1709980" lon="9.4722340">
	<ele>1207.27</ele>
	<time>2023-05-06T07:46:04.000Z</time>
</trkpt>
<trkpt lat="46.1710050" lon="9.4720810">
	<ele>1207.92</ele>
	<time>2023-05-06T07:46:14.000Z</time>
</trkpt>
<trkpt lat="46.1710170" lon="9.4719420">
	<ele>1208.80</ele>
	<time>2023-05-06T07:46:24.000Z</time>
</trkpt>
<trkpt lat="46.1710400" lon="9.4717960">
	<ele>1209.92</ele>
	<time>2023-05-06T07:46:34.000Z</time>
</trkpt>
<trkpt lat="46.1710660" lon="9.4716530">
	<ele>1211.19</ele>
	<time>2023-05-06T07:46:44.000Z</time>
</trkpt>
<trkpt lat="46.1710850" lon="9.4715100">
	<ele>1211.64</ele>
	<time>2023-05-06T07:46:54.000Z</time>
</trkpt>
<trkpt lat="46.1711120" lon="9.4713790">
	<ele>1212.99</ele>
	<time>2023-05-06T07:47:04.000Z</time>
</trkpt>
<trkpt lat="46.1711400" lon="9.4712690">
	<ele>1214.33</ele>
	<time>2023-05-06T07:47:14.000Z</time>
</trkpt>
<trkpt lat="46.1711850" lon="9.4712370">
	<ele>1213.43</ele>
	<time>2023-05-06T07:47:24.000Z</time>
</trkpt>
<trkpt lat="46.1711960" lon="9.4711570">
	<ele>1214.57</ele>
	<time>2023-05-06T07:47:39.000Z</time>
</trkpt>
<trkpt lat="46.1711850" lon="9.4710865">
	<ele>1218.19</ele>
	<time>2023-05-06T07:48:14.000Z</time>
</trkpt>
<trkpt lat="46.1712200" lon="9.4710300">
	<ele>1219.65</ele>
	<time>2023-05-06T07:48:24.000Z</time>
</trkpt>
<trkpt lat="46.1712650" lon="9.4709710">
	<ele>1221.81</ele>
	<time>2023-05-06T07:48:38.000Z</time>
</trkpt>
<trkpt lat="46.1713140" lon="9.4708820">
	<ele>1224.30</ele>
	<time>2023-05-06T07:48:53.000Z</time>
</trkpt>
<trkpt lat="46.1713180" lon="9.4708440">
	<ele>1225.30</ele>
	<time>2023-05-06T07:48:58.000Z</time>
</trkpt>
<trkpt lat="46.1713750" lon="9.4708090">
	<ele>1227.57</ele>
	<time>2023-05-06T07:49:13.000Z</time>
</trkpt>
<trkpt lat="46.1713750" lon="9.4708690">
	<ele>1228.42</ele>
	<time>2023-05-06T07:49:18.000Z</time>
</trkpt>
<trkpt lat="46.1713940" lon="9.4709640">
	<ele>1230.43</ele>
	<time>2023-05-06T07:49:29.000Z</time>
</trkpt>
<trkpt lat="46.1714250" lon="9.4710500">
	<ele>1231.85</ele>
	<time>2023-05-06T07:49:39.000Z</time>
</trkpt>
<trkpt lat="46.1714480" lon="9.4711640">
	<ele>1234.18</ele>
	<time>2023-05-06T07:49:54.000Z</time>
</trkpt>
<trkpt lat="46.1714400" lon="9.4712305">
	<ele>1235.66</ele>
	<time>2023-05-06T07:50:04.000Z</time>
</trkpt>
<trkpt lat="46.1714860" lon="9.4711880">
	<ele>1237.86</ele>
	<time>2023-05-06T07:50:19.000Z</time>
</trkpt>
<trkpt lat="46.1715280" lon="9.4710620">
	<ele>1239.85</ele>
	<time>2023-05-06T07:50:34.000Z</time>
</trkpt>
<trkpt lat="46.1715430" lon="9.4709980">
	<ele>1240.51</ele>
	<time>2023-05-06T07:50:39.000Z</time>
</trkpt>
<trkpt lat="46.1715800" lon="9.4709040">
	<ele>1241.69</ele>
	<time>2023-05-06T07:50:49.000Z</time>
</trkpt>
<trkpt lat="46.1716300" lon="9.4708130">
	<ele>1243.07</ele>
	<time>2023-05-06T07:50:59.000Z</time>
</trkpt>
<trkpt lat="46.1716800" lon="9.4707530">
	<ele>1244.26</ele>
	<time>2023-05-06T07:51:09.000Z</time>
</trkpt>
<trkpt lat="46.1717100" lon="9.4706700">
	<ele>1245.94</ele>
	<time>2023-05-06T07:51:19.000Z</time>
</trkpt>
<trkpt lat="46.1717400" lon="9.4707190">
	<ele>1247.22</ele>
	<time>2023-05-06T07:51:29.000Z</time>
</trkpt>
<trkpt lat="46.1717450" lon="9.4708185">
	<ele>1249.01</ele>
	<time>2023-05-06T07:51:39.000Z</time>
</trkpt>
<trkpt lat="46.1717600" lon="9.4708960">
	<ele>1250.34</ele>
	<time>2023-05-06T07:51:49.000Z</time>
</trkpt>
<trkpt lat="46.1717600" lon="9.4709550">
	<ele>1252.83</ele>
	<time>2023-05-06T07:52:04.000Z</time>
</trkpt>
<trkpt lat="46.1717600" lon="9.4709300">
	<ele>1253.06</ele>
	<time>2023-05-06T07:53:08.000Z</time>
</trkpt>
<trkpt lat="46.1717700" lon="9.4709940">
	<ele>1254.69</ele>
	<time>2023-05-06T07:53:33.000Z</time>
</trkpt>
<trkpt lat="46.1717500" lon="9.4711080">
	<ele>1256.40</ele>
	<time>2023-05-06T07:53:53.000Z</time>
</trkpt>
<trkpt lat="46.1717530" lon="9.4711940">
	<ele>1258.02</ele>
	<time>2023-05-06T07:54:03.000Z</time>
</trkpt>
<trkpt lat="46.1717530" lon="9.4712980">
	<ele>1260.27</ele>
	<time>2023-05-06T07:54:18.000Z</time>
</trkpt>
<trkpt lat="46.1717530" lon="9.4713750">
	<ele>1261.94</ele>
	<time>2023-05-06T07:54:28.000Z</time>
</trkpt>
<trkpt lat="46.1717450" lon="9.4714490">
	<ele>1263.48</ele>
	<time>2023-05-06T07:54:38.000Z</time>
</trkpt>
<trkpt lat="46.1717870" lon="9.4714900">
	<ele>1264.85</ele>
	<time>2023-05-06T07:54:48.000Z</time>
</trkpt>
<trkpt lat="46.1718200" lon="9.4714630">
	<ele>1267.17</ele>
	<time>2023-05-06T07:55:02.000Z</time>
</trkpt>
<trkpt lat="46.1718440" lon="9.4714270">
	<ele>1268.08</ele>
	<time>2023-05-06T07:55:08.000Z</time>
</trkpt>
<trkpt lat="46.1719100" lon="9.4713530">
	<ele>1270.86</ele>
	<time>2023-05-06T07:55:23.000Z</time>
</trkpt>
<trkpt lat="46.1719470" lon="9.4712830">
	<ele>1272.40</ele>
	<time>2023-05-06T07:55:33.000Z</time>
</trkpt>
<trkpt lat="46.1719780" lon="9.4713410">
	<ele>1274.18</ele>
	<time>2023-05-06T07:55:43.000Z</time>
</trkpt>
<trkpt lat="46.1719630" lon="9.4714330">
	<ele>1275.46</ele>
	<time>2023-05-06T07:55:53.000Z</time>
</trkpt>
<trkpt lat="46.1719700" lon="9.4715150">
	<ele>1276.66</ele>
	<time>2023-05-06T07:56:03.000Z</time>
</trkpt>
<trkpt lat="46.1719780" lon="9.4716070">
	<ele>1277.82</ele>
	<time>2023-05-06T07:56:13.000Z</time>
</trkpt>
<trkpt lat="46.1719900" lon="9.4716730">
	<ele>1278.51</ele>
	<time>2023-05-06T07:56:23.000Z</time>
</trkpt>
<trkpt lat="46.1720050" lon="9.4717820">
	<ele>1279.60</ele>
	<time>2023-05-06T07:56:33.000Z</time>
</trkpt>
<trkpt lat="46.1720100" lon="9.4719040">
	<ele>1280.22</ele>
	<time>2023-05-06T07:56:43.000Z</time>
</trkpt>
<trkpt lat="46.1720160" lon="9.4720220">
	<ele>1281.01</ele>
	<time>2023-05-06T07:56:53.000Z</time>
</trkpt>
<trkpt lat="46.1720430" lon="9.4721410">
	<ele>1281.93</ele>
	<time>2023-05-06T07:57:03.000Z</time>
</trkpt>
<trkpt lat="46.1720660" lon="9.4722140">
	<ele>1283.11</ele>
	<time>2023-05-06T07:57:13.000Z</time>
</trkpt>
<trkpt lat="46.1721080" lon="9.4722850">
	<ele>1284.66</ele>
	<time>2023-05-06T07:57:23.000Z</time>
</trkpt>
<trkpt lat="46.1721270" lon="9.4723880">
	<ele>1287.10</ele>
	<time>2023-05-06T07:57:38.000Z</time>
</trkpt>
<trkpt lat="46.1721500" lon="9.4724520">
	<ele>1288.38</ele>
	<time>2023-05-06T07:57:48.000Z</time>
</trkpt>
<trkpt lat="46.1721700" lon="9.4725270">
	<ele>1290.16</ele>
	<time>2023-05-06T08:01:19.000Z</time>
</trkpt>
<trkpt lat="46.1722070" lon="9.4725690">
	<ele>1291.82</ele>
	<time>2023-05-06T08:01:29.000Z</time>
</trkpt>
<trkpt lat="46.1722530" lon="9.4726090">
	<ele>1293.50</ele>
	<time>2023-05-06T08:01:39.000Z</time>
</trkpt>
<trkpt lat="46.1722830" lon="9.4727170">
	<ele>1295.69</ele>
	<time>2023-05-06T08:01:54.000Z</time>
</trkpt>
<trkpt lat="46.1723100" lon="9.4727750">
	<ele>1297.26</ele>
	<time>2023-05-06T08:02:04.000Z</time>
</trkpt>
<trkpt lat="46.1723480" lon="9.4728700">
	<ele>1299.99</ele>
	<time>2023-05-06T08:02:19.000Z</time>
</trkpt>
<trkpt lat="46.1723800" lon="9.4729450">
	<ele>1301.66</ele>
	<time>2023-05-06T08:02:29.000Z</time>
</trkpt>
<trkpt lat="46.1724130" lon="9.4730140">
	<ele>1303.04</ele>
	<time>2023-05-06T08:02:39.000Z</time>
</trkpt>
<trkpt lat="46.1724600" lon="9.4730860">
	<ele>1305.11</ele>
	<time>2023-05-06T08:02:54.000Z</time>
</trkpt>
<trkpt lat="46.1724800" lon="9.4731350">
	<ele>1306.93</ele>
	<time>2023-05-06T08:03:04.000Z</time>
</trkpt>
<trkpt lat="46.1725120" lon="9.4730770">
	<ele>1308.12</ele>
	<time>2023-05-06T08:03:24.000Z</time>
</trkpt>
<trkpt lat="46.1724970" lon="9.4729630">
	<ele>1309.53</ele>
	<time>2023-05-06T08:03:34.000Z</time>
</trkpt>
<trkpt lat="46.1724930" lon="9.4729160">
	<ele>1310.03</ele>
	<time>2023-05-06T08:03:39.000Z</time>
</trkpt>
<trkpt lat="46.1725300" lon="9.4728460">
	<ele>1312.05</ele>
	<time>2023-05-06T08:03:54.000Z</time>
</trkpt>
<trkpt lat="46.1725460" lon="9.4729330">
	<ele>1313.46</ele>
	<time>2023-05-06T08:04:04.000Z</time>
</trkpt>
<trkpt lat="46.1725800" lon="9.4729980">
	<ele>1315.11</ele>
	<time>2023-05-06T08:04:14.000Z</time>
</trkpt>
<trkpt lat="46.1726100" lon="9.4730290">
	<ele>1316.65</ele>
	<time>2023-05-06T08:04:24.000Z</time>
</trkpt>
<trkpt lat="46.1726380" lon="9.4729520">
	<ele>1318.93</ele>
	<time>2023-05-06T08:04:39.000Z</time>
</trkpt>
<trkpt lat="46.1726720" lon="9.4730050">
	<ele>1320.50</ele>
	<time>2023-05-06T08:04:49.000Z</time>
</trkpt>
<trkpt lat="46.1727140" lon="9.4730520">
	<ele>1321.76</ele>
	<time>2023-05-06T08:04:59.000Z</time>
</trkpt>
<trkpt lat="46.1727600" lon="9.4731030">
	<ele>1324.23</ele>
	<time>2023-05-06T08:05:14.000Z</time>
</trkpt>
<trkpt lat="46.1727800" lon="9.4731510">
	<ele>1325.77</ele>
	<time>2023-05-06T08:05:24.000Z</time>
</trkpt>
<trkpt lat="46.1728000" lon="9.4731170">
	<ele>1327.69</ele>
	<time>2023-05-06T08:05:39.000Z</time>
</trkpt>
<trkpt lat="46.1728000" lon="9.4732140">
	<ele>1329.88</ele>
	<time>2023-05-06T08:05:54.000Z</time>
</trkpt>
<trkpt lat="46.1728360" lon="9.4732500">
	<ele>1331.24</ele>
	<time>2023-05-06T08:06:04.000Z</time>
</trkpt>
<trkpt lat="46.1728500" lon="9.4733390">
	<ele>1333.55</ele>
	<time>2023-05-06T08:06:19.000Z</time>
</trkpt>
<trkpt lat="46.1728700" lon="9.4734335">
	<ele>1335.76</ele>
	<time>2023-05-06T08:06:34.000Z</time>
</trkpt>
<trkpt lat="46.1728900" lon="9.4734600">
	<ele>1336.50</ele>
	<time>2023-05-06T08:06:39.000Z</time>
</trkpt>
<trkpt lat="46.1729100" lon="9.4734660">
	<ele>1338.39</ele>
	<time>2023-05-06T08:06:54.000Z</time>
</trkpt>
<trkpt lat="46.1729280" lon="9.4735155">
	<ele>1339.61</ele>
	<time>2023-05-06T08:07:04.000Z</time>
</trkpt>
<trkpt lat="46.1729470" lon="9.4735740">
	<ele>1341.23</ele>
	<time>2023-05-06T08:07:23.000Z</time>
</trkpt>
<trkpt lat="46.1729740" lon="9.4736730">
	<ele>1342.15</ele>
	<time>2023-05-06T08:07:33.000Z</time>
</trkpt>
<trkpt lat="46.1730000" lon="9.4737700">
	<ele>1343.11</ele>
	<time>2023-05-06T08:07:43.000Z</time>
</trkpt>
<trkpt lat="46.1730200" lon="9.4737280">
	<ele>1345.19</ele>
	<time>2023-05-06T08:07:58.000Z</time>
</trkpt>
<trkpt lat="46.1730500" lon="9.4737920">
	<ele>1346.72</ele>
	<time>2023-05-06T08:08:08.000Z</time>
</trkpt>
<trkpt lat="46.1730880" lon="9.4738410">
	<ele>1348.28</ele>
	<time>2023-05-06T08:08:18.000Z</time>
</trkpt>
<trkpt lat="46.1731070" lon="9.4738780">
	<ele>1348.80</ele>
	<time>2023-05-06T08:08:23.000Z</time>
</trkpt>
<trkpt lat="46.1731300" lon="9.4739490">
	<ele>1350.13</ele>
	<time>2023-05-06T08:08:33.000Z</time>
</trkpt>
<trkpt lat="46.1731760" lon="9.4739740">
	<ele>1351.43</ele>
	<time>2023-05-06T08:08:43.000Z</time>
</trkpt>
<trkpt lat="46.1732200" lon="9.4740260">
	<ele>1353.56</ele>
	<time>2023-05-06T08:08:58.000Z</time>
</trkpt>
<trkpt lat="46.1732600" lon="9.4740600">
	<ele>1355.11</ele>
	<time>2023-05-06T08:09:08.000Z</time>
</trkpt>
<trkpt lat="46.1732900" lon="9.4740800">
	<ele>1356.96</ele>
	<time>2023-05-06T08:09:23.000Z</time>
</trkpt>
<trkpt lat="46.1732750" lon="9.4739620">
	<ele>1359.19</ele>
	<time>2023-05-06T08:09:38.000Z</time>
</trkpt>
<trkpt lat="46.1732860" lon="9.4739080">
	<ele>1360.64</ele>
	<time>2023-05-06T08:09:48.000Z</time>
</trkpt>
<trkpt lat="46.1733250" lon="9.4738960">
	<ele>1363.05</ele>
	<time>2023-05-06T08:10:03.000Z</time>
</trkpt>
<trkpt lat="46.1733200" lon="9.4738200">
	<ele>1364.24</ele>
	<time>2023-05-06T08:10:13.000Z</time>
</trkpt>
<trkpt lat="46.1733250" lon="9.4737610">
	<ele>1365.43</ele>
	<time>2023-05-06T08:10:23.000Z</time>
</trkpt>
<trkpt lat="46.1733740" lon="9.4738090">
	<ele>1367.74</ele>
	<time>2023-05-06T08:10:38.000Z</time>
</trkpt>
<trkpt lat="46.1733930" lon="9.4738430">
	<ele>1368.29</ele>
	<time>2023-05-06T08:10:43.000Z</time>
</trkpt>
<trkpt lat="46.1734200" lon="9.4738050">
	<ele>1370.55</ele>
	<time>2023-05-06T08:10:58.000Z</time>
</trkpt>
<trkpt lat="46.1734500" lon="9.4738490">
	<ele>1372.06</ele>
	<time>2023-05-06T08:11:08.000Z</time>
</trkpt>
<trkpt lat="46.1734960" lon="9.4739590">
	<ele>1373.83</ele>
	<time>2023-05-06T08:11:23.000Z</time>
</trkpt>
<trkpt lat="46.1735230" lon="9.4740510">
	<ele>1374.54</ele>
	<time>2023-05-06T08:11:33.000Z</time>
</trkpt>
<trkpt lat="46.1735340" lon="9.4741300">
	<ele>1375.55</ele>
	<time>2023-05-06T08:11:43.000Z</time>
</trkpt>
<trkpt lat="46.1735880" lon="9.4741940">
	<ele>1377.46</ele>
	<time>2023-05-06T08:11:58.000Z</time>
</trkpt>
<trkpt lat="46.1736070" lon="9.4741340">
	<ele>1378.75</ele>
	<time>2023-05-06T08:12:08.000Z</time>
</trkpt>
<trkpt lat="46.1736150" lon="9.4740450">
	<ele>1381.06</ele>
	<time>2023-05-06T08:12:23.000Z</time>
</trkpt>
<trkpt lat="46.1736450" lon="9.4741335">
	<ele>1383.13</ele>
	<time>2023-05-06T08:12:38.000Z</time>
</trkpt>
<trkpt lat="46.1736530" lon="9.4741780">
	<ele>1383.61</ele>
	<time>2023-05-06T08:12:43.000Z</time>
</trkpt>
<trkpt lat="46.1736640" lon="9.4742600">
	<ele>1384.90</ele>
	<time>2023-05-06T08:12:53.000Z</time>
</trkpt>
<trkpt lat="46.1737020" lon="9.4743090">
	<ele>1386.12</ele>
	<time>2023-05-06T08:13:03.000Z</time>
</trkpt>
<trkpt lat="46.1737200" lon="9.4742300">
	<ele>1388.19</ele>
	<time>2023-05-06T08:13:18.000Z</time>
</trkpt>
<trkpt lat="46.1737560" lon="9.4742500">
	<ele>1389.85</ele>
	<time>2023-05-06T08:13:28.000Z</time>
</trkpt>
<trkpt lat="46.1737670" lon="9.4743450">
	<ele>1391.66</ele>
	<time>2023-05-06T08:13:43.000Z</time>
</trkpt>
<trkpt lat="46.1737940" lon="9.4744260">
	<ele>1393.87</ele>
	<time>2023-05-06T08:13:58.000Z</time>
</trkpt>
<trkpt lat="46.1738240" lon="9.4744650">
	<ele>1394.98</ele>
	<time>2023-05-06T08:14:08.000Z</time>
</trkpt>
<trkpt lat="46.1738780" lon="9.4745170">
	<ele>1397.22</ele>
	<time>2023-05-06T08:14:23.000Z</time>
</trkpt>
<trkpt lat="46.1739200" lon="9.4745480">
	<ele>1399.26</ele>
	<time>2023-05-06T08:14:38.000Z</time>
</trkpt>
<trkpt lat="46.1739700" lon="9.4745630">
	<ele>1400.68</ele>
	<time>2023-05-06T08:14:48.000Z</time>
</trkpt>
<trkpt lat="46.1739960" lon="9.4745330">
	<ele>1403.42</ele>
	<time>2023-05-06T08:15:08.000Z</time>
</trkpt>
<trkpt lat="46.1740230" lon="9.4744960">
	<ele>1405.39</ele>
	<time>2023-05-06T08:15:23.000Z</time>
</trkpt>
<trkpt lat="46.1740650" lon="9.4745610">
	<ele>1407.52</ele>
	<time>2023-05-06T08:15:38.000Z</time>
</trkpt>
<trkpt lat="46.1740950" lon="9.4745650">
	<ele>1408.25</ele>
	<time>2023-05-06T08:15:43.000Z</time>
</trkpt>
<trkpt lat="46.1741400" lon="9.4746140">
	<ele>1410.31</ele>
	<time>2023-05-06T08:15:58.000Z</time>
</trkpt>
<trkpt lat="46.1741870" lon="9.4746120">
	<ele>1412.18</ele>
	<time>2023-05-06T08:16:13.000Z</time>
</trkpt>
<trkpt lat="46.1742300" lon="9.4746510">
	<ele>1414.48</ele>
	<time>2023-05-06T08:16:58.000Z</time>
</trkpt>
<trkpt lat="46.1742740" lon="9.4746580">
	<ele>1416.11</ele>
	<time>2023-05-06T08:17:08.000Z</time>
</trkpt>
<trkpt lat="46.1742250" lon="9.4745540">
	<ele>1418.21</ele>
	<time>2023-05-06T08:17:23.000Z</time>
</trkpt>
<trkpt lat="46.1741800" lon="9.4744410">
	<ele>1419.31</ele>
	<time>2023-05-06T08:17:33.000Z</time>
</trkpt>
<trkpt lat="46.1741680" lon="9.4743350">
	<ele>1420.28</ele>
	<time>2023-05-06T08:17:43.000Z</time>
</trkpt>
<trkpt lat="46.1742020" lon="9.4742500">
	<ele>1422.02</ele>
	<time>2023-05-06T08:17:53.000Z</time>
</trkpt>
<trkpt lat="46.1742000" lon="9.4741640">
	<ele>1423.51</ele>
	<time>2023-05-06T08:18:03.000Z</time>
</trkpt>
<trkpt lat="46.1742300" lon="9.4740930">
	<ele>1425.05</ele>
	<time>2023-05-06T08:18:13.000Z</time>
</trkpt>
<trkpt lat="46.1742440" lon="9.4740280">
	<ele>1426.69</ele>
	<time>2023-05-06T08:18:23.000Z</time>
</trkpt>
<trkpt lat="46.1742970" lon="9.4741170">
	<ele>1428.40</ele>
	<time>2023-05-06T08:18:33.000Z</time>
</trkpt>
<trkpt lat="46.1743500" lon="9.4742010">
	<ele>1430.02</ele>
	<time>2023-05-06T08:18:43.000Z</time>
</trkpt>
<trkpt lat="46.1743930" lon="9.4742590">
	<ele>1431.78</ele>
	<time>2023-05-06T08:18:53.000Z</time>
</trkpt>
<trkpt lat="46.1744420" lon="9.4743150">
	<ele>1433.44</ele>
	<time>2023-05-06T08:19:03.000Z</time>
</trkpt>
<trkpt lat="46.1744900" lon="9.4743400">
	<ele>1434.93</ele>
	<time>2023-05-06T08:19:13.000Z</time>
</trkpt>
<trkpt lat="46.1744500" lon="9.4742710">
	<ele>1436.17</ele>
	<time>2023-05-06T08:19:23.000Z</time>
</trkpt>
<trkpt lat="46.1744960" lon="9.4743300">
	<ele>1438.19</ele>
	<time>2023-05-06T08:19:38.000Z</time>
</trkpt>
<trkpt lat="46.1745340" lon="9.4743290">
	<ele>1439.10</ele>
	<time>2023-05-06T08:19:43.000Z</time>
</trkpt>
<trkpt lat="46.1745030" lon="9.4742130">
	<ele>1441.18</ele>
	<time>2023-05-06T08:19:58.000Z</time>
</trkpt>
<trkpt lat="46.1745150" lon="9.4741850">
	<ele>1442.13</ele>
	<time>2023-05-06T08:20:03.000Z</time>
</trkpt>
<trkpt lat="46.1745720" lon="9.4742390">
	<ele>1443.76</ele>
	<time>2023-05-06T08:20:13.000Z</time>
</trkpt>
<trkpt lat="46.1746060" lon="9.4742260">
	<ele>1445.24</ele>
	<time>2023-05-06T08:20:23.000Z</time>
</trkpt>
<trkpt lat="46.1745800" lon="9.4741590">
	<ele>1446.78</ele>
	<time>2023-05-06T08:20:33.000Z</time>
</trkpt>
<trkpt lat="46.1745900" lon="9.4740940">
	<ele>1448.49</ele>
	<time>2023-05-06T08:20:43.000Z</time>
</trkpt>
<trkpt lat="46.1746140" lon="9.4740210">
	<ele>1450.06</ele>
	<time>2023-05-06T08:20:53.000Z</time>
</trkpt>
<trkpt lat="46.1745950" lon="9.4739590">
	<ele>1451.36</ele>
	<time>2023-05-06T08:21:03.000Z</time>
</trkpt>
<trkpt lat="46.1746000" lon="9.4738560">
	<ele>1453.08</ele>
	<time>2023-05-06T08:21:18.000Z</time>
</trkpt>
<trkpt lat="46.1746030" lon="9.4737900">
	<ele>1454.64</ele>
	<time>2023-05-06T08:21:28.000Z</time>
</trkpt>
<trkpt lat="46.1746250" lon="9.4737200">
	<ele>1456.27</ele>
	<time>2023-05-06T08:21:38.000Z</time>
</trkpt>
<trkpt lat="46.1746250" lon="9.4736530">
	<ele>1457.75</ele>
	<time>2023-05-06T08:21:48.000Z</time>
</trkpt>
<trkpt lat="46.1746440" lon="9.4735740">
	<ele>1459.69</ele>
	<time>2023-05-06T08:22:03.000Z</time>
</trkpt>
<trkpt lat="46.1746750" lon="9.4734720">
	<ele>1462.12</ele>
	<time>2023-05-06T08:22:18.000Z</time>
</trkpt>
<trkpt lat="46.1746750" lon="9.4734050">
	<ele>1463.39</ele>
	<time>2023-05-06T08:22:28.000Z</time>
</trkpt>
<trkpt lat="46.1746800" lon="9.4732970">
	<ele>1465.03</ele>
	<time>2023-05-06T08:22:43.000Z</time>
</trkpt>
<trkpt lat="46.1746940" lon="9.4732130">
	<ele>1467.75</ele>
	<time>2023-05-06T08:22:58.000Z</time>
</trkpt>
<trkpt lat="46.1746700" lon="9.4731380">
	<ele>1469.35</ele>
	<time>2023-05-06T08:23:08.000Z</time>
</trkpt>
<trkpt lat="46.1746860" lon="9.4730440">
	<ele>1471.92</ele>
	<time>2023-05-06T08:23:23.000Z</time>
</trkpt>
<trkpt lat="46.1747250" lon="9.4729760">
	<ele>1473.45</ele>
	<time>2023-05-06T08:23:33.000Z</time>
</trkpt>
<trkpt lat="46.1747250" lon="9.4729000">
	<ele>1475.17</ele>
	<time>2023-05-06T08:23:43.000Z</time>
</trkpt>
<trkpt lat="46.1747060" lon="9.4728300">
	<ele>1477.28</ele>
	<time>2023-05-06T08:23:58.000Z</time>
</trkpt>
<trkpt lat="46.1747100" lon="9.4727510">
	<ele>1478.90</ele>
	<time>2023-05-06T08:24:08.000Z</time>
</trkpt>
<trkpt lat="46.1747250" lon="9.4726400">
	<ele>1481.00</ele>
	<time>2023-05-06T08:24:23.000Z</time>
</trkpt>
<trkpt lat="46.1747860" lon="9.4725750">
	<ele>1483.62</ele>
	<time>2023-05-06T08:24:38.000Z</time>
</trkpt>
<trkpt lat="46.1748000" lon="9.4725030">
	<ele>1485.13</ele>
	<time>2023-05-06T08:24:48.000Z</time>
</trkpt>
<trkpt lat="46.1748000" lon="9.4724240">
	<ele>1487.28</ele>
	<time>2023-05-06T08:25:03.000Z</time>
</trkpt>
<trkpt lat="46.1748350" lon="9.4723620">
	<ele>1488.86</ele>
	<time>2023-05-06T08:25:15.000Z</time>
</trkpt>
<trkpt lat="46.1748770" lon="9.4724570">
	<ele>1490.28</ele>
	<time>2023-05-06T08:25:38.000Z</time>
</trkpt>
<trkpt lat="46.1748920" lon="9.4724040">
	<ele>1491.63</ele>
	<time>2023-05-06T08:25:48.000Z</time>
</trkpt>
<trkpt lat="46.1748850" lon="9.4723170">
	<ele>1492.88</ele>
	<time>2023-05-06T08:25:58.000Z</time>
</trkpt>
<trkpt lat="46.1748800" lon="9.4722320">
	<ele>1494.17</ele>
	<time>2023-05-06T08:26:08.000Z</time>
</trkpt>
<trkpt lat="46.1748960" lon="9.4721560">
	<ele>1496.12</ele>
	<time>2023-05-06T08:26:18.000Z</time>
</trkpt>
<trkpt lat="46.1749040" lon="9.4721170">
	<ele>1496.92</ele>
	<time>2023-05-06T08:26:23.000Z</time>
</trkpt>
<trkpt lat="46.1749230" lon="9.4719900">
	<ele>1499.52</ele>
	<time>2023-05-06T08:26:38.000Z</time>
</trkpt>
<trkpt lat="46.1749400" lon="9.4719430">
	<ele>1500.40</ele>
	<time>2023-05-06T08:26:43.000Z</time>
</trkpt>
<trkpt lat="46.1749760" lon="9.4718610">
	<ele>1502.38</ele>
	<time>2023-05-06T08:26:53.000Z</time>
</trkpt>
<trkpt lat="46.1750070" lon="9.4717880">
	<ele>1503.97</ele>
	<time>2023-05-06T08:27:03.000Z</time>
</trkpt>
<trkpt lat="46.1750700" lon="9.4717930">
	<ele>1505.92</ele>
	<time>2023-05-06T08:27:21.000Z</time>
</trkpt>
<trkpt lat="46.1750800" lon="9.4719020">
	<ele>1505.05</ele>
	<time>2023-05-06T08:36:24.000Z</time>
</trkpt>
<trkpt lat="46.1750530" lon="9.4719690">
	<ele>1506.02</ele>
	<time>2023-05-06T08:38:14.000Z</time>
</trkpt>
<trkpt lat="46.1751330" lon="9.4720070">
	<ele>1507.14</ele>
	<time>2023-05-06T08:38:24.000Z</time>
</trkpt>
<trkpt lat="46.1751900" lon="9.4720540">
	<ele>1509.30</ele>
	<time>2023-05-06T08:38:39.000Z</time>
</trkpt>
<trkpt lat="46.1751980" lon="9.4719930">
	<ele>1510.46</ele>
	<time>2023-05-06T08:38:49.000Z</time>
</trkpt>
<trkpt lat="46.1752100" lon="9.4719280">
	<ele>1513.55</ele>
	<time>2023-05-06T08:39:04.000Z</time>
</trkpt>
<trkpt lat="46.1752240" lon="9.4718460">
	<ele>1514.77</ele>
	<time>2023-05-06T08:39:19.000Z</time>
</trkpt>
<trkpt lat="46.1752320" lon="9.4717760">
	<ele>1516.42</ele>
	<time>2023-05-06T08:39:29.000Z</time>
</trkpt>
<trkpt lat="46.1752900" lon="9.4717710">
	<ele>1518.52</ele>
	<time>2023-05-06T08:39:44.000Z</time>
</trkpt>
<trkpt lat="46.1753230" lon="9.4718740">
	<ele>1521.18</ele>
	<time>2023-05-06T08:39:59.000Z</time>
</trkpt>
<trkpt lat="46.1753400" lon="9.4719100">
	<ele>1521.74</ele>
	<time>2023-05-06T08:40:04.000Z</time>
</trkpt>
<trkpt lat="46.1753580" lon="9.4720110">
	<ele>1523.16</ele>
	<time>2023-05-06T08:40:16.000Z</time>
</trkpt>
<trkpt lat="46.1753800" lon="9.4720670">
	<ele>1525.08</ele>
	<time>2023-05-06T08:40:27.000Z</time>
</trkpt>
<trkpt lat="46.1753800" lon="9.4721710">
	<ele>1526.65</ele>
	<time>2023-05-06T08:40:42.000Z</time>
</trkpt>
<trkpt lat="46.1754100" lon="9.4722190">
	<ele>1528.11</ele>
	<time>2023-05-06T08:40:52.000Z</time>
</trkpt>
<trkpt lat="46.1754070" lon="9.4721200">
	<ele>1530.06</ele>
	<time>2023-05-06T08:41:07.000Z</time>
</trkpt>
<trkpt lat="46.1754150" lon="9.4720410">
	<ele>1531.32</ele>
	<time>2023-05-06T08:41:17.000Z</time>
	<extensions>
		<gpxtpx:TrackPointExtension>
			<gpxtpx:hr>100</gpxtpx:hr>
		</gpxtpx:TrackPointExtension>
	</extensions>
</trkpt>
<trkpt lat="46.1754340" lon="9.4719710">
	<ele>1532.79</ele>
	<time>2023-05-06T08:41:27.000Z</time>
</trkpt>
<trkpt lat="46.1754650" lon="9.4718970">
	<ele>1534.04</ele>
	<time>2023-05-06T08:41:37.000Z</time>
</trkpt>
<trkpt lat="46.1755030" lon="9.4719810">
	<ele>1535.49</ele>
	<time>2023-05-06T08:41:47.000Z</time>
</trkpt>
<trkpt lat="46.1755140" lon="9.4720590">
	<ele>1536.57</ele>
	<time>2023-05-06T08:41:57.000Z</time>
</trkpt>
<trkpt lat="46.1755200" lon="9.4721220">
	<ele>1537.84</ele>
	<time>2023-05-06T08:42:07.000Z</time>
</trkpt>
<trkpt lat="46.1755330" lon="9.4722020">
	<ele>1540.10</ele>
	<time>2023-05-06T08:42:22.000Z</time>
</trkpt>
<trkpt lat="46.1755450" lon="9.4722570">
	<ele>1541.54</ele>
	<time>2023-05-06T08:42:32.000Z</time>
</trkpt>
<trkpt lat="46.1755400" lon="9.4723570">
	<ele>1543.73</ele>
	<time>2023-05-06T08:42:47.000Z</time>
</trkpt>
<trkpt lat="46.1755520" lon="9.4724520">
	<ele>1544.87</ele>
	<time>2023-05-06T08:43:17.000Z</time>
</trkpt>
<trkpt lat="46.1755800" lon="9.4725180">
	<ele>1546.63</ele>
	<time>2023-05-06T08:43:27.000Z</time>
</trkpt>
<trkpt lat="46.1756020" lon="9.4726060">
	<ele>1548.77</ele>
	<time>2023-05-06T08:43:42.000Z</time>
</trkpt>
<trkpt lat="46.1756300" lon="9.4726580">
	<ele>1550.49</ele>
	<time>2023-05-06T08:44:17.000Z</time>
</trkpt>
<trkpt lat="46.1756480" lon="9.4727330">
	<ele>1551.55</ele>
	<time>2023-05-06T08:44:27.000Z</time>
</trkpt>
<trkpt lat="46.1756740" lon="9.4728155">
	<ele>1552.40</ele>
	<time>2023-05-06T08:44:37.000Z</time>
</trkpt>
<trkpt lat="46.1756940" lon="9.4729030">
	<ele>1553.24</ele>
	<time>2023-05-06T08:45:06.000Z</time>
</trkpt>
<trkpt lat="46.1757100" lon="9.4729550">
	<ele>1553.81</ele>
	<time>2023-05-06T08:45:11.000Z</time>
</trkpt>
<trkpt lat="46.1757240" lon="9.4730460">
	<ele>1555.65</ele>
	<time>2023-05-06T08:45:21.000Z</time>
</trkpt>
<trkpt lat="46.1757500" lon="9.4731245">
	<ele>1557.44</ele>
	<time>2023-05-06T08:45:31.000Z</time>
</trkpt>
<trkpt lat="46.1757660" lon="9.4731930">
	<ele>1559.14</ele>
	<time>2023-05-06T08:45:41.000Z</time>
</trkpt>
<trkpt lat="46.1757850" lon="9.4732390">
	<ele>1561.08</ele>
	<time>2023-05-06T08:45:51.000Z</time>
</trkpt>
<trkpt lat="46.1758100" lon="9.4733410">
	<ele>1561.45</ele>
	<time>2023-05-06T08:46:01.000Z</time>
</trkpt>
<trkpt lat="46.1758730" lon="9.4733680">
	<ele>1562.71</ele>
	<time>2023-05-06T08:46:11.000Z</time>
</trkpt>
<trkpt lat="46.1759340" lon="9.4734030">
	<ele>1564.62</ele>
	<time>2023-05-06T08:46:31.000Z</time>
</trkpt>
<trkpt lat="46.1759830" lon="9.4734300">
	<ele>1566.46</ele>
	<time>2023-05-06T08:46:41.000Z</time>
</trkpt>
<trkpt lat="46.1760300" lon="9.4734860">
	<ele>1567.68</ele>
	<time>2023-05-06T08:46:51.000Z</time>
</trkpt>
<trkpt lat="46.1760700" lon="9.4735420">
	<ele>1569.44</ele>
	<time>2023-05-06T08:47:01.000Z</time>
</trkpt>
<trkpt lat="46.1761050" lon="9.4736200">
	<ele>1570.93</ele>
	<time>2023-05-06T08:47:11.000Z</time>
</trkpt>
<trkpt lat="46.1761600" lon="9.4736640">
	<ele>1572.12</ele>
	<time>2023-05-06T08:47:21.000Z</time>
</trkpt>
<trkpt lat="46.1761740" lon="9.4736370">
	<ele>1573.55</ele>
	<time>2023-05-06T08:47:31.000Z</time>
</trkpt>
<trkpt lat="46.1761470" lon="9.4735620">
	<ele>1574.77</ele>
	<time>2023-05-06T08:47:41.000Z</time>
</trkpt>
<trkpt lat="46.1761300" lon="9.4735060">
	<ele>1576.90</ele>
	<time>2023-05-06T08:47:51.000Z</time>
</trkpt>
<trkpt lat="46.1761250" lon="9.4734530">
	<ele>1577.90</ele>
	<time>2023-05-06T08:48:01.000Z</time>
</trkpt>
<trkpt lat="46.1761780" lon="9.4734955">
	<ele>1579.40</ele>
	<time>2023-05-06T08:48:11.000Z</time>
</trkpt>
<trkpt lat="46.1761630" lon="9.4734180">
	<ele>1581.45</ele>
	<time>2023-05-06T08:48:26.000Z</time>
</trkpt>
<trkpt lat="46.1761360" lon="9.4733450">
	<ele>1583.32</ele>
	<time>2023-05-06T08:49:49.000Z</time>
</trkpt>
<trkpt lat="46.1761320" lon="9.4732770">
	<ele>1584.92</ele>
	<time>2023-05-06T08:49:59.000Z</time>
</trkpt>
<trkpt lat="46.1761100" lon="9.4732030">
	<ele>1586.25</ele>
	<time>2023-05-06T08:50:09.000Z</time>
</trkpt>
<trkpt lat="46.1760830" lon="9.4731320">
	<ele>1587.76</ele>
	<time>2023-05-06T08:50:19.000Z</time>
</trkpt>
<trkpt lat="46.1760600" lon="9.4730310">
	<ele>1590.24</ele>
	<time>2023-05-06T08:50:34.000Z</time>
</trkpt>
<trkpt lat="46.1760560" lon="9.4729870">
	<ele>1591.66</ele>
	<time>2023-05-06T08:50:44.000Z</time>
</trkpt>
<trkpt lat="46.1760500" lon="9.4729040">
	<ele>1593.21</ele>
	<time>2023-05-06T08:51:09.000Z</time>
</trkpt>
<trkpt lat="46.1760440" lon="9.4728250">
	<ele>1594.91</ele>
	<time>2023-05-06T08:51:19.000Z</time>
</trkpt>
<trkpt lat="46.1760900" lon="9.4728200">
	<ele>1596.29</ele>
	<time>2023-05-06T08:51:29.000Z</time>
</trkpt>
<trkpt lat="46.1761050" lon="9.4728910">
	<ele>1597.15</ele>
	<time>2023-05-06T08:51:39.000Z</time>
</trkpt>
<trkpt lat="46.1761360" lon="9.4729400">
	<ele>1596.81</ele>
	<time>2023-05-06T08:52:05.000Z</time>
</trkpt>
<trkpt lat="46.1761900" lon="9.4729690">
	<ele>1598.69</ele>
	<time>2023-05-06T08:52:15.000Z</time>
</trkpt>
<trkpt lat="46.1762400" lon="9.4730290">
	<ele>1599.83</ele>
	<time>2023-05-06T08:52:25.000Z</time>
</trkpt>
<trkpt lat="46.1762850" lon="9.4730230">
	<ele>1602.65</ele>
	<time>2023-05-06T08:52:35.000Z</time>
</trkpt>
<trkpt lat="46.1763270" lon="9.4730840">
	<ele>1603.67</ele>
	<time>2023-05-06T08:52:45.000Z</time>
</trkpt>
<trkpt lat="46.1763760" lon="9.4730840">
	<ele>1605.29</ele>
	<time>2023-05-06T08:52:55.000Z</time>
</trkpt>
<trkpt lat="46.1763730" lon="9.4730470">
	<ele>1607.90</ele>
	<time>2023-05-06T08:53:23.000Z</time>
</trkpt>
<trkpt lat="46.1763530" lon="9.4729700">
	<ele>1607.96</ele>
	<time>2023-05-06T08:53:33.000Z</time>
</trkpt>
<trkpt lat="46.1764100" lon="9.4729540">
	<ele>1609.51</ele>
	<time>2023-05-06T08:53:43.000Z</time>
</trkpt>
<trkpt lat="46.1764680" lon="9.4729700">
	<ele>1611.43</ele>
	<time>2023-05-06T08:53:58.000Z</time>
</trkpt>
<trkpt lat="46.1765200" lon="9.4730200">
	<ele>1613.64</ele>
	<time>2023-05-06T08:54:13.000Z</time>
</trkpt>
<trkpt lat="46.1765630" lon="9.4730570">
	<ele>1615.54</ele>
	<time>2023-05-06T08:54:23.000Z</time>
</trkpt>
<trkpt lat="46.1766050" lon="9.4731290">
	<ele>1617.86</ele>
	<time>2023-05-06T08:54:38.000Z</time>
</trkpt>
<trkpt lat="46.1766240" lon="9.4731690">
	<ele>1618.79</ele>
	<time>2023-05-06T08:54:43.000Z</time>
</trkpt>
<trkpt lat="46.1766600" lon="9.4732360">
	<ele>1619.99</ele>
	<time>2023-05-06T08:54:53.000Z</time>
</trkpt>
<trkpt lat="46.1766850" lon="9.4733040">
	<ele>1621.68</ele>
	<time>2023-05-06T08:55:03.000Z</time>
</trkpt>
<trkpt lat="46.1767230" lon="9.4733910">
	<ele>1622.97</ele>
	<time>2023-05-06T08:55:13.000Z</time>
</trkpt>
<trkpt lat="46.1767650" lon="9.4734560">
	<ele>1624.13</ele>
	<time>2023-05-06T08:55:23.000Z</time>
</trkpt>
<trkpt lat="46.1768040" lon="9.4735370">
	<ele>1625.26</ele>
	<time>2023-05-06T08:55:33.000Z</time>
</trkpt>
<trkpt lat="46.1768400" lon="9.4736380">
	<ele>1626.07</ele>
	<time>2023-05-06T08:55:43.000Z</time>
</trkpt>
<trkpt lat="46.1768800" lon="9.4737300">
	<ele>1626.73</ele>
	<time>2023-05-06T08:55:53.000Z</time>
</trkpt>
<trkpt lat="46.1769180" lon="9.4738250">
	<ele>1627.75</ele>
	<time>2023-05-06T08:56:03.000Z</time>
</trkpt>
<trkpt lat="46.1769500" lon="9.4739010">
	<ele>1629.09</ele>
	<time>2023-05-06T08:56:13.000Z</time>
</trkpt>
<trkpt lat="46.1769830" lon="9.4739960">
	<ele>1630.39</ele>
	<time>2023-05-06T08:56:23.000Z</time>
</trkpt>
<trkpt lat="46.1770200" lon="9.4740700">
	<ele>1631.12</ele>
	<time>2023-05-06T08:56:33.000Z</time>
</trkpt>
<trkpt lat="46.1770480" lon="9.4741490">
	<ele>1632.07</ele>
	<time>2023-05-06T08:56:43.000Z</time>
</trkpt>
<trkpt lat="46.1770700" lon="9.4742390">
	<ele>1633.44</ele>
	<time>2023-05-06T08:56:53.000Z</time>
</trkpt>
<trkpt lat="46.1771000" lon="9.4743170">
	<ele>1634.87</ele>
	<time>2023-05-06T08:57:03.000Z</time>
</trkpt>
<trkpt lat="46.1771300" lon="9.4743870">
	<ele>1635.97</ele>
	<time>2023-05-06T08:57:13.000Z</time>
</trkpt>
<trkpt lat="46.1771660" lon="9.4744490">
	<ele>1637.44</ele>
	<time>2023-05-06T08:57:23.000Z</time>
</trkpt>
<trkpt lat="46.1772080" lon="9.4745090">
	<ele>1639.24</ele>
	<time>2023-05-06T08:57:33.000Z</time>
</trkpt>
<trkpt lat="46.1772270" lon="9.4745930">
	<ele>1640.63</ele>
	<time>2023-05-06T08:57:43.000Z</time>
</trkpt>
<trkpt lat="46.1772400" lon="9.4746900">
	<ele>1641.82</ele>
	<time>2023-05-06T08:57:53.000Z</time>
</trkpt>
<trkpt lat="46.1772540" lon="9.4747800">
	<ele>1642.83</ele>
	<time>2023-05-06T08:58:03.000Z</time>
</trkpt>
<trkpt lat="46.1772700" lon="9.4748670">
	<ele>1644.05</ele>
	<time>2023-05-06T08:58:13.000Z</time>
</trkpt>
<trkpt lat="46.1772800" lon="9.4749510">
	<ele>1644.93</ele>
	<time>2023-05-06T08:58:23.000Z</time>
</trkpt>
<trkpt lat="46.1773000" lon="9.4750410">
	<ele>1646.33</ele>
	<time>2023-05-06T08:58:33.000Z</time>
</trkpt>
<trkpt lat="46.1773200" lon="9.4751215">
	<ele>1647.94</ele>
	<time>2023-05-06T08:58:43.000Z</time>
</trkpt>
<trkpt lat="46.1773450" lon="9.4752240">
	<ele>1650.42</ele>
	<time>2023-05-06T08:58:58.000Z</time>
</trkpt>
<trkpt lat="46.1773600" lon="9.4752550">
	<ele>1650.99</ele>
	<time>2023-05-06T08:59:03.000Z</time>
</trkpt>
<trkpt lat="46.1774000" lon="9.4753430">
	<ele>1653.33</ele>
	<time>2023-05-06T08:59:18.000Z</time>
</trkpt>
<trkpt lat="46.1774330" lon="9.4753990">
	<ele>1655.14</ele>
	<time>2023-05-06T08:59:28.000Z</time>
</trkpt>
<trkpt lat="46.1774670" lon="9.4754820">
	<ele>1657.85</ele>
	<time>2023-05-06T08:59:43.000Z</time>
</trkpt>
<trkpt lat="46.1775130" lon="9.4755770">
	<ele>1660.49</ele>
	<time>2023-05-06T08:59:58.000Z</time>
</trkpt>
<trkpt lat="46.1775550" lon="9.4756360">
	<ele>1661.92</ele>
	<time>2023-05-06T09:00:08.000Z</time>
</trkpt>
<trkpt lat="46.1775970" lon="9.4756980">
	<ele>1663.10</ele>
	<time>2023-05-06T09:00:18.000Z</time>
</trkpt>
<trkpt lat="46.1776200" lon="9.4757360">
	<ele>1663.48</ele>
	<time>2023-05-06T09:00:23.000Z</time>
</trkpt>
<trkpt lat="46.1776730" lon="9.4758100">
	<ele>1664.53</ele>
	<time>2023-05-06T09:00:33.000Z</time>
</trkpt>
<trkpt lat="46.1777400" lon="9.4759010">
	<ele>1665.49</ele>
	<time>2023-05-06T09:00:43.000Z</time>
</trkpt>
<trkpt lat="46.1777900" lon="9.4759780">
	<ele>1666.66</ele>
	<time>2023-05-06T09:00:53.000Z</time>
</trkpt>
<trkpt lat="46.1778200" lon="9.4760790">
	<ele>1668.58</ele>
	<time>2023-05-06T09:01:03.000Z</time>
</trkpt>
<trkpt lat="46.1778450" lon="9.4761890">
	<ele>1669.21</ele>
	<time>2023-05-06T09:01:13.000Z</time>
</trkpt>
<trkpt lat="46.1778500" lon="9.4762910">
	<ele>1671.24</ele>
	<time>2023-05-06T09:01:23.000Z</time>
</trkpt>
<trkpt lat="46.1778600" lon="9.4763840">
	<ele>1673.10</ele>
	<time>2023-05-06T09:01:33.000Z</time>
</trkpt>
<trkpt lat="46.1778680" lon="9.4764730">
	<ele>1674.94</ele>
	<time>2023-05-06T09:01:43.000Z</time>
</trkpt>
<trkpt lat="46.1778800" lon="9.4765620">
	<ele>1676.82</ele>
	<time>2023-05-06T09:01:53.000Z</time>
</trkpt>
<trkpt lat="46.1779200" lon="9.4766250">
	<ele>1678.66</ele>
	<time>2023-05-06T09:02:03.000Z</time>
</trkpt>
<trkpt lat="46.1779860" lon="9.4766380">
	<ele>1682.51</ele>
	<time>2023-05-06T09:02:18.000Z</time>
</trkpt>
<trkpt lat="46.1780430" lon="9.4766290">
	<ele>1686.34</ele>
	<time>2023-05-06T09:02:31.000Z</time>
</trkpt>
<trkpt lat="46.1780600" lon="9.4766790">
	<ele>1677.89</ele>
	<time>2023-05-06T09:02:47.000Z</time>
</trkpt>
<trkpt lat="46.1781400" lon="9.4767190">
	<ele>1688.05</ele>
	<time>2023-05-06T09:02:59.000Z</time>
</trkpt>
<trkpt lat="46.1781960" lon="9.4767840">
	<ele>1688.90</ele>
	<time>2023-05-06T09:03:09.000Z</time>
</trkpt>
<trkpt lat="46.1782200" lon="9.4768180">
	<ele>1688.87</ele>
	<time>2023-05-06T09:03:19.000Z</time>
</trkpt>
<trkpt lat="46.1782720" lon="9.4768990">
	<ele>1689.08</ele>
	<time>2023-05-06T09:04:46.000Z</time>
</trkpt>
<trkpt lat="46.1783140" lon="9.4769510">
	<ele>1689.18</ele>
	<time>2023-05-06T09:04:51.000Z</time>
</trkpt>
<trkpt lat="46.1783870" lon="9.4770310">
	<ele>1689.05</ele>
	<time>2023-05-06T09:05:01.000Z</time>
</trkpt>
<trkpt lat="46.1784100" lon="9.4769900">
	<ele>1689.35</ele>
	<time>2023-05-06T09:05:11.000Z</time>
</trkpt>
<trkpt lat="46.1784200" lon="9.4770170">
	<ele>1683.97</ele>
	<time>2023-05-06T09:06:51.000Z</time>
</trkpt>
<trkpt lat="46.1784200" lon="9.4771020">
	<ele>1688.63</ele>
	<time>2023-05-06T09:07:01.000Z</time>
</trkpt>
<trkpt lat="46.1784440" lon="9.4770290">
	<ele>1692.71</ele>
	<time>2023-05-06T09:07:41.000Z</time>
</trkpt>
<trkpt lat="46.1784170" lon="9.4769480">
	<ele>1692.19</ele>
	<time>2023-05-06T09:07:51.000Z</time>
</trkpt>
<trkpt lat="46.1783700" lon="9.4768790">
	<ele>1692.12</ele>
	<time>2023-05-06T09:07:59.000Z</time>
</trkpt>
<trkpt lat="46.1784170" lon="9.4769080">
	<ele>1692.38</ele>
	<time>2023-05-06T09:08:11.000Z</time>
</trkpt>
<trkpt lat="46.1784930" lon="9.4769820">
	<ele>1694.56</ele>
	<time>2023-05-06T09:08:21.000Z</time>
</trkpt>
<trkpt lat="46.1785550" lon="9.4770560">
	<ele>1696.17</ele>
	<time>2023-05-06T09:08:31.000Z</time>
</trkpt>
<trkpt lat="46.1786040" lon="9.4771690">
	<ele>1697.17</ele>
	<time>2023-05-06T09:08:41.000Z</time>
</trkpt>
<trkpt lat="46.1786700" lon="9.4772660">
	<ele>1698.31</ele>
	<time>2023-05-06T09:08:51.000Z</time>
</trkpt>
<trkpt lat="46.1787340" lon="9.4773480">
	<ele>1699.85</ele>
	<time>2023-05-06T09:09:01.000Z</time>
</trkpt>
<trkpt lat="46.1787760" lon="9.4774480">
	<ele>1700.17</ele>
	<time>2023-05-06T09:09:11.000Z</time>
</trkpt>
<trkpt lat="46.1788300" lon="9.4775510">
	<ele>1700.31</ele>
	<time>2023-05-06T09:09:21.000Z</time>
</trkpt>
<trkpt lat="46.1788940" lon="9.4776130">
	<ele>1701.89</ele>
	<time>2023-05-06T09:09:31.000Z</time>
</trkpt>
<trkpt lat="46.1789440" lon="9.4775550">
	<ele>1703.10</ele>
	<time>2023-05-06T09:09:41.000Z</time>
</trkpt>
<trkpt lat="46.1789320" lon="9.4774750">
	<ele>1703.36</ele>
	<time>2023-05-06T09:09:51.000Z</time>
</trkpt>
<trkpt lat="46.1789360" lon="9.4774370">
	<ele>1704.08</ele>
	<time>2023-05-06T09:10:11.000Z</time>
</trkpt>
<trkpt lat="46.1789400" lon="9.4774930">
	<ele>1704.35</ele>
	<time>2023-05-06T09:30:36.000Z</time>
</trkpt>
<trkpt lat="46.1789740" lon="9.4775280">
	<ele>1702.89</ele>
	<time>2023-05-06T09:31:04.000Z</time>
</trkpt>
<trkpt lat="46.1789700" lon="9.4775710">
	<ele>1703.60</ele>
	<time>2023-05-06T09:31:45.000Z</time>
</trkpt>
<trkpt lat="46.1789400" lon="9.4776500">
	<ele>1702.86</ele>
	<time>2023-05-06T09:32:20.000Z</time>
</trkpt>
<trkpt lat="46.1789500" lon="9.4777355">
	<ele>1701.80</ele>
	<time>2023-05-06T09:32:30.000Z</time>
</trkpt>
<trkpt lat="46.1789550" lon="9.4778710">
	<ele>1700.83</ele>
	<time>2023-05-06T09:32:40.000Z</time>
</trkpt>
<trkpt lat="46.1789700" lon="9.4780390">
	<ele>1699.84</ele>
	<time>2023-05-06T09:32:52.000Z</time>
</trkpt>
<trkpt lat="46.1789860" lon="9.4781660">
	<ele>1700.52</ele>
	<time>2023-05-06T09:33:02.000Z</time>
</trkpt>
<trkpt lat="46.1789900" lon="9.4783010">
	<ele>1699.64</ele>
	<time>2023-05-06T09:33:12.000Z</time>
</trkpt>
<trkpt lat="46.1790100" lon="9.4784020">
	<ele>1699.34</ele>
	<time>2023-05-06T09:33:22.000Z</time>
</trkpt>
<trkpt lat="46.1790100" lon="9.4784790">
	<ele>1697.23</ele>
	<time>2023-05-06T09:33:32.000Z</time>
</trkpt>
<trkpt lat="46.1790000" lon="9.4785460">
	<ele>1695.11</ele>
	<time>2023-05-06T09:33:42.000Z</time>
</trkpt>
<trkpt lat="46.1789670" lon="9.4786415">
	<ele>1693.29</ele>
	<time>2023-05-06T09:33:52.000Z</time>
</trkpt>
<trkpt lat="46.1789550" lon="9.4787240">
	<ele>1693.72</ele>
	<time>2023-05-06T09:34:02.000Z</time>
</trkpt>
<trkpt lat="46.1789320" lon="9.4787920">
	<ele>1694.90</ele>
	<time>2023-05-06T09:34:12.000Z</time>
</trkpt>
<trkpt lat="46.1789400" lon="9.4788780">
	<ele>1697.34</ele>
	<time>2023-05-06T09:34:27.000Z</time>
</trkpt>
<trkpt lat="46.1789600" lon="9.4789570">
	<ele>1698.94</ele>
	<time>2023-05-06T09:34:37.000Z</time>
</trkpt>
<trkpt lat="46.1789700" lon="9.4790610">
	<ele>1699.89</ele>
	<time>2023-05-06T09:34:47.000Z</time>
</trkpt>
<trkpt lat="46.1789670" lon="9.4791110">
	<ele>1700.69</ele>
	<time>2023-05-06T09:34:52.000Z</time>
</trkpt>
<trkpt lat="46.1789740" lon="9.4791920">
	<ele>1702.24</ele>
	<time>2023-05-06T09:35:02.000Z</time>
</trkpt>
<trkpt lat="46.1789740" lon="9.4792920">
	<ele>1703.94</ele>
	<time>2023-05-06T09:35:12.000Z</time>
</trkpt>
<trkpt lat="46.1789900" lon="9.4793810">
	<ele>1705.30</ele>
	<time>2023-05-06T09:35:47.000Z</time>
</trkpt>
<trkpt lat="46.1790240" lon="9.4793960">
	<ele>1706.67</ele>
	<time>2023-05-06T09:35:57.000Z</time>
</trkpt>
<trkpt lat="46.1790430" lon="9.4794790">
	<ele>1707.91</ele>
	<time>2023-05-06T09:36:07.000Z</time>
</trkpt>
<trkpt lat="46.1790500" lon="9.4795190">
	<ele>1708.71</ele>
	<time>2023-05-06T09:36:12.000Z</time>
</trkpt>
<trkpt lat="46.1790700" lon="9.4796050">
	<ele>1710.67</ele>
	<time>2023-05-06T09:36:22.000Z</time>
</trkpt>
<trkpt lat="46.1790850" lon="9.4796880">
	<ele>1712.40</ele>
	<time>2023-05-06T09:36:32.000Z</time>
</trkpt>
<trkpt lat="46.1791080" lon="9.4797770">
	<ele>1714.08</ele>
	<time>2023-05-06T09:36:42.000Z</time>
</trkpt>
<trkpt lat="46.1791150" lon="9.4798830">
	<ele>1715.43</ele>
	<time>2023-05-06T09:36:52.000Z</time>
</trkpt>
<trkpt lat="46.1791100" lon="9.4800100">
	<ele>1716.26</ele>
	<time>2023-05-06T09:37:02.000Z</time>
</trkpt>
<trkpt lat="46.1790920" lon="9.4801180">
	<ele>1717.71</ele>
	<time>2023-05-06T09:37:12.000Z</time>
</trkpt>
<trkpt lat="46.1790850" lon="9.4802130">
	<ele>1718.58</ele>
	<time>2023-05-06T09:37:22.000Z</time>
</trkpt>
<trkpt lat="46.1790430" lon="9.4803310">
	<ele>1719.07</ele>
	<time>2023-05-06T09:37:32.000Z</time>
</trkpt>
<trkpt lat="46.1790100" lon="9.4804480">
	<ele>1720.05</ele>
	<time>2023-05-06T09:37:42.000Z</time>
</trkpt>
<trkpt lat="46.1789900" lon="9.4805740">
	<ele>1719.77</ele>
	<time>2023-05-06T09:37:52.000Z</time>
</trkpt>
<trkpt lat="46.1789800" lon="9.4807130">
	<ele>1719.63</ele>
	<time>2023-05-06T09:38:02.000Z</time>
</trkpt>
<trkpt lat="46.1789900" lon="9.4808480">
	<ele>1719.13</ele>
	<time>2023-05-06T09:38:12.000Z</time>
</trkpt>
<trkpt lat="46.1789930" lon="9.4809860">
	<ele>1719.00</ele>
	<time>2023-05-06T09:38:22.000Z</time>
</trkpt>
<trkpt lat="46.1790300" lon="9.4811170">
	<ele>1719.26</ele>
	<time>2023-05-06T09:38:32.000Z</time>
</trkpt>
<trkpt lat="46.1790470" lon="9.4811930">
	<ele>1719.65</ele>
	<time>2023-05-06T09:38:37.000Z</time>
</trkpt>
<trkpt lat="46.1790580" lon="9.4813300">
	<ele>1720.68</ele>
	<time>2023-05-06T09:38:47.000Z</time>
</trkpt>
<trkpt lat="46.1790600" lon="9.4814080">
	<ele>1720.36</ele>
	<time>2023-05-06T09:38:52.000Z</time>
</trkpt>
<trkpt lat="46.1790800" lon="9.4815470">
	<ele>1719.52</ele>
	<time>2023-05-06T09:39:02.000Z</time>
</trkpt>
<trkpt lat="46.1791100" lon="9.4816550">
	<ele>1720.53</ele>
	<time>2023-05-06T09:39:12.000Z</time>
</trkpt>
<trkpt lat="46.1791400" lon="9.4817890">
	<ele>1721.08</ele>
	<time>2023-05-06T09:39:22.000Z</time>
</trkpt>
<trkpt lat="46.1791700" lon="9.4819200">
	<ele>1720.98</ele>
	<time>2023-05-06T09:39:32.000Z</time>
</trkpt>
<trkpt lat="46.1792030" lon="9.4820330">
	<ele>1721.62</ele>
	<time>2023-05-06T09:39:42.000Z</time>
</trkpt>
<trkpt lat="46.1792300" lon="9.4821570">
	<ele>1720.52</ele>
	<time>2023-05-06T09:39:52.000Z</time>
</trkpt>
<trkpt lat="46.1792340" lon="9.4822370">
	<ele>1720.72</ele>
	<time>2023-05-06T09:39:57.000Z</time>
</trkpt>
<trkpt lat="46.1792340" lon="9.4823650">
	<ele>1720.86</ele>
	<time>2023-05-06T09:40:07.000Z</time>
</trkpt>
<trkpt lat="46.1792370" lon="9.4824320">
	<ele>1720.61</ele>
	<time>2023-05-06T09:40:12.000Z</time>
</trkpt>
<trkpt lat="46.1792640" lon="9.4825690">
	<ele>1721.17</ele>
	<time>2023-05-06T09:40:22.000Z</time>
</trkpt>
<trkpt lat="46.1792530" lon="9.4827110">
	<ele>1720.93</ele>
	<time>2023-05-06T09:40:32.000Z</time>
</trkpt>
<trkpt lat="46.1793000" lon="9.4828360">
	<ele>1721.72</ele>
	<time>2023-05-06T09:40:42.000Z</time>
</trkpt>
<trkpt lat="46.1793100" lon="9.4829680">
	<ele>1721.95</ele>
	<time>2023-05-06T09:40:52.000Z</time>
</trkpt>
<trkpt lat="46.1792950" lon="9.4831000">
	<ele>1721.74</ele>
	<time>2023-05-06T09:41:02.000Z</time>
</trkpt>
<trkpt lat="46.1792560" lon="9.4832325">
	<ele>1722.55</ele>
	<time>2023-05-06T09:41:12.000Z</time>
</trkpt>
<trkpt lat="46.1792260" lon="9.4833620">
	<ele>1725.55</ele>
	<time>2023-05-06T09:41:22.000Z</time>
</trkpt>
<trkpt lat="46.1791760" lon="9.4834700">
	<ele>1723.90</ele>
	<time>2023-05-06T09:41:32.000Z</time>
</trkpt>
<trkpt lat="46.1791700" lon="9.4835950">
	<ele>1723.51</ele>
	<time>2023-05-06T09:41:42.000Z</time>
</trkpt>
<trkpt lat="46.1791570" lon="9.4837300">
	<ele>1723.89</ele>
	<time>2023-05-06T09:41:52.000Z</time>
</trkpt>
<trkpt lat="46.1791570" lon="9.4838505">
	<ele>1727.26</ele>
	<time>2023-05-06T09:42:02.000Z</time>
</trkpt>
<trkpt lat="46.1791880" lon="9.4839460">
	<ele>1728.86</ele>
	<time>2023-05-06T09:42:12.000Z</time>
</trkpt>
<trkpt lat="46.1792300" lon="9.4840270">
	<ele>1731.28</ele>
	<time>2023-05-06T09:42:22.000Z</time>
</trkpt>
<trkpt lat="46.1792450" lon="9.4841370">
	<ele>1732.84</ele>
	<time>2023-05-06T09:42:32.000Z</time>
</trkpt>
<trkpt lat="46.1792800" lon="9.4842520">
	<ele>1733.17</ele>
	<time>2023-05-06T09:42:42.000Z</time>
</trkpt>
<trkpt lat="46.1793200" lon="9.4843620">
	<ele>1732.77</ele>
	<time>2023-05-06T09:42:52.000Z</time>
</trkpt>
<trkpt lat="46.1793200" lon="9.4844560">
	<ele>1734.69</ele>
	<time>2023-05-06T09:43:02.000Z</time>
</trkpt>
<trkpt lat="46.1793100" lon="9.4844240">
	<ele>1731.93</ele>
	<time>2023-05-06T09:44:27.000Z</time>
</trkpt>
<trkpt lat="46.1793800" lon="9.4844380">
	<ele>1733.46</ele>
	<time>2023-05-06T09:44:37.000Z</time>
</trkpt>
<trkpt lat="46.1794550" lon="9.4844390">
	<ele>1734.53</ele>
	<time>2023-05-06T09:44:47.000Z</time>
</trkpt>
<trkpt lat="46.1794850" lon="9.4844885">
	<ele>1723.90</ele>
	<time>2023-05-06T09:44:52.000Z</time>
</trkpt>
<trkpt lat="46.1795120" lon="9.4846430">
	<ele>1737.26</ele>
	<time>2023-05-06T09:45:12.000Z</time>
</trkpt>
<trkpt lat="46.1795200" lon="9.4847250">
	<ele>1739.38</ele>
	<time>2023-05-06T09:45:22.000Z</time>
</trkpt>
<trkpt lat="46.1794620" lon="9.4847750">
	<ele>1741.96</ele>
	<time>2023-05-06T09:45:32.000Z</time>
</trkpt>
<trkpt lat="46.1794850" lon="9.4848710">
	<ele>1743.64</ele>
	<time>2023-05-06T09:45:42.000Z</time>
</trkpt>
<trkpt lat="46.1794850" lon="9.4849780">
	<ele>1744.35</ele>
	<time>2023-05-06T09:45:52.000Z</time>
</trkpt>
<trkpt lat="46.1795120" lon="9.4850930">
	<ele>1744.78</ele>
	<time>2023-05-06T09:46:02.000Z</time>
</trkpt>
<trkpt lat="46.1795200" lon="9.4852120">
	<ele>1745.37</ele>
	<time>2023-05-06T09:46:12.000Z</time>
</trkpt>
<trkpt lat="46.1794930" lon="9.4853140">
	<ele>1745.83</ele>
	<time>2023-05-06T09:46:22.000Z</time>
</trkpt>
<trkpt lat="46.1794780" lon="9.4853510">
	<ele>1746.09</ele>
	<time>2023-05-06T09:46:32.000Z</time>
</trkpt>
<trkpt lat="46.1795160" lon="9.4854040">
	<ele>1747.59</ele>
	<time>2023-05-06T09:47:07.000Z</time>
</trkpt>
<trkpt lat="46.1795430" lon="9.4854420">
	<ele>1748.68</ele>
	<time>2023-05-06T09:47:12.000Z</time>
</trkpt>
<trkpt lat="46.1795160" lon="9.4855290">
	<ele>1751.25</ele>
	<time>2023-05-06T09:47:22.000Z</time>
</trkpt>
<trkpt lat="46.1794970" lon="9.4856420">
	<ele>1752.69</ele>
	<time>2023-05-06T09:47:32.000Z</time>
</trkpt>
<trkpt lat="46.1794930" lon="9.4857510">
	<ele>1754.46</ele>
	<time>2023-05-06T09:47:42.000Z</time>
</trkpt>
<trkpt lat="46.1794320" lon="9.4858465">
	<ele>1755.75</ele>
	<time>2023-05-06T09:47:52.000Z</time>
</trkpt>
<trkpt lat="46.1793700" lon="9.4859250">
	<ele>1757.89</ele>
	<time>2023-05-06T09:48:07.000Z</time>
</trkpt>
<trkpt lat="46.1793370" lon="9.4859460">
	<ele>1758.56</ele>
	<time>2023-05-06T09:48:12.000Z</time>
</trkpt>
<trkpt lat="46.1793250" lon="9.4860210">
	<ele>1760.41</ele>
	<time>2023-05-06T09:48:22.000Z</time>
</trkpt>
<trkpt lat="46.1793560" lon="9.4860700">
	<ele>1763.05</ele>
	<time>2023-05-06T09:48:32.000Z</time>
</trkpt>
<trkpt lat="46.1793820" lon="9.4861400">
	<ele>1764.58</ele>
	<time>2023-05-06T09:48:42.000Z</time>
</trkpt>
<trkpt lat="46.1793800" lon="9.4862230">
	<ele>1766.14</ele>
	<time>2023-05-06T09:48:52.000Z</time>
</trkpt>
<trkpt lat="46.1793820" lon="9.4863030">
	<ele>1766.97</ele>
	<time>2023-05-06T09:49:02.000Z</time>
</trkpt>
<trkpt lat="46.1794170" lon="9.4863890">
	<ele>1768.41</ele>
	<time>2023-05-06T09:49:12.000Z</time>
</trkpt>
<trkpt lat="46.1794360" lon="9.4864680">
	<ele>1770.35</ele>
	<time>2023-05-06T09:49:22.000Z</time>
</trkpt>
<trkpt lat="46.1794400" lon="9.4865370">
	<ele>1772.03</ele>
	<time>2023-05-06T09:49:32.000Z</time>
</trkpt>
<trkpt lat="46.1794300" lon="9.4866200">
	<ele>1774.66</ele>
	<time>2023-05-06T09:49:47.000Z</time>
</trkpt>
<trkpt lat="46.1794240" lon="9.4866640">
	<ele>1775.51</ele>
	<time>2023-05-06T09:49:52.000Z</time>
</trkpt>
<trkpt lat="46.1794620" lon="9.4867400">
	<ele>1778.11</ele>
	<time>2023-05-06T09:50:07.000Z</time>
</trkpt>
<trkpt lat="46.1794780" lon="9.4867670">
	<ele>1779.26</ele>
	<time>2023-05-06T09:50:12.000Z</time>
</trkpt>
<trkpt lat="46.1795120" lon="9.4868520">
	<ele>1781.94</ele>
	<time>2023-05-06T09:50:27.000Z</time>
</trkpt>
<trkpt lat="46.1795040" lon="9.4869060">
	<ele>1783.99</ele>
	<time>2023-05-06T09:50:37.000Z</time>
</trkpt>
<trkpt lat="46.1795100" lon="9.4869530">
	<ele>1786.10</ele>
	<time>2023-05-06T09:50:47.000Z</time>
</trkpt>
<trkpt lat="46.1795430" lon="9.4869800">
	<ele>1787.61</ele>
	<time>2023-05-06T09:50:57.000Z</time>
</trkpt>
<trkpt lat="46.1795770" lon="9.4869530">
	<ele>1788.55</ele>
	<time>2023-05-06T09:51:56.000Z</time>
</trkpt>
<trkpt lat="46.1796340" lon="9.4869420">
	<ele>1789.20</ele>
	<time>2023-05-06T09:52:06.000Z</time>
</trkpt>
<trkpt lat="46.1796530" lon="9.4869995">
	<ele>1790.75</ele>
	<time>2023-05-06T09:52:16.000Z</time>
</trkpt>
<trkpt lat="46.1796460" lon="9.4871025">
	<ele>1792.87</ele>
	<time>2023-05-06T09:53:40.000Z</time>
</trkpt>
<trkpt lat="46.1796100" lon="9.4871610">
	<ele>1794.02</ele>
	<time>2023-05-06T09:53:49.000Z</time>
</trkpt>
<trkpt lat="46.1795580" lon="9.4872490">
	<ele>1793.34</ele>
	<time>2023-05-06T09:54:02.000Z</time>
</trkpt>
<trkpt lat="46.1795000" lon="9.4873380">
	<ele>1793.99</ele>
	<time>2023-05-06T09:54:12.000Z</time>
</trkpt>
<trkpt lat="46.1794600" lon="9.4874150">
	<ele>1795.85</ele>
	<time>2023-05-06T09:54:22.000Z</time>
</trkpt>
<trkpt lat="46.1794660" lon="9.4874970">
	<ele>1797.70</ele>
	<time>2023-05-06T09:54:32.000Z</time>
</trkpt>
<trkpt lat="46.1794900" lon="9.4875990">
	<ele>1799.29</ele>
	<time>2023-05-06T09:54:42.000Z</time>
</trkpt>
<trkpt lat="46.1795160" lon="9.4876950">
	<ele>1800.08</ele>
	<time>2023-05-06T09:54:52.000Z</time>
</trkpt>
<trkpt lat="46.1795120" lon="9.4878000">
	<ele>1800.02</ele>
	<time>2023-05-06T09:55:02.000Z</time>
</trkpt>
<trkpt lat="46.1795400" lon="9.4878500">
	<ele>1799.30</ele>
	<time>2023-05-06T09:55:12.000Z</time>
</trkpt>
<trkpt lat="46.1795200" lon="9.4879710">
	<ele>1801.30</ele>
	<time>2023-05-06T09:55:32.000Z</time>
</trkpt>
<trkpt lat="46.1795160" lon="9.4880520">
	<ele>1802.28</ele>
	<time>2023-05-06T09:55:42.000Z</time>
</trkpt>
<trkpt lat="46.1795300" lon="9.4881370">
	<ele>1802.49</ele>
	<time>2023-05-06T09:55:52.000Z</time>
</trkpt>
<trkpt lat="46.1795650" lon="9.4882390">
	<ele>1803.48</ele>
	<time>2023-05-06T09:56:02.000Z</time>
</trkpt>
<trkpt lat="46.1795850" lon="9.4883650">
	<ele>1804.36</ele>
	<time>2023-05-06T09:56:12.000Z</time>
</trkpt>
<trkpt lat="46.1796230" lon="9.4884520">
	<ele>1805.42</ele>
	<time>2023-05-06T09:56:21.000Z</time>
</trkpt>
<trkpt lat="46.1796650" lon="9.4885340">
	<ele>1806.82</ele>
	<time>2023-05-06T09:56:32.000Z</time>
</trkpt>
<trkpt lat="46.1796340" lon="9.4886340">
	<ele>1808.34</ele>
	<time>2023-05-06T09:56:42.000Z</time>
</trkpt>
<trkpt lat="46.1796380" lon="9.4887230">
	<ele>1810.58</ele>
	<time>2023-05-06T09:56:52.000Z</time>
</trkpt>
<trkpt lat="46.1796570" lon="9.4888030">
	<ele>1811.90</ele>
	<time>2023-05-06T09:57:02.000Z</time>
</trkpt>
<trkpt lat="46.1796900" lon="9.4888410">
	<ele>1813.88</ele>
	<time>2023-05-06T09:57:12.000Z</time>
</trkpt>
<trkpt lat="46.1797400" lon="9.4889310">
	<ele>1816.44</ele>
	<time>2023-05-06T09:57:27.000Z</time>
</trkpt>
<trkpt lat="46.1797560" lon="9.4889750">
	<ele>1817.26</ele>
	<time>2023-05-06T09:57:32.000Z</time>
</trkpt>
<trkpt lat="46.1797750" lon="9.4890840">
	<ele>1819.92</ele>
	<time>2023-05-06T09:57:47.000Z</time>
</trkpt>
<trkpt lat="46.1797680" lon="9.4891300">
	<ele>1821.25</ele>
	<time>2023-05-06T09:57:52.000Z</time>
</trkpt>
<trkpt lat="46.1797600" lon="9.4892270">
	<ele>1823.95</ele>
	<time>2023-05-06T09:58:07.000Z</time>
</trkpt>
<trkpt lat="46.1797500" lon="9.4892920">
	<ele>1825.76</ele>
	<time>2023-05-06T09:58:17.000Z</time>
	<extensions>
		<gpxtpx:TrackPointExtension>
			<gpxtpx:hr>107</gpxtpx:hr>
		</gpxtpx:TrackPointExtension>
	</extensions>
</trkpt>
<trkpt lat="46.1797300" lon="9.4893630">
	<ele>1826.80</ele>
	<time>2023-05-06T09:58:27.000Z</time>
</trkpt>
<trkpt lat="46.1797300" lon="9.4894330">
	<ele>1828.04</ele>
	<time>2023-05-06T09:58:37.000Z</time>
</trkpt>
<trkpt lat="46.1797330" lon="9.4895090">
	<ele>1830.23</ele>
	<time>2023-05-06T09:58:51.000Z</time>
</trkpt>
<trkpt lat="46.1797370" lon="9.4895680">
	<ele>1832.16</ele>
	<time>2023-05-06T09:59:02.000Z</time>
</trkpt>
<trkpt lat="46.1797260" lon="9.4896440">
	<ele>1834.75</ele>
	<time>2023-05-06T09:59:17.000Z</time>
	<extensions>
		<gpxtpx:TrackPointExtension>
			<gpxtpx:hr>98</gpxtpx:hr>
		</gpxtpx:TrackPointExtension>
	</extensions>
</trkpt>
<trkpt lat="46.1797140" lon="9.4897180">
	<ele>1837.48</ele>
	<time>2023-05-06T09:59:32.000Z</time>
</trkpt>
<trkpt lat="46.1797200" lon="9.4897590">
	<ele>1839.69</ele>
	<time>2023-05-06T09:59:44.000Z</time>
</trkpt>
<trkpt lat="46.1797000" lon="9.4898200">
	<ele>1842.56</ele>
	<time>2023-05-06T10:00:00.000Z</time>
</trkpt>
<trkpt lat="46.1797450" lon="9.4898430">
	<ele>1846.61</ele>
	<time>2023-05-06T10:00:30.000Z</time>
</trkpt>
<trkpt lat="46.1797640" lon="9.4898615">
	<ele>1848.69</ele>
	<time>2023-05-06T10:00:40.000Z</time>
</trkpt>
<trkpt lat="46.1797400" lon="9.4899150">
	<ele>1851.10</ele>
	<time>2023-05-06T10:01:00.000Z</time>
</trkpt>
<trkpt lat="46.1796800" lon="9.4899190">
	<ele>1852.87</ele>
	<time>2023-05-06T10:01:15.000Z</time>
</trkpt>
<trkpt lat="46.1796530" lon="9.4899570">
	<ele>1854.04</ele>
	<time>2023-05-06T10:01:25.000Z</time>
</trkpt>
<trkpt lat="46.1796600" lon="9.4900250">
	<ele>1854.64</ele>
	<time>2023-05-06T10:02:07.000Z</time>
</trkpt>
<trkpt lat="46.1796760" lon="9.4900670">
	<ele>1854.74</ele>
	<time>2023-05-06T10:04:01.000Z</time>
</trkpt>
<trkpt lat="46.1797140" lon="9.4901590">
	<ele>1855.04</ele>
	<time>2023-05-06T10:04:12.000Z</time>
</trkpt>
<trkpt lat="46.1797180" lon="9.4902480">
	<ele>1856.10</ele>
	<time>2023-05-06T10:04:27.000Z</time>
</trkpt>
<trkpt lat="46.1797140" lon="9.4903145">
	<ele>1856.27</ele>
	<time>2023-05-06T10:04:37.000Z</time>
</trkpt>
<trkpt lat="46.1797030" lon="9.4904100">
	<ele>1857.11</ele>
	<time>2023-05-06T10:04:47.000Z</time>
</trkpt>
<trkpt lat="46.1797000" lon="9.4904530">
	<ele>1857.25</ele>
	<time>2023-05-06T10:04:52.000Z</time>
</trkpt>
<trkpt lat="46.1796760" lon="9.4905290">
	<ele>1858.19</ele>
	<time>2023-05-06T10:05:32.000Z</time>
</trkpt>
<trkpt lat="46.1796600" lon="9.4906140">
	<ele>1859.61</ele>
	<time>2023-05-06T10:05:42.000Z</time>
</trkpt>
<trkpt lat="46.1796460" lon="9.4907160">
	<ele>1860.50</ele>
	<time>2023-05-06T10:05:52.000Z</time>
</trkpt>
<trkpt lat="46.1796260" lon="9.4908070">
	<ele>1861.10</ele>
	<time>2023-05-06T10:06:02.000Z</time>
</trkpt>
<trkpt lat="46.1796200" lon="9.4908990">
	<ele>1862.91</ele>
	<time>2023-05-06T10:06:12.000Z</time>
</trkpt>
<trkpt lat="46.1796300" lon="9.4909790">
	<ele>1864.37</ele>
	<time>2023-05-06T10:06:22.000Z</time>
</trkpt>
<trkpt lat="46.1796200" lon="9.4910140">
	<ele>1864.61</ele>
	<time>2023-05-06T10:06:47.000Z</time>
</trkpt>
<trkpt lat="46.1796070" lon="9.4910890">
	<ele>1864.29</ele>
	<time>2023-05-06T10:07:22.000Z</time>
</trkpt>
<trkpt lat="46.1796200" lon="9.4911880">
	<ele>1864.71</ele>
	<time>2023-05-06T10:07:32.000Z</time>
</trkpt>
<trkpt lat="46.1796340" lon="9.4912680">
	<ele>1866.26</ele>
	<time>2023-05-06T10:07:42.000Z</time>
</trkpt>
<trkpt lat="46.1796570" lon="9.4913530">
	<ele>1868.03</ele>
	<time>2023-05-06T10:07:52.000Z</time>
</trkpt>
<trkpt lat="46.1796800" lon="9.4914420">
	<ele>1869.14</ele>
	<time>2023-05-06T10:08:02.000Z</time>
</trkpt>
<trkpt lat="46.1797070" lon="9.4915290">
	<ele>1870.92</ele>
	<time>2023-05-06T10:08:12.000Z</time>
</trkpt>
<trkpt lat="46.1797200" lon="9.4916120">
	<ele>1872.28</ele>
	<time>2023-05-06T10:08:22.000Z</time>
</trkpt>
<trkpt lat="46.1797500" lon="9.4917050">
	<ele>1873.98</ele>
	<time>2023-05-06T10:08:32.000Z</time>
</trkpt>
<trkpt lat="46.1797600" lon="9.4917830">
	<ele>1875.58</ele>
	<time>2023-05-06T10:08:42.000Z</time>
</trkpt>
<trkpt lat="46.1797560" lon="9.4918200">
	<ele>1876.95</ele>
	<time>2023-05-06T10:09:34.000Z</time>
</trkpt>
<trkpt lat="46.1797940" lon="9.4918920">
	<ele>1878.12</ele>
	<time>2023-05-06T10:09:44.000Z</time>
</trkpt>
<trkpt lat="46.1798060" lon="9.4920070">
	<ele>1879.92</ele>
	<time>2023-05-06T10:10:04.000Z</time>
</trkpt>
<trkpt lat="46.1798130" lon="9.4921140">
	<ele>1881.75</ele>
	<time>2023-05-06T10:10:19.000Z</time>
</trkpt>
<trkpt lat="46.1798000" lon="9.4921670">
	<ele>1882.96</ele>
	<time>2023-05-06T10:10:34.000Z</time>
</trkpt>
<trkpt lat="46.1798300" lon="9.4922190">
	<ele>1884.82</ele>
	<time>2023-05-06T10:10:44.000Z</time>
</trkpt>
<trkpt lat="46.1798740" lon="9.4922150">
	<ele>1886.38</ele>
	<time>2023-05-06T10:10:54.000Z</time>
</trkpt>
<trkpt lat="46.1798600" lon="9.4921880">
	<ele>1887.68</ele>
	<time>2023-05-06T10:11:44.000Z</time>
</trkpt>
<trkpt lat="46.1798820" lon="9.4922440">
	<ele>1888.28</ele>
	<time>2023-05-06T10:12:51.000Z</time>
</trkpt>
<trkpt lat="46.1799000" lon="9.4923200">
	<ele>1889.06</ele>
	<time>2023-05-06T10:13:26.000Z</time>
</trkpt>
<trkpt lat="46.1799130" lon="9.4923730">
	<ele>1889.66</ele>
	<time>2023-05-06T10:13:36.000Z</time>
</trkpt>
<trkpt lat="46.1799200" lon="9.4924480">
	<ele>1891.69</ele>
	<time>2023-05-06T10:13:46.000Z</time>
</trkpt>
<trkpt lat="46.1799240" lon="9.4925110">
	<ele>1893.08</ele>
	<time>2023-05-06T10:14:26.000Z</time>
</trkpt>
<trkpt lat="46.1799500" lon="9.4925180">
	<ele>1895.01</ele>
	<time>2023-05-06T10:14:41.000Z</time>
</trkpt>
<trkpt lat="46.1800040" lon="9.4925165">
	<ele>1899.80</ele>
	<time>2023-05-06T10:15:16.000Z</time>
</trkpt>
<trkpt lat="46.1800080" lon="9.4925970">
	<ele>1902.19</ele>
	<time>2023-05-06T10:17:16.000Z</time>
</trkpt>
<trkpt lat="46.1800300" lon="9.4927230">
	<ele>1904.19</ele>
	<time>2023-05-06T10:17:52.000Z</time>
</trkpt>
<trkpt lat="46.1800500" lon="9.4927810">
	<ele>1906.23</ele>
	<time>2023-05-06T10:18:02.000Z</time>
</trkpt>
<trkpt lat="46.1800730" lon="9.4928860">
	<ele>1908.71</ele>
	<time>2023-05-06T10:18:17.000Z</time>
	<extensions>
		<gpxtpx:TrackPointExtension>
			<gpxtpx:hr>115</gpxtpx:hr>
		</gpxtpx:TrackPointExtension>
	</extensions>
</trkpt>
<trkpt lat="46.1800880" lon="9.4929680">
	<ele>1909.71</ele>
	<time>2023-05-06T10:18:32.000Z</time>
</trkpt>
<trkpt lat="46.1801000" lon="9.4930690">
	<ele>1912.41</ele>
	<time>2023-05-06T10:18:52.000Z</time>
</trkpt>
<trkpt lat="46.1801150" lon="9.4931150">
	<ele>1913.88</ele>
	<time>2023-05-06T10:19:02.000Z</time>
</trkpt>
<trkpt lat="46.1801030" lon="9.4931965">
	<ele>1915.22</ele>
	<time>2023-05-06T10:19:17.000Z</time>
	<extensions>
		<gpxtpx:TrackPointExtension>
			<gpxtpx:hr>121</gpxtpx:hr>
		</gpxtpx:TrackPointExtension>
	</extensions>
</trkpt>
<trkpt lat="46.1801030" lon="9.4932785">
	<ele>1917.62</ele>
	<time>2023-05-06T10:19:31.000Z</time>
</trkpt>
<trkpt lat="46.1801220" lon="9.4933240">
	<ele>1919.29</ele>
	<time>2023-05-06T10:19:42.000Z</time>
</trkpt>
<trkpt lat="46.1801200" lon="9.4933850">
	<ele>1920.25</ele>
	<time>2023-05-06T10:20:24.000Z</time>
</trkpt>
<trkpt lat="46.1801100" lon="9.4934440">
	<ele>1920.28</ele>
	<time>2023-05-06T10:20:34.000Z</time>
</trkpt>
<trkpt lat="46.1801070" lon="9.4935590">
	<ele>1922.09</ele>
	<time>2023-05-06T10:20:49.000Z</time>
</trkpt>
<trkpt lat="46.1801300" lon="9.4936530">
	<ele>1925.50</ele>
	<time>2023-05-06T10:21:09.000Z</time>
</trkpt>
<trkpt lat="46.1801100" lon="9.4937580">
	<ele>1927.04</ele>
	<time>2023-05-06T10:21:24.000Z</time>
</trkpt>
<trkpt lat="46.1801200" lon="9.4937960">
	<ele>1928.34</ele>
	<time>2023-05-06T10:21:34.000Z</time>
</trkpt>
<trkpt lat="46.1801720" lon="9.4937740">
	<ele>1930.80</ele>
	<time>2023-05-06T10:21:59.000Z</time>
</trkpt>
<trkpt lat="46.1801530" lon="9.4938160">
	<ele>1923.64</ele>
	<time>2023-05-06T10:22:09.000Z</time>
</trkpt>
<trkpt lat="46.1801530" lon="9.4938110">
	<ele>1933.26</ele>
	<time>2023-05-06T10:24:22.000Z</time>
</trkpt>
<trkpt lat="46.1801760" lon="9.4939250">
	<ele>1936.08</ele>
	<time>2023-05-06T10:24:37.000Z</time>
</trkpt>
<trkpt lat="46.1802140" lon="9.4939890">
	<ele>1939.64</ele>
	<time>2023-05-06T10:24:57.000Z</time>
</trkpt>
<trkpt lat="46.1802250" lon="9.4940770">
	<ele>1942.04</ele>
	<time>2023-05-06T10:25:17.000Z</time>
	<extensions>
		<gpxtpx:TrackPointExtension>
			<gpxtpx:hr>95</gpxtpx:hr>
		</gpxtpx:TrackPointExtension>
	</extensions>
</trkpt>
<trkpt lat="46.1802330" lon="9.4941470">
	<ele>1943.22</ele>
	<time>2023-05-06T10:25:27.000Z</time>
</trkpt>
<trkpt lat="46.1802440" lon="9.4942210">
	<ele>1944.44</ele>
	<time>2023-05-06T10:25:37.000Z</time>
</trkpt>
<trkpt lat="46.1802750" lon="9.4943160">
	<ele>1946.95</ele>
	<time>2023-05-06T10:25:52.000Z</time>
</trkpt>
<trkpt lat="46.1803130" lon="9.4943000">
	<ele>1950.04</ele>
	<time>2023-05-06T10:26:17.000Z</time>
</trkpt>
<trkpt lat="46.1803500" lon="9.4942720">
	<ele>1953.07</ele>
	<time>2023-05-06T10:26:45.000Z</time>
</trkpt>
<trkpt lat="46.1803780" lon="9.4942790">
	<ele>1956.14</ele>
	<time>2023-05-06T10:27:06.000Z</time>
</trkpt>
<trkpt lat="46.1804240" lon="9.4943040">
	<ele>1960.94</ele>
	<time>2023-05-06T10:27:30.000Z</time>
</trkpt>
<trkpt lat="46.1804730" lon="9.4943280">
	<ele>1962.65</ele>
	<time>2023-05-06T10:27:50.000Z</time>
</trkpt>
<trkpt lat="46.1804770" lon="9.4943630">
	<ele>1962.98</ele>
	<time>2023-05-06T10:28:05.000Z</time>
</trkpt>
<trkpt lat="46.1805340" lon="9.4943990">
	<ele>1966.57</ele>
	<time>2023-05-06T10:28:25.000Z</time>
</trkpt>
<trkpt lat="46.1805270" lon="9.4944150">
	<ele>1968.44</ele>
	<time>2023-05-06T10:30:10.000Z</time>
</trkpt>
<trkpt lat="46.1805730" lon="9.4943800">
	<ele>1971.68</ele>
	<time>2023-05-06T10:30:35.000Z</time>
</trkpt>
<trkpt lat="46.1806000" lon="9.4943230">
	<ele>1974.21</ele>
	<time>2023-05-06T10:32:40.000Z</time>
</trkpt>
<trkpt lat="46.1806370" lon="9.4943040">
	<ele>1976.64</ele>
	<time>2023-05-06T10:32:50.000Z</time>
</trkpt>
<trkpt lat="46.1806800" lon="9.4942720">
	<ele>1978.88</ele>
	<time>2023-05-06T10:33:05.000Z</time>
</trkpt>
<trkpt lat="46.1807100" lon="9.4942500">
	<ele>1981.86</ele>
	<time>2023-05-06T10:33:30.000Z</time>
</trkpt>
<trkpt lat="46.1807100" lon="9.4942210">
	<ele>1983.05</ele>
	<time>2023-05-06T10:33:40.000Z</time>
</trkpt>
<trkpt lat="46.1807020" lon="9.4941540">
	<ele>1985.76</ele>
	<time>2023-05-06T10:38:31.000Z</time>
</trkpt>
<trkpt lat="46.1807300" lon="9.4941400">
	<ele>1988.48</ele>
	<time>2023-05-06T10:38:46.000Z</time>
</trkpt>
<trkpt lat="46.1807700" lon="9.4941360">
	<ele>1990.51</ele>
	<time>2023-05-06T10:39:01.000Z</time>
</trkpt>
<trkpt lat="46.1808000" lon="9.4940710">
	<ele>1993.33</ele>
	<time>2023-05-06T10:39:16.000Z</time>
</trkpt>
<trkpt lat="46.1808660" lon="9.4940405">
	<ele>1996.83</ele>
	<time>2023-05-06T10:39:41.000Z</time>
</trkpt>
<trkpt lat="46.1809100" lon="9.4940120">
	<ele>2000.63</ele>
	<time>2023-05-06T10:40:16.000Z</time>
</trkpt>
<trkpt lat="46.1809300" lon="9.4940010">
	<ele>2002.18</ele>
	<time>2023-05-06T10:40:56.000Z</time>
</trkpt>
<trkpt lat="46.1809580" lon="9.4939575">
	<ele>2004.26</ele>
	<time>2023-05-06T10:41:06.000Z</time>
</trkpt>
<trkpt lat="46.1810000" lon="9.4938670">
	<ele>2005.62</ele>
	<time>2023-05-06T10:41:21.000Z</time>
</trkpt>
<trkpt lat="46.1809920" lon="9.4937940">
	<ele>2005.90</ele>
	<time>2023-05-06T10:41:41.000Z</time>
</trkpt>
<trkpt lat="46.1810040" lon="9.4937140">
	<ele>2007.07</ele>
	<time>2023-05-06T10:42:01.000Z</time>
</trkpt>
<trkpt lat="46.1810300" lon="9.4936420">
	<ele>2008.93</ele>
	<time>2023-05-06T10:45:15.000Z</time>
</trkpt>
<trkpt lat="46.1810600" lon="9.4936540">
	<ele>2011.79</ele>
	<time>2023-05-06T10:45:57.000Z</time>
</trkpt>
<trkpt lat="46.1810570" lon="9.4935990">
	<ele>2012.56</ele>
	<time>2023-05-06T10:47:33.000Z</time>
</trkpt>
<trkpt lat="46.1811030" lon="9.4936090">
	<ele>2015.93</ele>
	<time>2023-05-06T10:47:50.000Z</time>
</trkpt>
<trkpt lat="46.1811260" lon="9.4936320">
	<ele>2018.29</ele>
	<time>2023-05-06T10:48:10.000Z</time>
</trkpt>
<trkpt lat="46.1811300" lon="9.4937240">
	<ele>2018.48</ele>
	<time>2023-05-06T10:50:38.000Z</time>
</trkpt>
<trkpt lat="46.1811370" lon="9.4938080">
	<ele>2020.19</ele>
	<time>2023-05-06T10:50:48.000Z</time>
</trkpt>
<trkpt lat="46.1811680" lon="9.4938660">
	<ele>2022.81</ele>
	<time>2023-05-06T10:50:58.000Z</time>
</trkpt>
<trkpt lat="46.1811870" lon="9.4939220">
	<ele>2024.67</ele>
	<time>2023-05-06T10:51:12.000Z</time>
</trkpt>
<trkpt lat="46.1812000" lon="9.4939940">
	<ele>2026.47</ele>
	<time>2023-05-06T10:51:23.000Z</time>
</trkpt>
<trkpt lat="46.1812250" lon="9.4940760">
	<ele>2029.30</ele>
	<time>2023-05-06T10:52:01.000Z</time>
</trkpt>
<trkpt lat="46.1812400" lon="9.4941510">
	<ele>2030.12</ele>
	<time>2023-05-06T10:52:11.000Z</time>
</trkpt>
<trkpt lat="46.1812670" lon="9.4941860">
	<ele>2031.76</ele>
	<time>2023-05-06T10:52:21.000Z</time>
</trkpt>
<trkpt lat="46.1812800" lon="9.4942620">
	<ele>2033.37</ele>
	<time>2023-05-06T10:52:46.000Z</time>
</trkpt>
<trkpt lat="46.1813130" lon="9.4943200">
	<ele>2035.78</ele>
	<time>2023-05-06T10:53:01.000Z</time>
</trkpt>
<trkpt lat="46.1813620" lon="9.4943540">
	<ele>2040.33</ele>
	<time>2023-05-06T10:53:36.000Z</time>
</trkpt>
<trkpt lat="46.1814040" lon="9.4943750">
	<ele>2042.14</ele>
	<time>2023-05-06T10:53:46.000Z</time>
</trkpt>
<trkpt lat="46.1814200" lon="9.4944510">
	<ele>2044.51</ele>
	<time>2023-05-06T10:54:01.000Z</time>
</trkpt>
<trkpt lat="46.1814730" lon="9.4945140">
	<ele>2048.43</ele>
	<time>2023-05-06T10:54:21.000Z</time>
</trkpt>
<trkpt lat="46.1815200" lon="9.4945550">
	<ele>2050.85</ele>
	<time>2023-05-06T10:55:01.000Z</time>
</trkpt>
<trkpt lat="46.1815720" lon="9.4946370">
	<ele>2053.44</ele>
	<time>2023-05-06T10:55:16.000Z</time>
</trkpt>
<trkpt lat="46.1816140" lon="9.4946990">
	<ele>2055.42</ele>
	<time>2023-05-06T10:55:26.000Z</time>
</trkpt>
<trkpt lat="46.1816560" lon="9.4947740">
	<ele>2057.66</ele>
	<time>2023-05-06T10:55:39.000Z</time>
</trkpt>
<trkpt lat="46.1817100" lon="9.4948280">
	<ele>2058.23</ele>
	<time>2023-05-06T10:55:49.000Z</time>
</trkpt>
<trkpt lat="46.1817440" lon="9.4949210">
	<ele>2059.20</ele>
	<time>2023-05-06T10:55:59.000Z</time>
</trkpt>
<trkpt lat="46.1817740" lon="9.4950420">
	<ele>2059.18</ele>
	<time>2023-05-06T10:56:09.000Z</time>
</trkpt>
<trkpt lat="46.1817970" lon="9.4951310">
	<ele>2059.69</ele>
	<time>2023-05-06T10:56:19.000Z</time>
</trkpt>
<trkpt lat="46.1818300" lon="9.4951880">
	<ele>2061.19</ele>
	<time>2023-05-06T10:56:29.000Z</time>
</trkpt>
<trkpt lat="46.1818900" lon="9.4952420">
	<ele>2064.42</ele>
	<time>2023-05-06T10:58:08.000Z</time>
</trkpt>
<trkpt lat="46.1819200" lon="9.4952620">
	<ele>2066.66</ele>
	<time>2023-05-06T10:58:18.000Z</time>
</trkpt>
<trkpt lat="46.1819600" lon="9.4953320">
	<ele>2068.87</ele>
	<time>2023-05-06T10:58:33.000Z</time>
</trkpt>
<trkpt lat="46.1819880" lon="9.4954240">
	<ele>2069.36</ele>
	<time>2023-05-06T10:58:43.000Z</time>
</trkpt>
<trkpt lat="46.1820300" lon="9.4954640">
	<ele>2071.25</ele>
	<time>2023-05-06T10:58:53.000Z</time>
</trkpt>
<trkpt lat="46.1820870" lon="9.4954760">
	<ele>2072.27</ele>
	<time>2023-05-06T10:59:08.000Z</time>
</trkpt>
<trkpt lat="46.1821060" lon="9.4955140">
	<ele>2073.04</ele>
	<time>2023-05-06T10:59:13.000Z</time>
</trkpt>
<trkpt lat="46.1821560" lon="9.4956080">
	<ele>2074.91</ele>
	<time>2023-05-06T10:59:28.000Z</time>
</trkpt>
<trkpt lat="46.1821820" lon="9.4956370">
	<ele>2075.61</ele>
	<time>2023-05-06T10:59:33.000Z</time>
</trkpt>
<trkpt lat="46.1822170" lon="9.4957180">
	<ele>2076.62</ele>
	<time>2023-05-06T10:59:43.000Z</time>
</trkpt>
<trkpt lat="46.1822550" lon="9.4957870">
	<ele>2077.95</ele>
	<time>2023-05-06T10:59:53.000Z</time>
</trkpt>
<trkpt lat="46.1822800" lon="9.4958760">
	<ele>2079.32</ele>
	<time>2023-05-06T11:00:03.000Z</time>
</trkpt>
<trkpt lat="46.1823100" lon="9.4959230">
	<ele>2079.84</ele>
	<time>2023-05-06T11:00:25.000Z</time>
</trkpt>
<trkpt lat="46.1823580" lon="9.4959880">
	<ele>2081.34</ele>
	<time>2023-05-06T11:00:35.000Z</time>
</trkpt>
<trkpt lat="46.1823800" lon="9.4960710">
	<ele>2083.39</ele>
	<time>2023-05-06T11:00:45.000Z</time>
</trkpt>
<trkpt lat="46.1823840" lon="9.4961420">
	<ele>2085.19</ele>
	<time>2023-05-06T11:00:55.000Z</time>
</trkpt>
<trkpt lat="46.1824260" lon="9.4961310">
	<ele>2087.39</ele>
	<time>2023-05-06T11:01:05.000Z</time>
</trkpt>
<trkpt lat="46.1824530" lon="9.4961180">
	<ele>2088.75</ele>
	<time>2023-05-06T11:01:20.000Z</time>
</trkpt>
<trkpt lat="46.1824760" lon="9.4961980">
	<ele>2090.25</ele>
	<time>2023-05-06T11:01:30.000Z</time>
</trkpt>
<trkpt lat="46.1825370" lon="9.4962620">
	<ele>2091.81</ele>
	<time>2023-05-06T11:01:40.000Z</time>
</trkpt>
<trkpt lat="46.1825560" lon="9.4962080">
	<ele>2092.67</ele>
	<time>2023-05-06T11:01:45.000Z</time>
</trkpt>
<trkpt lat="46.1826060" lon="9.4962440">
	<ele>2093.76</ele>
	<time>2023-05-06T11:01:55.000Z</time>
</trkpt>
<trkpt lat="46.1826250" lon="9.4962130">
	<ele>2095.80</ele>
	<time>2023-05-06T11:02:05.000Z</time>
</trkpt>
<trkpt lat="46.1826130" lon="9.4961340">
	<ele>2097.82</ele>
	<time>2023-05-06T11:02:15.000Z</time>
</trkpt>
<trkpt lat="46.1826360" lon="9.4960860">
	<ele>2100.38</ele>
	<time>2023-05-06T11:02:35.000Z</time>
</trkpt>
<trkpt lat="46.1826900" lon="9.4961290">
	<ele>2102.05</ele>
	<time>2023-05-06T11:03:00.000Z</time>
</trkpt>
<trkpt lat="46.1827300" lon="9.4960450">
	<ele>2102.94</ele>
	<time>2023-05-06T11:03:20.000Z</time>
</trkpt>
<trkpt lat="46.1827550" lon="9.4960165">
	<ele>2101.51</ele>
	<time>2023-05-06T11:03:25.000Z</time>
</trkpt>
<trkpt lat="46.1827430" lon="9.4960600">
	<ele>2102.56</ele>
	<time>2023-05-06T11:04:05.000Z</time>
</trkpt>
<trkpt lat="46.1826930" lon="9.4961330">
	<ele>2102.24</ele>
	<time>2023-05-06T11:04:15.000Z</time>
</trkpt>
<trkpt lat="46.1826930" lon="9.4961250">
	<ele>2102.60</ele>
	<time>2023-05-06T11:05:52.000Z</time>
</trkpt>
<trkpt lat="46.1826930" lon="9.4961500">
	<ele>2101.32</ele>
	<time>2023-05-06T11:06:36.000Z</time>
</trkpt>
<trkpt lat="46.1826800" lon="9.4961480">
	<ele>2100.71</ele>
	<time>2023-05-06T11:07:10.000Z</time>
</trkpt>
<trkpt lat="46.1826740" lon="9.4961540">
	<ele>2102.24</ele>
	<time>2023-05-06T11:12:00.000Z</time>
</trkpt>
<trkpt lat="46.1827000" lon="9.4961340">
	<ele>2100.87</ele>
	<time>2023-05-06T11:27:25.000Z</time>
</trkpt>
<trkpt lat="46.1826800" lon="9.4961670">
	<ele>2105.86</ele>
	<time>2023-05-06T11:30:13.000Z</time>
</trkpt>
<trkpt lat="46.1826800" lon="9.4961730">
	<ele>2112.96</ele>
	<time>2023-05-06T11:32:25.000Z</time>
</trkpt>
<trkpt lat="46.1826800" lon="9.4961660">
	<ele>2105.10</ele>
	<time>2023-05-06T11:32:38.000Z</time>
</trkpt>
<trkpt lat="46.1826480" lon="9.4961600">
	<ele>2102.09</ele>
	<time>2023-05-06T11:33:14.000Z</time>
</trkpt>
<trkpt lat="46.1826300" lon="9.4961530">
	<ele>2099.42</ele>
	<time>2023-05-06T11:33:39.000Z</time>
</trkpt>
<trkpt lat="46.1825940" lon="9.4961240">
	<ele>2097.08</ele>
	<time>2023-05-06T11:33:58.000Z</time>
</trkpt>
<trkpt lat="46.1825560" lon="9.4961060">
	<ele>2093.39</ele>
	<time>2023-05-06T11:34:13.000Z</time>
</trkpt>
<trkpt lat="46.1825500" lon="9.4961790">
	<ele>2092.70</ele>
	<time>2023-05-06T11:34:23.000Z</time>
</trkpt>
<trkpt lat="46.1825030" lon="9.4962440">
	<ele>2092.64</ele>
	<time>2023-05-06T11:34:33.000Z</time>
</trkpt>
<trkpt lat="46.1824650" lon="9.4962080">
	<ele>2091.34</ele>
	<time>2023-05-06T11:34:43.000Z</time>
</trkpt>
<trkpt lat="46.1824460" lon="9.4960950">
	<ele>2089.64</ele>
	<time>2023-05-06T11:34:58.000Z</time>
</trkpt>
<trkpt lat="46.1824000" lon="9.4960750">
	<ele>2087.89</ele>
	<time>2023-05-06T11:35:13.000Z</time>
</trkpt>
<trkpt lat="46.1823580" lon="9.4960530">
	<ele>2087.38</ele>
	<time>2023-05-06T11:35:18.000Z</time>
</trkpt>
<trkpt lat="46.1823300" lon="9.4959840">
	<ele>2082.84</ele>
	<time>2023-05-06T11:35:38.000Z</time>
</trkpt>
<trkpt lat="46.1822900" lon="9.4958980">
	<ele>2080.82</ele>
	<time>2023-05-06T11:35:48.000Z</time>
</trkpt>
<trkpt lat="46.1822240" lon="9.4958020">
	<ele>2079.15</ele>
	<time>2023-05-06T11:35:58.000Z</time>
</trkpt>
<trkpt lat="46.1822000" lon="9.4957130">
	<ele>2077.70</ele>
	<time>2023-05-06T11:36:08.000Z</time>
</trkpt>
<trkpt lat="46.1821670" lon="9.4956450">
	<ele>2076.64</ele>
	<time>2023-05-06T11:36:18.000Z</time>
</trkpt>
<trkpt lat="46.1821250" lon="9.4955700">
	<ele>2075.43</ele>
	<time>2023-05-06T11:36:27.000Z</time>
</trkpt>
<trkpt lat="46.1820830" lon="9.4955290">
	<ele>2074.63</ele>
	<time>2023-05-06T11:36:38.000Z</time>
</trkpt>
<trkpt lat="46.1820370" lon="9.4954520">
	<ele>2072.31</ele>
	<time>2023-05-06T11:36:53.000Z</time>
</trkpt>
<trkpt lat="46.1820200" lon="9.4954210">
	<ele>2072.60</ele>
	<time>2023-05-06T11:36:58.000Z</time>
</trkpt>
<trkpt lat="46.1820200" lon="9.4954030">
	<ele>2071.73</ele>
	<time>2023-05-06T11:37:18.000Z</time>
</trkpt>
<trkpt lat="46.1819530" lon="9.4953610">
	<ele>2069.10</ele>
	<time>2023-05-06T11:37:38.000Z</time>
</trkpt>
<trkpt lat="46.1819100" lon="9.4952990">
	<ele>2068.02</ele>
	<time>2023-05-06T11:37:48.000Z</time>
</trkpt>
<trkpt lat="46.1819000" lon="9.4952520">
	<ele>2067.89</ele>
	<time>2023-05-06T11:37:58.000Z</time>
</trkpt>
<trkpt lat="46.1818430" lon="9.4951630">
	<ele>2066.02</ele>
	<time>2023-05-06T11:38:18.000Z</time>
</trkpt>
<trkpt lat="46.1818050" lon="9.4950770">
	<ele>2064.99</ele>
	<time>2023-05-06T11:38:33.000Z</time>
</trkpt>
<trkpt lat="46.1817900" lon="9.4950410">
	<ele>2067.20</ele>
	<time>2023-05-06T11:38:48.000Z</time>
</trkpt>
<trkpt lat="46.1817500" lon="9.4949460">
	<ele>2059.05</ele>
	<time>2023-05-06T11:39:03.000Z</time>
</trkpt>
<trkpt lat="46.1817170" lon="9.4948770">
	<ele>2059.39</ele>
	<time>2023-05-06T11:39:08.000Z</time>
</trkpt>
<trkpt lat="46.1816980" lon="9.4948180">
	<ele>2059.72</ele>
	<time>2023-05-06T11:39:13.000Z</time>
</trkpt>
<trkpt lat="46.1817050" lon="9.4947880">
	<ele>2059.39</ele>
	<time>2023-05-06T11:39:18.000Z</time>
</trkpt>
<trkpt lat="46.1816440" lon="9.4947620">
	<ele>2058.07</ele>
	<time>2023-05-06T11:39:37.000Z</time>
</trkpt>
<trkpt lat="46.1816100" lon="9.4946960">
	<ele>2056.30</ele>
	<time>2023-05-06T11:39:43.000Z</time>
</trkpt>
<trkpt lat="46.1815500" lon="9.4946190">
	<ele>2053.48</ele>
	<time>2023-05-06T11:39:53.000Z</time>
</trkpt>
<trkpt lat="46.1815260" lon="9.4945720">
	<ele>2052.25</ele>
	<time>2023-05-06T11:39:58.000Z</time>
</trkpt>
<trkpt lat="46.1814730" lon="9.4944620">
	<ele>2049.22</ele>
	<time>2023-05-06T11:40:13.000Z</time>
</trkpt>
<trkpt lat="46.1814460" lon="9.4944340">
	<ele>2047.84</ele>
	<time>2023-05-06T11:40:18.000Z</time>
</trkpt>
<trkpt lat="46.1813960" lon="9.4944700">
	<ele>2045.57</ele>
	<time>2023-05-06T11:40:32.000Z</time>
</trkpt>
<trkpt lat="46.1813700" lon="9.4944380">
	<ele>2043.76</ele>
	<time>2023-05-06T11:40:42.000Z</time>
</trkpt>
<trkpt lat="46.1813550" lon="9.4943740">
	<ele>2042.21</ele>
	<time>2023-05-06T11:40:52.000Z</time>
</trkpt>
<trkpt lat="46.1813280" lon="9.4943200">
	<ele>2039.15</ele>
	<time>2023-05-06T11:41:02.000Z</time>
</trkpt>
<trkpt lat="46.1812970" lon="9.4942465">
	<ele>2036.17</ele>
	<time>2023-05-06T11:41:26.000Z</time>
</trkpt>
<trkpt lat="46.1812550" lon="9.4941570">
	<ele>2033.02</ele>
	<time>2023-05-06T11:41:46.000Z</time>
</trkpt>
<trkpt lat="46.1812320" lon="9.4940770">
	<ele>2032.57</ele>
	<time>2023-05-06T11:41:56.000Z</time>
</trkpt>
<trkpt lat="46.1812100" lon="9.4940180">
	<ele>2031.27</ele>
	<time>2023-05-06T11:42:06.000Z</time>
</trkpt>
<trkpt lat="46.1811700" lon="9.4939995">
	<ele>2027.25</ele>
	<time>2023-05-06T11:42:31.000Z</time>
</trkpt>
<trkpt lat="46.1811640" lon="9.4939250">
	<ele>2027.16</ele>
	<time>2023-05-06T11:42:41.000Z</time>
</trkpt>
<trkpt lat="46.1811500" lon="9.4938540">
	<ele>2024.72</ele>
	<time>2023-05-06T11:43:01.000Z</time>
</trkpt>
<trkpt lat="46.1811200" lon="9.4937930">
	<ele>2021.60</ele>
	<time>2023-05-06T11:43:16.000Z</time>
</trkpt>
<trkpt lat="46.1811100" lon="9.4937200">
	<ele>2020.83</ele>
	<time>2023-05-06T11:43:26.000Z</time>
</trkpt>
<trkpt lat="46.1811070" lon="9.4936330">
	<ele>2019.21</ele>
	<time>2023-05-06T11:43:41.000Z</time>
</trkpt>
<trkpt lat="46.1810900" lon="9.4935840">
	<ele>2017.76</ele>
	<time>2023-05-06T11:43:56.000Z</time>
</trkpt>
<trkpt lat="46.1810700" lon="9.4935120">
	<ele>2017.86</ele>
	<time>2023-05-06T11:44:11.000Z</time>
</trkpt>
<trkpt lat="46.1810460" lon="9.4934400">
	<ele>2013.68</ele>
	<time>2023-05-06T11:44:26.000Z</time>
</trkpt>
<trkpt lat="46.1810340" lon="9.4933820">
	<ele>2012.00</ele>
	<time>2023-05-06T11:44:36.000Z</time>
</trkpt>
<trkpt lat="46.1810150" lon="9.4933200">
	<ele>2010.15</ele>
	<time>2023-05-06T11:44:51.000Z</time>
</trkpt>
<trkpt lat="46.1810040" lon="9.4932580">
	<ele>2008.03</ele>
	<time>2023-05-06T11:45:03.000Z</time>
</trkpt>
<trkpt lat="46.1809770" lon="9.4932140">
	<ele>2006.82</ele>
	<time>2023-05-06T11:45:15.000Z</time>
</trkpt>
<trkpt lat="46.1809540" lon="9.4931440">
	<ele>2003.24</ele>
	<time>2023-05-06T11:45:35.000Z</time>
</trkpt>
<trkpt lat="46.1809200" lon="9.4930950">
	<ele>2000.28</ele>
	<time>2023-05-06T11:45:55.000Z</time>
</trkpt>
<trkpt lat="46.1809040" lon="9.4930280">
	<ele>1998.06</ele>
	<time>2023-05-06T11:46:05.000Z</time>
</trkpt>
<trkpt lat="46.1808930" lon="9.4929840">
	<ele>1996.00</ele>
	<time>2023-05-06T11:46:20.000Z</time>
</trkpt>
<trkpt lat="46.1808600" lon="9.4929420">
	<ele>1994.41</ele>
	<time>2023-05-06T11:46:30.000Z</time>
</trkpt>
<trkpt lat="46.1808360" lon="9.4929080">
	<ele>1991.76</ele>
	<time>2023-05-06T11:46:54.000Z</time>
</trkpt>
<trkpt lat="46.1808170" lon="9.4929610">
	<ele>1989.93</ele>
	<time>2023-05-06T11:47:14.000Z</time>
</trkpt>
<trkpt lat="46.1807940" lon="9.4928890">
	<ele>1988.26</ele>
	<time>2023-05-06T11:47:31.000Z</time>
</trkpt>
<trkpt lat="46.1807750" lon="9.4928200">
	<ele>1984.42</ele>
	<time>2023-05-06T11:47:46.000Z</time>
</trkpt>
<trkpt lat="46.1807400" lon="9.4927790">
	<ele>1980.33</ele>
	<time>2023-05-06T11:48:06.000Z</time>
</trkpt>
<trkpt lat="46.1806950" lon="9.4927420">
	<ele>1976.42</ele>
	<time>2023-05-06T11:48:19.000Z</time>
</trkpt>
<trkpt lat="46.1806760" lon="9.4926250">
	<ele>1973.36</ele>
	<time>2023-05-06T11:48:34.000Z</time>
</trkpt>
<trkpt lat="46.1806600" lon="9.4925500">
	<ele>1972.24</ele>
	<time>2023-05-06T11:48:44.000Z</time>
</trkpt>
<trkpt lat="46.1806450" lon="9.4924970">
	<ele>1970.22</ele>
	<time>2023-05-06T11:48:54.000Z</time>
</trkpt>
<trkpt lat="46.1806340" lon="9.4924260">
	<ele>1967.71</ele>
	<time>2023-05-06T11:49:04.000Z</time>
</trkpt>
<trkpt lat="46.1806220" lon="9.4923980">
	<ele>1966.93</ele>
	<time>2023-05-06T11:49:14.000Z</time>
</trkpt>
<trkpt lat="46.1805900" lon="9.4923120">
	<ele>1963.14</ele>
	<time>2023-05-06T11:49:29.000Z</time>
</trkpt>
<trkpt lat="46.1805700" lon="9.4922620">
	<ele>1961.01</ele>
	<time>2023-05-06T11:49:39.000Z</time>
</trkpt>
<trkpt lat="46.1805300" lon="9.4922480">
	<ele>1959.32</ele>
	<time>2023-05-06T11:49:49.000Z</time>
</trkpt>
<trkpt lat="46.1804960" lon="9.4921840">
	<ele>1956.10</ele>
	<time>2023-05-06T11:50:04.000Z</time>
</trkpt>
<trkpt lat="46.1804920" lon="9.4921120">
	<ele>1953.09</ele>
	<time>2023-05-06T11:50:19.000Z</time>
</trkpt>
<trkpt lat="46.1804800" lon="9.4920620">
	<ele>1950.88</ele>
	<time>2023-05-06T11:50:29.000Z</time>
</trkpt>
<trkpt lat="46.1804500" lon="9.4920310">
	<ele>1948.58</ele>
	<time>2023-05-06T11:50:43.000Z</time>
</trkpt>
<trkpt lat="46.1803970" lon="9.4920220">
	<ele>1945.76</ele>
	<time>2023-05-06T11:50:59.000Z</time>
</trkpt>
<trkpt lat="46.1803860" lon="9.4919580">
	<ele>1944.50</ele>
	<time>2023-05-06T11:51:09.000Z</time>
</trkpt>
<trkpt lat="46.1803470" lon="9.4919520">
	<ele>1941.45</ele>
	<time>2023-05-06T11:51:29.000Z</time>
</trkpt>
<trkpt lat="46.1803250" lon="9.4918780">
	<ele>1939.18</ele>
	<time>2023-05-06T11:51:44.000Z</time>
</trkpt>
<trkpt lat="46.1803170" lon="9.4918460">
	<ele>1938.24</ele>
	<time>2023-05-06T11:51:54.000Z</time>
</trkpt>
<trkpt lat="46.1802860" lon="9.4918180">
	<ele>1936.46</ele>
	<time>2023-05-06T11:52:14.000Z</time>
	<extensions>
		<gpxtpx:TrackPointExtension>
			<gpxtpx:hr>87</gpxtpx:hr>
		</gpxtpx:TrackPointExtension>
	</extensions>
</trkpt>
<trkpt lat="46.1802600" lon="9.4917610">
	<ele>1932.45</ele>
	<time>2023-05-06T11:52:44.000Z</time>
</trkpt>
<trkpt lat="46.1802700" lon="9.4917260">
	<ele>1932.57</ele>
	<time>2023-05-06T11:52:54.000Z</time>
</trkpt>
<trkpt lat="46.1802400" lon="9.4916910">
	<ele>1929.70</ele>
	<time>2023-05-06T11:53:18.000Z</time>
</trkpt>
<trkpt lat="46.1802200" lon="9.4916310">
	<ele>1927.93</ele>
	<time>2023-05-06T11:53:37.000Z</time>
</trkpt>
<trkpt lat="46.1802200" lon="9.4915620">
	<ele>1925.47</ele>
	<time>2023-05-06T11:53:50.000Z</time>
</trkpt>
<trkpt lat="46.1801900" lon="9.4914950">
	<ele>1923.64</ele>
	<time>2023-05-06T11:54:10.000Z</time>
</trkpt>
<trkpt lat="46.1801600" lon="9.4914660">
	<ele>1919.31</ele>
	<time>2023-05-06T11:54:32.000Z</time>
</trkpt>
<trkpt lat="46.1801450" lon="9.4913940">
	<ele>1917.32</ele>
	<time>2023-05-06T11:54:41.000Z</time>
</trkpt>
<trkpt lat="46.1801300" lon="9.4913410">
	<ele>1916.87</ele>
	<time>2023-05-06T11:54:46.000Z</time>
</trkpt>
<trkpt lat="46.1801150" lon="9.4912430">
	<ele>1916.63</ele>
	<time>2023-05-06T11:54:56.000Z</time>
</trkpt>
<trkpt lat="46.1801070" lon="9.4911870">
	<ele>1914.24</ele>
	<time>2023-05-06T11:55:06.000Z</time>
</trkpt>
<trkpt lat="46.1800900" lon="9.4910970">
	<ele>1912.52</ele>
	<time>2023-05-06T11:55:21.000Z</time>
</trkpt>
<trkpt lat="46.1801100" lon="9.4910390">
	<ele>1909.57</ele>
	<time>2023-05-06T11:55:41.000Z</time>
</trkpt>
<trkpt lat="46.1801030" lon="9.4909910">
	<ele>1907.78</ele>
	<time>2023-05-06T11:55:51.000Z</time>
</trkpt>
<trkpt lat="46.1800880" lon="9.4909310">
	<ele>1903.79</ele>
	<time>2023-05-06T11:56:16.000Z</time>
</trkpt>
<trkpt lat="46.1800770" lon="9.4908710">
	<ele>1902.12</ele>
	<time>2023-05-06T11:56:31.000Z</time>
</trkpt>
<trkpt lat="46.1800300" lon="9.4908550">
	<ele>1897.45</ele>
	<time>2023-05-06T11:57:01.000Z</time>
</trkpt>
<trkpt lat="46.1800040" lon="9.4907770">
	<ele>1895.16</ele>
	<time>2023-05-06T11:57:16.000Z</time>
</trkpt>
<trkpt lat="46.1799930" lon="9.4907300">
	<ele>1893.72</ele>
	<time>2023-05-06T11:57:26.000Z</time>
</trkpt>
<trkpt lat="46.1799600" lon="9.4906580">
	<ele>1890.67</ele>
	<time>2023-05-06T11:57:51.000Z</time>
</trkpt>
<trkpt lat="46.1799350" lon="9.4906640">
	<ele>1889.80</ele>
	<time>2023-05-06T11:57:59.000Z</time>
</trkpt>
<trkpt lat="46.1799050" lon="9.4907190">
	<ele>1886.70</ele>
	<time>2023-05-06T11:58:22.000Z</time>
</trkpt>
<trkpt lat="46.1798550" lon="9.4906780">
	<ele>1884.95</ele>
	<time>2023-05-06T11:58:32.000Z</time>
</trkpt>
<trkpt lat="46.1798900" lon="9.4906080">
	<ele>1882.27</ele>
	<time>2023-05-06T11:58:52.000Z</time>
</trkpt>
<trkpt lat="46.1799050" lon="9.4905370">
	<ele>1881.74</ele>
	<time>2023-05-06T11:59:02.000Z</time>
</trkpt>
<trkpt lat="46.1798930" lon="9.4905040">
	<ele>1880.00</ele>
	<time>2023-05-06T11:59:52.000Z</time>
</trkpt>
<trkpt lat="46.1798970" lon="9.4904200">
	<ele>1877.53</ele>
	<time>2023-05-06T12:00:07.000Z</time>
</trkpt>
<trkpt lat="46.1798820" lon="9.4903390">
	<ele>1875.61</ele>
	<time>2023-05-06T12:00:22.000Z</time>
</trkpt>
<trkpt lat="46.1798630" lon="9.4902770">
	<ele>1873.04</ele>
	<time>2023-05-06T12:00:51.000Z</time>
</trkpt>
<trkpt lat="46.1798360" lon="9.4902010">
	<ele>1871.43</ele>
	<time>2023-05-06T12:01:16.000Z</time>
</trkpt>
<trkpt lat="46.1798200" lon="9.4901490">
	<ele>1869.96</ele>
	<time>2023-05-06T12:04:01.000Z</time>
</trkpt>
<trkpt lat="46.1798100" lon="9.4900840">
	<ele>1868.45</ele>
	<time>2023-05-06T12:04:11.000Z</time>
</trkpt>
<trkpt lat="46.1798550" lon="9.4900460">
	<ele>1865.20</ele>
	<time>2023-05-06T12:04:26.000Z</time>
</trkpt>
<trkpt lat="46.1798500" lon="9.4900080">
	<ele>1863.76</ele>
	<time>2023-05-06T12:04:36.000Z</time>
</trkpt>
<trkpt lat="46.1798600" lon="9.4899780">
	<ele>1862.33</ele>
	<time>2023-05-06T12:04:51.000Z</time>
</trkpt>
<trkpt lat="46.1799240" lon="9.4899640">
	<ele>1857.97</ele>
	<time>2023-05-06T12:05:11.000Z</time>
</trkpt>
<trkpt lat="46.1799100" lon="9.4899000">
	<ele>1855.78</ele>
	<time>2023-05-06T12:05:21.000Z</time>
</trkpt>
<trkpt lat="46.1798970" lon="9.4898350">
	<ele>1853.81</ele>
	<time>2023-05-06T12:05:31.000Z</time>
</trkpt>
<trkpt lat="46.1799100" lon="9.4897180">
	<ele>1851.38</ele>
	<time>2023-05-06T12:05:46.000Z</time>
</trkpt>
<trkpt lat="46.1799050" lon="9.4896840">
	<ele>1850.73</ele>
	<time>2023-05-06T12:05:51.000Z</time>
</trkpt>
<trkpt lat="46.1799000" lon="9.4895870">
	<ele>1848.18</ele>
	<time>2023-05-06T12:06:10.000Z</time>
</trkpt>
<trkpt lat="46.1798800" lon="9.4895350">
	<ele>1845.49</ele>
	<time>2023-05-06T12:06:21.000Z</time>
</trkpt>
<trkpt lat="46.1798500" lon="9.4894650">
	<ele>1842.70</ele>
	<time>2023-05-06T12:06:31.000Z</time>
</trkpt>
<trkpt lat="46.1798860" lon="9.4893890">
	<ele>1840.21</ele>
	<time>2023-05-06T12:06:46.000Z</time>
</trkpt>
<trkpt lat="46.1798820" lon="9.4893680">
	<ele>1838.30</ele>
	<time>2023-05-06T12:07:06.000Z</time>
</trkpt>
<trkpt lat="46.1798740" lon="9.4893120">
	<ele>1836.09</ele>
	<time>2023-05-06T12:07:23.000Z</time>
</trkpt>
<trkpt lat="46.1798360" lon="9.4892790">
	<ele>1833.13</ele>
	<time>2023-05-06T12:07:43.000Z</time>
</trkpt>
<trkpt lat="46.1798060" lon="9.4891820">
	<ele>1828.56</ele>
	<time>2023-05-06T12:08:03.000Z</time>
</trkpt>
<trkpt lat="46.1797500" lon="9.4891030">
	<ele>1826.23</ele>
	<time>2023-05-06T12:08:13.000Z</time>
</trkpt>
<trkpt lat="46.1797450" lon="9.4890070">
	<ele>1822.81</ele>
	<time>2023-05-06T12:08:23.000Z</time>
</trkpt>
<trkpt lat="46.1797260" lon="9.4888920">
	<ele>1820.86</ele>
	<time>2023-05-06T12:08:38.000Z</time>
</trkpt>
<trkpt lat="46.1797140" lon="9.4888550">
	<ele>1820.46</ele>
	<time>2023-05-06T12:08:43.000Z</time>
</trkpt>
<trkpt lat="46.1796700" lon="9.4888010">
	<ele>1817.41</ele>
	<time>2023-05-06T12:08:53.000Z</time>
</trkpt>
<trkpt lat="46.1796300" lon="9.4887340">
	<ele>1815.23</ele>
	<time>2023-05-06T12:09:08.000Z</time>
</trkpt>
<trkpt lat="46.1796200" lon="9.4886130">
	<ele>1812.30</ele>
	<time>2023-05-06T12:09:18.000Z</time>
</trkpt>
<trkpt lat="46.1796200" lon="9.4885570">
	<ele>1811.48</ele>
	<time>2023-05-06T12:09:23.000Z</time>
</trkpt>
<trkpt lat="46.1796380" lon="9.4884570">
	<ele>1810.22</ele>
	<time>2023-05-06T12:09:33.000Z</time>
</trkpt>
<trkpt lat="46.1795920" lon="9.4884140">
	<ele>1808.82</ele>
	<time>2023-05-06T12:09:43.000Z</time>
</trkpt>
<trkpt lat="46.1795540" lon="9.4883100">
	<ele>1807.04</ele>
	<time>2023-05-06T12:09:53.000Z</time>
</trkpt>
<trkpt lat="46.1795400" lon="9.4881760">
	<ele>1806.28</ele>
	<time>2023-05-06T12:10:03.000Z</time>
</trkpt>
<trkpt lat="46.1795160" lon="9.4880705">
	<ele>1805.43</ele>
	<time>2023-05-06T12:10:13.000Z</time>
</trkpt>
<trkpt lat="46.1795160" lon="9.4879390">
	<ele>1805.18</ele>
	<time>2023-05-06T12:10:23.000Z</time>
</trkpt>
<trkpt lat="46.1795350" lon="9.4878220">
	<ele>1803.19</ele>
	<time>2023-05-06T12:10:33.000Z</time>
</trkpt>
<trkpt lat="46.1795040" lon="9.4877120">
	<ele>1803.71</ele>
	<time>2023-05-06T12:10:43.000Z</time>
</trkpt>
<trkpt lat="46.1795040" lon="9.4875910">
	<ele>1802.92</ele>
	<time>2023-05-06T12:10:53.000Z</time>
</trkpt>
<trkpt lat="46.1794740" lon="9.4874900">
	<ele>1802.13</ele>
	<time>2023-05-06T12:11:03.000Z</time>
</trkpt>
<trkpt lat="46.1794550" lon="9.4873960">
	<ele>1800.99</ele>
	<time>2023-05-06T12:11:13.000Z</time>
</trkpt>
<trkpt lat="46.1794600" lon="9.4873220">
	<ele>1799.64</ele>
	<time>2023-05-06T12:11:23.000Z</time>
</trkpt>
<trkpt lat="46.1795000" lon="9.4872650">
	<ele>1798.05</ele>
	<time>2023-05-06T12:11:33.000Z</time>
</trkpt>
<trkpt lat="46.1795580" lon="9.4871820">
	<ele>1796.39</ele>
	<time>2023-05-06T12:11:43.000Z</time>
</trkpt>
<trkpt lat="46.1795650" lon="9.4870860">
	<ele>1797.59</ele>
	<time>2023-05-06T12:11:53.000Z</time>
</trkpt>
<trkpt lat="46.1795540" lon="9.4870230">
	<ele>1797.34</ele>
	<time>2023-05-06T12:12:03.000Z</time>
</trkpt>
<trkpt lat="46.1795000" lon="9.4869740">
	<ele>1794.17</ele>
	<time>2023-05-06T12:12:21.000Z</time>
</trkpt>
<trkpt lat="46.1795200" lon="9.4869500">
	<ele>1792.55</ele>
	<time>2023-05-06T12:12:31.000Z</time>
</trkpt>
<trkpt lat="46.1794600" lon="9.4868600">
	<ele>1789.04</ele>
	<time>2023-05-06T12:12:46.000Z</time>
</trkpt>
<trkpt lat="46.1794800" lon="9.4868400">
	<ele>1787.80</ele>
	<time>2023-05-06T12:12:51.000Z</time>
</trkpt>
<trkpt lat="46.1794550" lon="9.4867550">
	<ele>1784.04</ele>
	<time>2023-05-06T12:13:06.000Z</time>
</trkpt>
<trkpt lat="46.1794360" lon="9.4867210">
	<ele>1783.06</ele>
	<time>2023-05-06T12:13:11.000Z</time>
</trkpt>
<trkpt lat="46.1794400" lon="9.4866350">
	<ele>1780.61</ele>
	<time>2023-05-06T12:13:21.000Z</time>
</trkpt>
<trkpt lat="46.1794240" lon="9.4865690">
	<ele>1778.26</ele>
	<time>2023-05-06T12:13:31.000Z</time>
</trkpt>
<trkpt lat="46.1794360" lon="9.4865310">
	<ele>1776.70</ele>
	<time>2023-05-06T12:13:43.000Z</time>
</trkpt>
<trkpt lat="46.1794100" lon="9.4864420">
	<ele>1774.69</ele>
	<time>2023-05-06T12:13:54.000Z</time>
</trkpt>
<trkpt lat="46.1794050" lon="9.4863940">
	<ele>1773.55</ele>
	<time>2023-05-06T12:13:59.000Z</time>
</trkpt>
<trkpt lat="46.1793750" lon="9.4863060">
	<ele>1771.83</ele>
	<time>2023-05-06T12:14:09.000Z</time>
</trkpt>
<trkpt lat="46.1793330" lon="9.4862020">
	<ele>1770.53</ele>
	<time>2023-05-06T12:14:19.000Z</time>
</trkpt>
<trkpt lat="46.1793630" lon="9.4860830">
	<ele>1769.30</ele>
	<time>2023-05-06T12:14:29.000Z</time>
</trkpt>
<trkpt lat="46.1793500" lon="9.4860060">
	<ele>1767.89</ele>
	<time>2023-05-06T12:14:39.000Z</time>
</trkpt>
<trkpt lat="46.1793200" lon="9.4859320">
	<ele>1764.99</ele>
	<time>2023-05-06T12:14:54.000Z</time>
</trkpt>
<trkpt lat="46.1793100" lon="9.4858810">
	<ele>1762.96</ele>
	<time>2023-05-06T12:15:04.000Z</time>
</trkpt>
<trkpt lat="46.1793900" lon="9.4858210">
	<ele>1760.52</ele>
	<time>2023-05-06T12:15:19.000Z</time>
</trkpt>
<trkpt lat="46.1794170" lon="9.4857290">
	<ele>1758.92</ele>
	<time>2023-05-06T12:15:29.000Z</time>
</trkpt>
<trkpt lat="46.1794600" lon="9.4856110">
	<ele>1757.69</ele>
	<time>2023-05-06T12:15:39.000Z</time>
</trkpt>
<trkpt lat="46.1794700" lon="9.4855080">
	<ele>1756.51</ele>
	<time>2023-05-06T12:15:49.000Z</time>
</trkpt>
<trkpt lat="46.1794900" lon="9.4854240">
	<ele>1755.34</ele>
	<time>2023-05-06T12:15:59.000Z</time>
</trkpt>
<trkpt lat="46.1794970" lon="9.4853630">
	<ele>1753.05</ele>
	<time>2023-05-06T12:16:09.000Z</time>
</trkpt>
<trkpt lat="46.1795000" lon="9.4852470">
	<ele>1751.06</ele>
	<time>2023-05-06T12:16:19.000Z</time>
</trkpt>
<trkpt lat="46.1794780" lon="9.4851290">
	<ele>1749.59</ele>
	<time>2023-05-06T12:16:29.000Z</time>
</trkpt>
<trkpt lat="46.1794930" lon="9.4850680">
	<ele>1749.49</ele>
	<time>2023-05-06T12:16:39.000Z</time>
</trkpt>
<trkpt lat="46.1794700" lon="9.4849560">
	<ele>1748.73</ele>
	<time>2023-05-06T12:17:14.000Z</time>
</trkpt>
<trkpt lat="46.1794800" lon="9.4848910">
	<ele>1748.37</ele>
	<time>2023-05-06T12:17:19.000Z</time>
</trkpt>
<trkpt lat="46.1794550" lon="9.4847780">
	<ele>1747.08</ele>
	<time>2023-05-06T12:17:29.000Z</time>
</trkpt>
<trkpt lat="46.1794550" lon="9.4846740">
	<ele>1744.44</ele>
	<time>2023-05-06T12:17:39.000Z</time>
</trkpt>
<trkpt lat="46.1794800" lon="9.4846150">
	<ele>1742.42</ele>
	<time>2023-05-06T12:17:49.000Z</time>
</trkpt>
<trkpt lat="46.1794500" lon="9.4845210">
	<ele>1740.43</ele>
	<time>2023-05-06T12:17:59.000Z</time>
</trkpt>
<trkpt lat="46.1794000" lon="9.4844890">
	<ele>1739.52</ele>
	<time>2023-05-06T12:18:09.000Z</time>
</trkpt>
<trkpt lat="46.1793370" lon="9.4844340">
	<ele>1737.23</ele>
	<time>2023-05-06T12:18:19.000Z</time>
</trkpt>
<trkpt lat="46.1792600" lon="9.4843990">
	<ele>1735.72</ele>
	<time>2023-05-06T12:18:29.000Z</time>
</trkpt>
<trkpt lat="46.1793400" lon="9.4843190">
	<ele>1737.07</ele>
	<time>2023-05-06T12:18:39.000Z</time>
</trkpt>
<trkpt lat="46.1793400" lon="9.4842250">
	<ele>1738.10</ele>
	<time>2023-05-06T12:18:49.000Z</time>
</trkpt>
<trkpt lat="46.1793700" lon="9.4841320">
	<ele>1739.20</ele>
	<time>2023-05-06T12:18:59.000Z</time>
</trkpt>
<trkpt lat="46.1793820" lon="9.4840380">
	<ele>1741.04</ele>
	<time>2023-05-06T12:19:09.000Z</time>
</trkpt>
<trkpt lat="46.1793600" lon="9.4839325">
	<ele>1742.59</ele>
	<time>2023-05-06T12:19:19.000Z</time>
</trkpt>
<trkpt lat="46.1793800" lon="9.4838310">
	<ele>1743.06</ele>
	<time>2023-05-06T12:19:29.000Z</time>
</trkpt>
<trkpt lat="46.1793600" lon="9.4837300">
	<ele>1741.73</ele>
	<time>2023-05-06T12:19:39.000Z</time>
</trkpt>
<trkpt lat="46.1793560" lon="9.4836430">
	<ele>1739.62</ele>
	<time>2023-05-06T12:19:49.000Z</time>
</trkpt>
<trkpt lat="46.1793560" lon="9.4835400">
	<ele>1738.48</ele>
	<time>2023-05-06T12:19:59.000Z</time>
</trkpt>
<trkpt lat="46.1793600" lon="9.4834400">
	<ele>1737.15</ele>
	<time>2023-05-06T12:20:09.000Z</time>
</trkpt>
<trkpt lat="46.1793400" lon="9.4833430">
	<ele>1734.93</ele>
	<time>2023-05-06T12:20:19.000Z</time>
</trkpt>
<trkpt lat="46.1793330" lon="9.4832290">
	<ele>1731.48</ele>
	<time>2023-05-06T12:20:39.000Z</time>
</trkpt>
<trkpt lat="46.1793170" lon="9.4830980">
	<ele>1727.77</ele>
	<time>2023-05-06T12:20:55.000Z</time>
</trkpt>
<trkpt lat="46.1792950" lon="9.4829800">
	<ele>1725.56</ele>
	<time>2023-05-06T12:21:05.000Z</time>
</trkpt>
<trkpt lat="46.1792600" lon="9.4828420">
	<ele>1725.15</ele>
	<time>2023-05-06T12:21:15.000Z</time>
</trkpt>
<trkpt lat="46.1792100" lon="9.4827240">
	<ele>1724.56</ele>
	<time>2023-05-06T12:21:25.000Z</time>
</trkpt>
<trkpt lat="46.1792030" lon="9.4825760">
	<ele>1724.62</ele>
	<time>2023-05-06T12:21:35.000Z</time>
</trkpt>
<trkpt lat="46.1791880" lon="9.4824300">
	<ele>1724.46</ele>
	<time>2023-05-06T12:21:45.000Z</time>
</trkpt>
<trkpt lat="46.1791600" lon="9.4822840">
	<ele>1724.40</ele>
	<time>2023-05-06T12:21:55.000Z</time>
</trkpt>
<trkpt lat="46.1791730" lon="9.4821415">
	<ele>1724.27</ele>
	<time>2023-05-06T12:22:05.000Z</time>
</trkpt>
<trkpt lat="46.1791340" lon="9.4820060">
	<ele>1724.50</ele>
	<time>2023-05-06T12:22:15.000Z</time>
</trkpt>
<trkpt lat="46.1791150" lon="9.4818800">
	<ele>1725.02</ele>
	<time>2023-05-06T12:22:25.000Z</time>
</trkpt>
<trkpt lat="46.1790800" lon="9.4817490">
	<ele>1724.70</ele>
	<time>2023-05-06T12:22:35.000Z</time>
</trkpt>
<trkpt lat="46.1790600" lon="9.4816140">
	<ele>1723.79</ele>
	<time>2023-05-06T12:22:45.000Z</time>
</trkpt>
<trkpt lat="46.1790300" lon="9.4814930">
	<ele>1722.96</ele>
	<time>2023-05-06T12:22:55.000Z</time>
</trkpt>
<trkpt lat="46.1790200" lon="9.4813650">
	<ele>1723.62</ele>
	<time>2023-05-06T12:23:05.000Z</time>
</trkpt>
<trkpt lat="46.1790050" lon="9.4812400">
	<ele>1723.63</ele>
	<time>2023-05-06T12:23:15.000Z</time>
</trkpt>
<trkpt lat="46.1789780" lon="9.4810915">
	<ele>1723.59</ele>
	<time>2023-05-06T12:23:25.000Z</time>
</trkpt>
<trkpt lat="46.1789700" lon="9.4810150">
	<ele>1723.43</ele>
	<time>2023-05-06T12:23:30.000Z</time>
</trkpt>
<trkpt lat="46.1789500" lon="9.4809370">
	<ele>1723.08</ele>
	<time>2023-05-06T12:23:35.000Z</time>
</trkpt>
<trkpt lat="46.1789470" lon="9.4808560">
	<ele>1723.08</ele>
	<time>2023-05-06T12:23:40.000Z</time>
</trkpt>
<trkpt lat="46.1789400" lon="9.4807010">
	<ele>1724.15</ele>
	<time>2023-05-06T12:23:50.000Z</time>
</trkpt>
<trkpt lat="46.1789470" lon="9.4806220">
	<ele>1724.16</ele>
	<time>2023-05-06T12:23:55.000Z</time>
</trkpt>
<trkpt lat="46.1789700" lon="9.4804670">
	<ele>1724.35</ele>
	<time>2023-05-06T12:24:05.000Z</time>
</trkpt>
<trkpt lat="46.1790200" lon="9.4803170">
	<ele>1723.49</ele>
	<time>2023-05-06T12:24:15.000Z</time>
</trkpt>
<trkpt lat="46.1790470" lon="9.4802450">
	<ele>1723.68</ele>
	<time>2023-05-06T12:24:20.000Z</time>
</trkpt>
<trkpt lat="46.1790580" lon="9.4801630">
	<ele>1722.98</ele>
	<time>2023-05-06T12:24:25.000Z</time>
</trkpt>
<trkpt lat="46.1790600" lon="9.4800540">
	<ele>1722.49</ele>
	<time>2023-05-06T12:24:32.000Z</time>
</trkpt>
<trkpt lat="46.1790900" lon="9.4799060">
	<ele>1720.50</ele>
	<time>2023-05-06T12:24:42.000Z</time>
</trkpt>
<trkpt lat="46.1790900" lon="9.4798270">
	<ele>1720.09</ele>
	<time>2023-05-06T12:24:47.000Z</time>
</trkpt>
<trkpt lat="46.1790540" lon="9.4796880">
	<ele>1717.57</ele>
	<time>2023-05-06T12:24:57.000Z</time>
</trkpt>
<trkpt lat="46.1790240" lon="9.4795550">
	<ele>1714.98</ele>
	<time>2023-05-06T12:25:07.000Z</time>
</trkpt>
<trkpt lat="46.1790050" lon="9.4794650">
	<ele>1712.99</ele>
	<time>2023-05-06T12:25:17.000Z</time>
</trkpt>
<trkpt lat="46.1789860" lon="9.4793310">
	<ele>1711.47</ele>
	<time>2023-05-06T12:25:27.000Z</time>
</trkpt>
<trkpt lat="46.1789550" lon="9.4792450">
	<ele>1710.49</ele>
	<time>2023-05-06T12:25:37.000Z</time>
</trkpt>
<trkpt lat="46.1789250" lon="9.4791660">
	<ele>1707.94</ele>
	<time>2023-05-06T12:25:47.000Z</time>
</trkpt>
<trkpt lat="46.1789300" lon="9.4790500">
	<ele>1705.76</ele>
	<time>2023-05-06T12:25:57.000Z</time>
</trkpt>
<trkpt lat="46.1789250" lon="9.4789430">
	<ele>1703.68</ele>
	<time>2023-05-06T12:26:07.000Z</time>
</trkpt>
<trkpt lat="46.1789050" lon="9.4788430">
	<ele>1702.13</ele>
	<time>2023-05-06T12:26:17.000Z</time>
	<extensions>
		<gpxtpx:TrackPointExtension>
			<gpxtpx:hr>124</gpxtpx:hr>
		</gpxtpx:TrackPointExtension>
	</extensions>
</trkpt>
<trkpt lat="46.1789000" lon="9.4787440">
	<ele>1699.80</ele>
	<time>2023-05-06T12:26:27.000Z</time>
</trkpt>
<trkpt lat="46.1789170" lon="9.4786390">
	<ele>1698.15</ele>
	<time>2023-05-06T12:26:37.000Z</time>
</trkpt>
<trkpt lat="46.1788860" lon="9.4785640">
	<ele>1696.13</ele>
	<time>2023-05-06T12:26:47.000Z</time>
</trkpt>
<trkpt lat="46.1788300" lon="9.4784920">
	<ele>1694.74</ele>
	<time>2023-05-06T12:26:56.000Z</time>
</trkpt>
<trkpt lat="46.1787760" lon="9.4783610">
	<ele>1693.55</ele>
	<time>2023-05-06T12:27:07.000Z</time>
</trkpt>
<trkpt lat="46.1787260" lon="9.4782090">
	<ele>1692.49</ele>
	<time>2023-05-06T12:27:17.000Z</time>
	<extensions>
		<gpxtpx:TrackPointExtension>
			<gpxtpx:hr>128</gpxtpx:hr>
		</gpxtpx:TrackPointExtension>
	</extensions>
</trkpt>
<trkpt lat="46.1787070" lon="9.4780655">
	<ele>1692.06</ele>
	<time>2023-05-06T12:27:27.000Z</time>
</trkpt>
<trkpt lat="46.1786840" lon="9.4779340">
	<ele>1691.95</ele>
	<time>2023-05-06T12:27:37.000Z</time>
</trkpt>
<trkpt lat="46.1786500" lon="9.4777930">
	<ele>1691.60</ele>
	<time>2023-05-06T12:27:47.000Z</time>
</trkpt>
<trkpt lat="46.1786080" lon="9.4776750">
	<ele>1690.36</ele>
	<time>2023-05-06T12:27:57.000Z</time>
</trkpt>
<trkpt lat="46.1785700" lon="9.4775620">
	<ele>1690.23</ele>
	<time>2023-05-06T12:28:07.000Z</time>
</trkpt>
<trkpt lat="46.1785400" lon="9.4774420">
	<ele>1690.59</ele>
	<time>2023-05-06T12:28:17.000Z</time>
	<extensions>
		<gpxtpx:TrackPointExtension>
			<gpxtpx:hr>124</gpxtpx:hr>
		</gpxtpx:TrackPointExtension>
	</extensions>
</trkpt>
<trkpt lat="46.1784900" lon="9.4773120">
	<ele>1691.13</ele>
	<time>2023-05-06T12:28:27.000Z</time>
</trkpt>
<trkpt lat="46.1784400" lon="9.4771990">
	<ele>1691.72</ele>
	<time>2023-05-06T12:28:37.000Z</time>
</trkpt>
<trkpt lat="46.1784060" lon="9.4771590">
	<ele>1691.92</ele>
	<time>2023-05-06T12:28:47.000Z</time>
</trkpt>
<trkpt lat="46.1784020" lon="9.4771980">
	<ele>1691.10</ele>
	<time>2023-05-06T12:28:57.000Z</time>
</trkpt>
<trkpt lat="46.1784440" lon="9.4772540">
	<ele>1692.01</ele>
	<time>2023-05-06T12:29:07.000Z</time>
</trkpt>
<trkpt lat="46.1784820" lon="9.4772920">
	<ele>1689.89</ele>
	<time>2023-05-06T12:30:22.000Z</time>
</trkpt>
<trkpt lat="46.1784820" lon="9.4773650">
	<ele>1688.11</ele>
	<time>2023-05-06T12:30:37.000Z</time>
</trkpt>
<trkpt lat="46.1785160" lon="9.4774540">
	<ele>1687.55</ele>
	<time>2023-05-06T12:30:47.000Z</time>
</trkpt>
<trkpt lat="46.1785430" lon="9.4775570">
	<ele>1685.82</ele>
	<time>2023-05-06T12:31:17.000Z</time>
	<extensions>
		<gpxtpx:TrackPointExtension>
			<gpxtpx:hr>75</gpxtpx:hr>
		</gpxtpx:TrackPointExtension>
	</extensions>
</trkpt>
<trkpt lat="46.1785500" lon="9.4776640">
	<ele>1683.93</ele>
	<time>2023-05-06T12:31:27.000Z</time>
</trkpt>
<trkpt lat="46.1785620" lon="9.4777630">
	<ele>1683.23</ele>
	<time>2023-05-06T12:31:37.000Z</time>
</trkpt>
<trkpt lat="46.1785470" lon="9.4778470">
	<ele>1681.39</ele>
	<time>2023-05-06T12:31:47.000Z</time>
</trkpt>
<trkpt lat="46.1785620" lon="9.4779450">
	<ele>1680.79</ele>
	<time>2023-05-06T12:31:56.000Z</time>
</trkpt>
<trkpt lat="46.1785400" lon="9.4780560">
	<ele>1679.30</ele>
	<time>2023-05-06T12:32:07.000Z</time>
</trkpt>
<trkpt lat="46.1785000" lon="9.4781530">
	<ele>1677.52</ele>
	<time>2023-05-06T12:32:17.000Z</time>
</trkpt>
<trkpt lat="46.1784550" lon="9.4782510">
	<ele>1675.17</ele>
	<time>2023-05-06T12:32:27.000Z</time>
</trkpt>
<trkpt lat="46.1784500" lon="9.4783990">
	<ele>1673.42</ele>
	<time>2023-05-06T12:32:37.000Z</time>
</trkpt>
<trkpt lat="46.1784740" lon="9.4785360">
	<ele>1672.87</ele>
	<time>2023-05-06T12:32:47.000Z</time>
</trkpt>
<trkpt lat="46.1784630" lon="9.4786720">
	<ele>1670.80</ele>
	<time>2023-05-06T12:32:57.000Z</time>
</trkpt>
<trkpt lat="46.1784320" lon="9.4788020">
	<ele>1669.24</ele>
	<time>2023-05-06T12:33:07.000Z</time>
</trkpt>
<trkpt lat="46.1783900" lon="9.4789570">
	<ele>1668.10</ele>
	<time>2023-05-06T12:33:17.000Z</time>
</trkpt>
<trkpt lat="46.1784060" lon="9.4790750">
	<ele>1668.53</ele>
	<time>2023-05-06T12:33:27.000Z</time>
</trkpt>
<trkpt lat="46.1783750" lon="9.4791660">
	<ele>1667.28</ele>
	<time>2023-05-06T12:33:37.000Z</time>
</trkpt>
<trkpt lat="46.1783300" lon="9.4792360">
	<ele>1665.64</ele>
	<time>2023-05-06T12:33:47.000Z</time>
</trkpt>
<trkpt lat="46.1782880" lon="9.4793140">
	<ele>1661.77</ele>
	<time>2023-05-06T12:34:02.000Z</time>
</trkpt>
<trkpt lat="46.1782700" lon="9.4793450">
	<ele>1660.76</ele>
	<time>2023-05-06T12:34:07.000Z</time>
</trkpt>
<trkpt lat="46.1782380" lon="9.4794235">
	<ele>1658.74</ele>
	<time>2023-05-06T12:34:17.000Z</time>
</trkpt>
<trkpt lat="46.1781770" lon="9.4795150">
	<ele>1657.41</ele>
	<time>2023-05-06T12:34:27.000Z</time>
</trkpt>
<trkpt lat="46.1780930" lon="9.4795670">
	<ele>1657.06</ele>
	<time>2023-05-06T12:34:37.000Z</time>
</trkpt>
<trkpt lat="46.1779940" lon="9.4795920">
	<ele>1656.25</ele>
	<time>2023-05-06T12:34:47.000Z</time>
</trkpt>
<trkpt lat="46.1779400" lon="9.4796890">
	<ele>1654.88</ele>
	<time>2023-05-06T12:34:57.000Z</time>
</trkpt>
<trkpt lat="46.1779020" lon="9.4797870">
	<ele>1652.66</ele>
	<time>2023-05-06T12:35:07.000Z</time>
</trkpt>
<trkpt lat="46.1778640" lon="9.4798910">
	<ele>1650.82</ele>
	<time>2023-05-06T12:35:17.000Z</time>
	<extensions>
		<gpxtpx:TrackPointExtension>
			<gpxtpx:hr>80</gpxtpx:hr>
		</gpxtpx:TrackPointExtension>
	</extensions>
</trkpt>
<trkpt lat="46.1778530" lon="9.4799910">
	<ele>1651.87</ele>
	<time>2023-05-06T12:35:27.000Z</time>
</trkpt>
<trkpt lat="46.1778370" lon="9.4801010">
	<ele>1650.80</ele>
	<time>2023-05-06T12:35:37.000Z</time>
</trkpt>
<trkpt lat="46.1778140" lon="9.4801950">
	<ele>1650.60</ele>
	<time>2023-05-06T12:35:47.000Z</time>
</trkpt>
<trkpt lat="46.1778100" lon="9.4803170">
	<ele>1649.92</ele>
	<time>2023-05-06T12:36:22.000Z</time>
</trkpt>
<trkpt lat="46.1777900" lon="9.4803680">
	<ele>1648.57</ele>
	<time>2023-05-06T12:36:27.000Z</time>
</trkpt>
<trkpt lat="46.1777570" lon="9.4804450">
	<ele>1646.73</ele>
	<time>2023-05-06T12:36:37.000Z</time>
</trkpt>
<trkpt lat="46.1777500" lon="9.4805350">
	<ele>1644.32</ele>
	<time>2023-05-06T12:36:47.000Z</time>
</trkpt>
<trkpt lat="46.1777650" lon="9.4806440">
	<ele>1643.04</ele>
	<time>2023-05-06T12:36:57.000Z</time>
</trkpt>
<trkpt lat="46.1777880" lon="9.4807580">
	<ele>1640.65</ele>
	<time>2023-05-06T12:37:07.000Z</time>
</trkpt>
<trkpt lat="46.1777900" lon="9.4808420">
	<ele>1639.98</ele>
	<time>2023-05-06T12:37:12.000Z</time>
</trkpt>
<trkpt lat="46.1777760" lon="9.4809680">
	<ele>1637.31</ele>
	<time>2023-05-06T12:37:22.000Z</time>
</trkpt>
<trkpt lat="46.1777650" lon="9.4810390">
	<ele>1637.39</ele>
	<time>2023-05-06T12:37:27.000Z</time>
</trkpt>
<trkpt lat="46.1777530" lon="9.4811350">
	<ele>1637.08</ele>
	<time>2023-05-06T12:37:37.000Z</time>
</trkpt>
<trkpt lat="46.1777840" lon="9.4812760">
	<ele>1637.62</ele>
	<time>2023-05-06T12:37:47.000Z</time>
</trkpt>
<trkpt lat="46.1778000" lon="9.4813630">
	<ele>1633.26</ele>
	<time>2023-05-06T12:37:57.000Z</time>
</trkpt>
<trkpt lat="46.1778070" lon="9.4814940">
	<ele>1634.85</ele>
	<time>2023-05-06T12:38:07.000Z</time>
</trkpt>
<trkpt lat="46.1778070" lon="9.4815900">
	<ele>1635.77</ele>
	<time>2023-05-06T12:38:17.000Z</time>
	<extensions>
		<gpxtpx:TrackPointExtension>
			<gpxtpx:hr>112</gpxtpx:hr>
		</gpxtpx:TrackPointExtension>
	</extensions>
</trkpt>
<trkpt lat="46.1778000" lon="9.4816720">
	<ele>1633.93</ele>
	<time>2023-05-06T12:38:27.000Z</time>
</trkpt>
<trkpt lat="46.1777700" lon="9.4817780">
	<ele>1631.66</ele>
	<time>2023-05-06T12:38:37.000Z</time>
</trkpt>
<trkpt lat="46.1777500" lon="9.4818600">
	<ele>1630.75</ele>
	<time>2023-05-06T12:38:47.000Z</time>
</trkpt>
<trkpt lat="46.1777080" lon="9.4819740">
	<ele>1628.52</ele>
	<time>2023-05-06T12:38:57.000Z</time>
</trkpt>
<trkpt lat="46.1776800" lon="9.4820420">
	<ele>1627.81</ele>
	<time>2023-05-06T12:39:02.000Z</time>
</trkpt>
<trkpt lat="46.1776500" lon="9.4820930">
	<ele>1627.56</ele>
	<time>2023-05-06T12:39:07.000Z</time>
</trkpt>
<trkpt lat="46.1776050" lon="9.4821910">
	<ele>1626.35</ele>
	<time>2023-05-06T12:39:17.000Z</time>
	<extensions>
		<gpxtpx:TrackPointExtension>
			<gpxtpx:hr>118</gpxtpx:hr>
		</gpxtpx:TrackPointExtension>
	</extensions>
</trkpt>
<trkpt lat="46.1775900" lon="9.4822930">
	<ele>1623.98</ele>
	<time>2023-05-06T12:39:27.000Z</time>
</trkpt>
<trkpt lat="46.1776200" lon="9.4824160">
	<ele>1623.38</ele>
	<time>2023-05-06T12:39:37.000Z</time>
</trkpt>
<trkpt lat="46.1776470" lon="9.4824670">
	<ele>1622.52</ele>
	<time>2023-05-06T12:39:42.000Z</time>
</trkpt>
<trkpt lat="46.1776900" lon="9.4824890">
	<ele>1622.54</ele>
	<time>2023-05-06T12:39:47.000Z</time>
</trkpt>
<trkpt lat="46.1777700" lon="9.4825320">
	<ele>1621.30</ele>
	<time>2023-05-06T12:39:57.000Z</time>
</trkpt>
<trkpt lat="46.1778220" lon="9.4826120">
	<ele>1619.22</ele>
	<time>2023-05-06T12:40:07.000Z</time>
</trkpt>
<trkpt lat="46.1777840" lon="9.4826730">
	<ele>1616.97</ele>
	<time>2023-05-06T12:40:17.000Z</time>
	<extensions>
		<gpxtpx:TrackPointExtension>
			<gpxtpx:hr>120</gpxtpx:hr>
		</gpxtpx:TrackPointExtension>
	</extensions>
</trkpt>
<trkpt lat="46.1777040" lon="9.4826590">
	<ele>1614.50</ele>
	<time>2023-05-06T12:40:27.000Z</time>
</trkpt>
<trkpt lat="46.1777530" lon="9.4827490">
	<ele>1612.07</ele>
	<time>2023-05-06T12:40:37.000Z</time>
</trkpt>
<trkpt lat="46.1777880" lon="9.4828400">
	<ele>1609.58</ele>
	<time>2023-05-06T12:40:47.000Z</time>
</trkpt>
<trkpt lat="46.1777530" lon="9.4828640">
	<ele>1607.04</ele>
	<time>2023-05-06T12:40:57.000Z</time>
</trkpt>
<trkpt lat="46.1776800" lon="9.4828450">
	<ele>1604.23</ele>
	<time>2023-05-06T12:41:07.000Z</time>
</trkpt>
<trkpt lat="46.1776160" lon="9.4828080">
	<ele>1601.90</ele>
	<time>2023-05-06T12:41:17.000Z</time>
	<extensions>
		<gpxtpx:TrackPointExtension>
			<gpxtpx:hr>131</gpxtpx:hr>
		</gpxtpx:TrackPointExtension>
	</extensions>
</trkpt>
<trkpt lat="46.1775630" lon="9.4828030">
	<ele>1599.86</ele>
	<time>2023-05-06T12:41:27.000Z</time>
</trkpt>
<trkpt lat="46.1775860" lon="9.4829090">
	<ele>1597.72</ele>
	<time>2023-05-06T12:41:37.000Z</time>
</trkpt>
<trkpt lat="46.1776160" lon="9.4830070">
	<ele>1596.28</ele>
	<time>2023-05-06T12:41:47.000Z</time>
</trkpt>
<trkpt lat="46.1775630" lon="9.4829600">
	<ele>1594.00</ele>
	<time>2023-05-06T12:41:57.000Z</time>
</trkpt>
<trkpt lat="46.1774940" lon="9.4829010">
	<ele>1591.14</ele>
	<time>2023-05-06T12:42:07.000Z</time>
</trkpt>
<trkpt lat="46.1774600" lon="9.4829270">
	<ele>1589.56</ele>
	<time>2023-05-06T12:42:17.000Z</time>
</trkpt>
<trkpt lat="46.1775200" lon="9.4830240">
	<ele>1587.04</ele>
	<time>2023-05-06T12:42:27.000Z</time>
</trkpt>
<trkpt lat="46.1775630" lon="9.4831450">
	<ele>1585.30</ele>
	<time>2023-05-06T12:42:37.000Z</time>
</trkpt>
<trkpt lat="46.1775860" lon="9.4831970">
	<ele>1584.64</ele>
	<time>2023-05-06T12:42:42.000Z</time>
</trkpt>
<trkpt lat="46.1775630" lon="9.4832200">
	<ele>1583.20</ele>
	<time>2023-05-06T12:42:47.000Z</time>
</trkpt>
<trkpt lat="46.1775130" lon="9.4831790">
	<ele>1581.75</ele>
	<time>2023-05-06T12:42:52.000Z</time>
</trkpt>
<trkpt lat="46.1774800" lon="9.4831030">
	<ele>1581.52</ele>
	<time>2023-05-06T12:42:57.000Z</time>
</trkpt>
<trkpt lat="46.1774020" lon="9.4830270">
	<ele>1580.59</ele>
	<time>2023-05-06T12:43:07.000Z</time>
</trkpt>
<trkpt lat="46.1773530" lon="9.4829970">
	<ele>1578.23</ele>
	<time>2023-05-06T12:43:17.000Z</time>
</trkpt>
<trkpt lat="46.1773260" lon="9.4830700">
	<ele>1575.83</ele>
	<time>2023-05-06T12:43:27.000Z</time>
</trkpt>
<trkpt lat="46.1772770" lon="9.4830670">
	<ele>1574.00</ele>
	<time>2023-05-06T12:43:37.000Z</time>
</trkpt>
<trkpt lat="46.1773200" lon="9.4831630">
	<ele>1571.21</ele>
	<time>2023-05-06T12:43:47.000Z</time>
</trkpt>
<trkpt lat="46.1773720" lon="9.4832780">
	<ele>1568.70</ele>
	<time>2023-05-06T12:43:57.000Z</time>
</trkpt>
<trkpt lat="46.1774020" lon="9.4833930">
	<ele>1567.46</ele>
	<time>2023-05-06T12:44:07.000Z</time>
</trkpt>
<trkpt lat="46.1773830" lon="9.4835060">
	<ele>1564.06</ele>
	<time>2023-05-06T12:44:17.000Z</time>
	<extensions>
		<gpxtpx:TrackPointExtension>
			<gpxtpx:hr>130</gpxtpx:hr>
		</gpxtpx:TrackPointExtension>
	</extensions>
</trkpt>
<trkpt lat="46.1773720" lon="9.4835980">
	<ele>1562.09</ele>
	<time>2023-05-06T12:44:24.000Z</time>
</trkpt>
<trkpt lat="46.1773530" lon="9.4837260">
	<ele>1561.10</ele>
	<time>2023-05-06T12:44:33.000Z</time>
</trkpt>
<trkpt lat="46.1773500" lon="9.4838160">
	<ele>1559.46</ele>
	<time>2023-05-06T12:44:43.000Z</time>
</trkpt>
<trkpt lat="46.1773030" lon="9.4838870">
	<ele>1556.64</ele>
	<time>2023-05-06T12:44:53.000Z</time>
</trkpt>
<trkpt lat="46.1772960" lon="9.4840010">
	<ele>1555.77</ele>
	<time>2023-05-06T12:45:03.000Z</time>
</trkpt>
<trkpt lat="46.1772730" lon="9.4841370">
	<ele>1553.38</ele>
	<time>2023-05-06T12:45:13.000Z</time>
</trkpt>
<trkpt lat="46.1772400" lon="9.4842190">
	<ele>1552.59</ele>
	<time>2023-05-06T12:45:23.000Z</time>
</trkpt>
<trkpt lat="46.1772460" lon="9.4843310">
	<ele>1550.94</ele>
	<time>2023-05-06T12:45:33.000Z</time>
</trkpt>
<trkpt lat="46.1772080" lon="9.4844230">
	<ele>1549.08</ele>
	<time>2023-05-06T12:45:43.000Z</time>
</trkpt>
<trkpt lat="46.1771930" lon="9.4845060">
	<ele>1547.99</ele>
	<time>2023-05-06T12:45:53.000Z</time>
</trkpt>
<trkpt lat="46.1771500" lon="9.4845560">
	<ele>1545.91</ele>
	<time>2023-05-06T12:46:03.000Z</time>
</trkpt>
<trkpt lat="46.1771350" lon="9.4846470">
	<ele>1544.57</ele>
	<time>2023-05-06T12:46:13.000Z</time>
</trkpt>
<trkpt lat="46.1770940" lon="9.4847650">
	<ele>1542.45</ele>
	<time>2023-05-06T12:46:23.000Z</time>
</trkpt>
<trkpt lat="46.1770630" lon="9.4848580">
	<ele>1541.82</ele>
	<time>2023-05-06T12:46:33.000Z</time>
</trkpt>
<trkpt lat="46.1770000" lon="9.4849310">
	<ele>1540.43</ele>
	<time>2023-05-06T12:46:43.000Z</time>
</trkpt>
<trkpt lat="46.1769600" lon="9.4850310">
	<ele>1538.46</ele>
	<time>2023-05-06T12:46:53.000Z</time>
</trkpt>
<trkpt lat="46.1769200" lon="9.4850980">
	<ele>1535.94</ele>
	<time>2023-05-06T12:47:03.000Z</time>
</trkpt>
<trkpt lat="46.1768950" lon="9.4851790">
	<ele>1533.67</ele>
	<time>2023-05-06T12:47:13.000Z</time>
</trkpt>
<trkpt lat="46.1768530" lon="9.4852630">
	<ele>1532.41</ele>
	<time>2023-05-06T12:47:23.000Z</time>
</trkpt>
<trkpt lat="46.1768300" lon="9.4853830">
	<ele>1532.74</ele>
	<time>2023-05-06T12:47:33.000Z</time>
</trkpt>
<trkpt lat="46.1768000" lon="9.4854900">
	<ele>1532.08</ele>
	<time>2023-05-06T12:47:43.000Z</time>
</trkpt>
<trkpt lat="46.1767500" lon="9.4855970">
	<ele>1530.34</ele>
	<time>2023-05-06T12:47:54.000Z</time>
</trkpt>
<trkpt lat="46.1767100" lon="9.4856930">
	<ele>1529.25</ele>
	<time>2023-05-06T12:48:04.000Z</time>
</trkpt>
<trkpt lat="46.1766500" lon="9.4857410">
	<ele>1526.62</ele>
	<time>2023-05-06T12:48:14.000Z</time>
</trkpt>
<trkpt lat="46.1766000" lon="9.4858465">
	<ele>1525.46</ele>
	<time>2023-05-06T12:48:24.000Z</time>
</trkpt>
<trkpt lat="46.1765750" lon="9.4859660">
	<ele>1525.53</ele>
	<time>2023-05-06T12:48:34.000Z</time>
</trkpt>
<trkpt lat="46.1765370" lon="9.4860810">
	<ele>1524.59</ele>
	<time>2023-05-06T12:48:44.000Z</time>
</trkpt>
<trkpt lat="46.1765300" lon="9.4862100">
	<ele>1524.06</ele>
	<time>2023-05-06T12:48:54.000Z</time>
</trkpt>
<trkpt lat="46.1764600" lon="9.4862610">
	<ele>1522.21</ele>
	<time>2023-05-06T12:49:04.000Z</time>
</trkpt>
<trkpt lat="46.1764030" lon="9.4863440">
	<ele>1520.13</ele>
	<time>2023-05-06T12:49:14.000Z</time>
</trkpt>
<trkpt lat="46.1763420" lon="9.4863830">
	<ele>1517.40</ele>
	<time>2023-05-06T12:49:24.000Z</time>
</trkpt>
<trkpt lat="46.1762900" lon="9.4864600">
	<ele>1515.05</ele>
	<time>2023-05-06T12:49:34.000Z</time>
</trkpt>
<trkpt lat="46.1762430" lon="9.4865560">
	<ele>1513.42</ele>
	<time>2023-05-06T12:49:44.000Z</time>
</trkpt>
<trkpt lat="46.1761740" lon="9.4865970">
	<ele>1511.63</ele>
	<time>2023-05-06T12:49:54.000Z</time>
</trkpt>
<trkpt lat="46.1761050" lon="9.4866590">
	<ele>1510.21</ele>
	<time>2023-05-06T12:50:04.000Z</time>
</trkpt>
<trkpt lat="46.1760180" lon="9.4867200">
	<ele>1509.21</ele>
	<time>2023-05-06T12:50:14.000Z</time>
</trkpt>
<trkpt lat="46.1759400" lon="9.4867950">
	<ele>1508.17</ele>
	<time>2023-05-06T12:50:24.000Z</time>
</trkpt>
<trkpt lat="46.1758880" lon="9.4868180">
	<ele>1507.15</ele>
	<time>2023-05-06T12:50:34.000Z</time>
</trkpt>
<trkpt lat="46.1757900" lon="9.4868660">
	<ele>1507.26</ele>
	<time>2023-05-06T12:50:44.000Z</time>
</trkpt>
<trkpt lat="46.1756900" lon="9.4869230">
	<ele>1508.41</ele>
	<time>2023-05-06T12:50:54.000Z</time>
</trkpt>
<trkpt lat="46.1756360" lon="9.4869410">
	<ele>1509.02</ele>
	<time>2023-05-06T12:50:59.000Z</time>
</trkpt>
<trkpt lat="46.1755800" lon="9.4869560">
	<ele>1508.90</ele>
	<time>2023-05-06T12:51:04.000Z</time>
</trkpt>
<trkpt lat="46.1754760" lon="9.4869600">
	<ele>1509.79</ele>
	<time>2023-05-06T12:51:14.000Z</time>
</trkpt>
<trkpt lat="46.1753800" lon="9.4869930">
	<ele>1511.26</ele>
	<time>2023-05-06T12:51:24.000Z</time>
</trkpt>
<trkpt lat="46.1752850" lon="9.4870210">
	<ele>1512.10</ele>
	<time>2023-05-06T12:51:34.000Z</time>
</trkpt>
<trkpt lat="46.1752000" lon="9.4870310">
	<ele>1513.07</ele>
	<time>2023-05-06T12:51:44.000Z</time>
</trkpt>
<trkpt lat="46.1751170" lon="9.4870140">
	<ele>1512.37</ele>
	<time>2023-05-06T12:51:54.000Z</time>
</trkpt>
<trkpt lat="46.1750220" lon="9.4870380">
	<ele>1512.23</ele>
	<time>2023-05-06T12:52:04.000Z</time>
</trkpt>
<trkpt lat="46.1749650" lon="9.4871360">
	<ele>1513.87</ele>
	<time>2023-05-06T12:52:14.000Z</time>
</trkpt>
<trkpt lat="46.1749300" lon="9.4872710">
	<ele>1513.57</ele>
	<time>2023-05-06T12:52:24.000Z</time>
</trkpt>
<trkpt lat="46.1749200" lon="9.4874070">
	<ele>1513.19</ele>
	<time>2023-05-06T12:52:34.000Z</time>
</trkpt>
<trkpt lat="46.1749340" lon="9.4875390">
	<ele>1513.88</ele>
	<time>2023-05-06T12:52:44.000Z</time>
</trkpt>
<trkpt lat="46.1749150" lon="9.4876690">
	<ele>1513.35</ele>
	<time>2023-05-06T12:52:54.000Z</time>
</trkpt>
<trkpt lat="46.1748920" lon="9.4877200">
	<ele>1511.22</ele>
	<time>2023-05-06T12:53:04.000Z</time>
</trkpt>
<trkpt lat="46.1749150" lon="9.4878025">
	<ele>1511.58</ele>
	<time>2023-05-06T12:53:25.000Z</time>
</trkpt>
<trkpt lat="46.1749500" lon="9.4878710">
	<ele>1510.51</ele>
	<time>2023-05-06T12:53:30.000Z</time>
</trkpt>
<trkpt lat="46.1749840" lon="9.4879340">
	<ele>1509.64</ele>
	<time>2023-05-06T12:53:35.000Z</time>
</trkpt>
<trkpt lat="46.1750000" lon="9.4880670">
	<ele>1507.99</ele>
	<time>2023-05-06T12:53:45.000Z</time>
</trkpt>
<trkpt lat="46.1749760" lon="9.4881760">
	<ele>1507.61</ele>
	<time>2023-05-06T12:53:55.000Z</time>
</trkpt>
<trkpt lat="46.1749400" lon="9.4883120">
	<ele>1507.76</ele>
	<time>2023-05-06T12:54:05.000Z</time>
	<extensions>
		<gpxtpx:TrackPointExtension>
			<gpxtpx:hr>93</gpxtpx:hr>
		</gpxtpx:TrackPointExtension>
	</extensions>
</trkpt>
<trkpt lat="46.1749040" lon="9.4884410">
	<ele>1508.32</ele>
	<time>2023-05-06T12:54:15.000Z</time>
</trkpt>
<trkpt lat="46.1749040" lon="9.4885890">
	<ele>1510.22</ele>
	<time>2023-05-06T12:54:25.000Z</time>
</trkpt>
<trkpt lat="46.1749270" lon="9.4887030">
	<ele>1512.63</ele>
	<time>2023-05-06T12:54:35.000Z</time>
</trkpt>
<trkpt lat="46.1749340" lon="9.4887900">
	<ele>1512.23</ele>
	<time>2023-05-06T12:55:25.000Z</time>
</trkpt>
<trkpt lat="46.1749600" lon="9.4888720">
	<ele>1512.33</ele>
	<time>2023-05-06T12:55:30.000Z</time>
</trkpt>
<trkpt lat="46.1749650" lon="9.4889850">
	<ele>1511.54</ele>
	<time>2023-05-06T12:55:40.000Z</time>
</trkpt>
<trkpt lat="46.1749530" lon="9.4890830">
	<ele>1510.25</ele>
	<time>2023-05-06T12:56:01.000Z</time>
</trkpt>
<trkpt lat="46.1749600" lon="9.4891430">
	<ele>1510.89</ele>
	<time>2023-05-06T12:56:06.000Z</time>
</trkpt>
<trkpt lat="46.1749880" lon="9.4892520">
	<ele>1511.76</ele>
	<time>2023-05-06T12:56:16.000Z</time>
</trkpt>
<trkpt lat="46.1749650" lon="9.4893860">
	<ele>1510.74</ele>
	<time>2023-05-06T12:56:26.000Z</time>
</trkpt>
<trkpt lat="46.1749700" lon="9.4895360">
	<ele>1509.76</ele>
	<time>2023-05-06T12:56:36.000Z</time>
</trkpt>
<trkpt lat="46.1750100" lon="9.4896640">
	<ele>1509.30</ele>
	<time>2023-05-06T12:56:46.000Z</time>
</trkpt>
<trkpt lat="46.1750260" lon="9.4898000">
	<ele>1506.45</ele>
	<time>2023-05-06T12:56:56.000Z</time>
</trkpt>
<trkpt lat="46.1750260" lon="9.4899390">
	<ele>1503.46</ele>
	<time>2023-05-06T12:57:06.000Z</time>
</trkpt>
<trkpt lat="46.1750400" lon="9.4900620">
	<ele>1501.90</ele>
	<time>2023-05-06T12:57:16.000Z</time>
</trkpt>
<trkpt lat="46.1750300" lon="9.4902140">
	<ele>1500.62</ele>
	<time>2023-05-06T12:57:26.000Z</time>
</trkpt>
<trkpt lat="46.1750340" lon="9.4903570">
	<ele>1501.22</ele>
	<time>2023-05-06T12:57:36.000Z</time>
</trkpt>
<trkpt lat="46.1750560" lon="9.4905050">
	<ele>1499.79</ele>
	<time>2023-05-06T12:57:46.000Z</time>
</trkpt>
<trkpt lat="46.1750680" lon="9.4906400">
	<ele>1497.47</ele>
	<time>2023-05-06T12:57:56.000Z</time>
</trkpt>
<trkpt lat="46.1750700" lon="9.4907690">
	<ele>1494.74</ele>
	<time>2023-05-06T12:58:06.000Z</time>
</trkpt>
<trkpt lat="46.1750950" lon="9.4908390">
	<ele>1492.19</ele>
	<time>2023-05-06T12:58:16.000Z</time>
</trkpt>
<trkpt lat="46.1751020" lon="9.4909060">
	<ele>1490.03</ele>
	<time>2023-05-06T12:58:26.000Z</time>
</trkpt>
<trkpt lat="46.1750030" lon="9.4909150">
	<ele>1486.89</ele>
	<time>2023-05-06T12:58:36.000Z</time>
</trkpt>
<trkpt lat="46.1749950" lon="9.4910100">
	<ele>1484.50</ele>
	<time>2023-05-06T12:58:46.000Z</time>
</trkpt>
<trkpt lat="46.1749460" lon="9.4910890">
	<ele>1481.80</ele>
	<time>2023-05-06T12:58:56.000Z</time>
</trkpt>
<trkpt lat="46.1748660" lon="9.4911500">
	<ele>1479.82</ele>
	<time>2023-05-06T12:59:06.000Z</time>
</trkpt>
<trkpt lat="46.1748000" lon="9.4912560">
	<ele>1479.03</ele>
	<time>2023-05-06T12:59:16.000Z</time>
</trkpt>
<trkpt lat="46.1747300" lon="9.4913320">
	<ele>1476.72</ele>
	<time>2023-05-06T12:59:26.000Z</time>
</trkpt>
<trkpt lat="46.1746560" lon="9.4914460">
	<ele>1475.68</ele>
	<time>2023-05-06T12:59:36.000Z</time>
</trkpt>
<trkpt lat="46.1746180" lon="9.4914920">
	<ele>1474.72</ele>
	<time>2023-05-06T12:59:41.000Z</time>
</trkpt>
<trkpt lat="46.1745830" lon="9.4915270">
	<ele>1474.08</ele>
	<time>2023-05-06T12:59:46.000Z</time>
</trkpt>
<trkpt lat="46.1745220" lon="9.4916220">
	<ele>1472.32</ele>
	<time>2023-05-06T12:59:56.000Z</time>
</trkpt>
<trkpt lat="46.1744500" lon="9.4917120">
	<ele>1471.05</ele>
	<time>2023-05-06T13:00:06.000Z</time>
</trkpt>
<trkpt lat="46.1744270" lon="9.4918380">
	<ele>1470.02</ele>
	<time>2023-05-06T13:00:16.000Z</time>
</trkpt>
<trkpt lat="46.1744100" lon="9.4919780">
	<ele>1468.67</ele>
	<time>2023-05-06T13:00:26.000Z</time>
</trkpt>
<trkpt lat="46.1743500" lon="9.4920730">
	<ele>1466.39</ele>
	<time>2023-05-06T13:00:36.000Z</time>
</trkpt>
<trkpt lat="46.1742800" lon="9.4921210">
	<ele>1464.11</ele>
	<time>2023-05-06T13:00:46.000Z</time>
</trkpt>
<trkpt lat="46.1741870" lon="9.4921370">
	<ele>1461.88</ele>
	<time>2023-05-06T13:00:56.000Z</time>
</trkpt>
<trkpt lat="46.1741100" lon="9.4921750">
	<ele>1459.44</ele>
	<time>2023-05-06T13:01:06.000Z</time>
</trkpt>
<trkpt lat="46.1740400" lon="9.4922170">
	<ele>1457.33</ele>
	<time>2023-05-06T13:01:16.000Z</time>
</trkpt>
<trkpt lat="46.1739700" lon="9.4922730">
	<ele>1455.63</ele>
	<time>2023-05-06T13:01:26.000Z</time>
</trkpt>
<trkpt lat="46.1739000" lon="9.4923280">
	<ele>1454.03</ele>
	<time>2023-05-06T13:01:36.000Z</time>
</trkpt>
<trkpt lat="46.1738360" lon="9.4923680">
	<ele>1451.94</ele>
	<time>2023-05-06T13:01:46.000Z</time>
</trkpt>
<trkpt lat="46.1737820" lon="9.4924250">
	<ele>1449.76</ele>
	<time>2023-05-06T13:01:56.000Z</time>
</trkpt>
<trkpt lat="46.1737480" lon="9.4925070">
	<ele>1447.52</ele>
	<time>2023-05-06T13:02:06.000Z</time>
</trkpt>
<trkpt lat="46.1737100" lon="9.4925950">
	<ele>1445.65</ele>
	<time>2023-05-06T13:02:16.000Z</time>
</trkpt>
<trkpt lat="46.1736830" lon="9.4926510">
	<ele>1443.82</ele>
	<time>2023-05-06T13:02:23.000Z</time>
</trkpt>
<trkpt lat="46.1736450" lon="9.4926000">
	<ele>1441.26</ele>
	<time>2023-05-06T13:02:31.000Z</time>
</trkpt>
<trkpt lat="46.1736220" lon="9.4925320">
	<ele>1440.42</ele>
	<time>2023-05-06T13:02:36.000Z</time>
</trkpt>
<trkpt lat="46.1736100" lon="9.4924210">
	<ele>1439.02</ele>
	<time>2023-05-06T13:02:44.000Z</time>
</trkpt>
<trkpt lat="46.1735800" lon="9.4923480">
	<ele>1436.78</ele>
	<time>2023-05-06T13:02:54.000Z</time>
</trkpt>
<trkpt lat="46.1735600" lon="9.4922560">
	<ele>1434.22</ele>
	<time>2023-05-06T13:03:04.000Z</time>
</trkpt>
<trkpt lat="46.1735230" lon="9.4923390">
	<ele>1432.37</ele>
	<time>2023-05-06T13:03:14.000Z</time>
</trkpt>
<trkpt lat="46.1734960" lon="9.4924660">
	<ele>1430.67</ele>
	<time>2023-05-06T13:03:24.000Z</time>
</trkpt>
<trkpt lat="46.1734620" lon="9.4924060">
	<ele>1428.26</ele>
	<time>2023-05-06T13:03:34.000Z</time>
</trkpt>
<trkpt lat="46.1734160" lon="9.4923020">
	<ele>1426.22</ele>
	<time>2023-05-06T13:03:44.000Z</time>
</trkpt>
<trkpt lat="46.1733900" lon="9.4922070">
	<ele>1423.66</ele>
	<time>2023-05-06T13:03:54.000Z</time>
</trkpt>
<trkpt lat="46.1733670" lon="9.4921110">
	<ele>1421.49</ele>
	<time>2023-05-06T13:04:04.000Z</time>
</trkpt>
<trkpt lat="46.1733320" lon="9.4921090">
	<ele>1418.68</ele>
	<time>2023-05-06T13:04:14.000Z</time>
</trkpt>
<trkpt lat="46.1732860" lon="9.4921520">
	<ele>1416.83</ele>
	<time>2023-05-06T13:04:24.000Z</time>
</trkpt>
<trkpt lat="46.1732370" lon="9.4921470">
	<ele>1414.45</ele>
	<time>2023-05-06T13:04:34.000Z</time>
</trkpt>
<trkpt lat="46.1731950" lon="9.4920880">
	<ele>1412.20</ele>
	<time>2023-05-06T13:04:44.000Z</time>
</trkpt>
<trkpt lat="46.1731700" lon="9.4920120">
	<ele>1409.33</ele>
	<time>2023-05-06T13:04:54.000Z</time>
</trkpt>
<trkpt lat="46.1731220" lon="9.4919330">
	<ele>1407.19</ele>
	<time>2023-05-06T13:05:04.000Z</time>
</trkpt>
<trkpt lat="46.1730650" lon="9.4918680">
	<ele>1404.80</ele>
	<time>2023-05-06T13:05:14.000Z</time>
</trkpt>
<trkpt lat="46.1730230" lon="9.4918375">
	<ele>1404.27</ele>
	<time>2023-05-06T13:05:38.000Z</time>
</trkpt>
<trkpt lat="46.1729740" lon="9.4918210">
	<ele>1400.44</ele>
	<time>2023-05-06T13:06:53.000Z</time>
</trkpt>
<trkpt lat="46.1729280" lon="9.4917590">
	<ele>1397.56</ele>
	<time>2023-05-06T13:07:03.000Z</time>
</trkpt>
<trkpt lat="46.1729100" lon="9.4916460">
	<ele>1395.09</ele>
	<time>2023-05-06T13:07:13.000Z</time>
</trkpt>
<trkpt lat="46.1728940" lon="9.4915905">
	<ele>1393.76</ele>
	<time>2023-05-06T13:07:18.000Z</time>
</trkpt>
<trkpt lat="46.1728600" lon="9.4915580">
	<ele>1391.53</ele>
	<time>2023-05-06T13:07:28.000Z</time>
</trkpt>
<trkpt lat="46.1728020" lon="9.4916380">
	<ele>1389.31</ele>
	<time>2023-05-06T13:07:38.000Z</time>
</trkpt>
<trkpt lat="46.1727400" lon="9.4917280">
	<ele>1387.08</ele>
	<time>2023-05-06T13:07:48.000Z</time>
</trkpt>
<trkpt lat="46.1727000" lon="9.4918200">
	<ele>1385.05</ele>
	<time>2023-05-06T13:07:57.000Z</time>
</trkpt>
<trkpt lat="46.1726700" lon="9.4918570">
	<ele>1383.88</ele>
	<time>2023-05-06T13:08:03.000Z</time>
</trkpt>
<trkpt lat="46.1726530" lon="9.4918375">
	<ele>1383.57</ele>
	<time>2023-05-06T13:08:23.000Z</time>
</trkpt>
<trkpt lat="46.1726150" lon="9.4918650">
	<ele>1380.93</ele>
	<time>2023-05-06T13:09:03.000Z</time>
</trkpt>
<trkpt lat="46.1725580" lon="9.4918570">
	<ele>1378.10</ele>
	<time>2023-05-06T13:09:13.000Z</time>
</trkpt>
<trkpt lat="46.1725230" lon="9.4918800">
	<ele>1376.48</ele>
	<time>2023-05-06T13:09:18.000Z</time>
</trkpt>
<trkpt lat="46.1724660" lon="9.4919750">
	<ele>1373.55</ele>
	<time>2023-05-06T13:09:28.000Z</time>
</trkpt>
<trkpt lat="46.1724320" lon="9.4920790">
	<ele>1370.96</ele>
	<time>2023-05-06T13:09:38.000Z</time>
</trkpt>
<trkpt lat="46.1724130" lon="9.4921940">
	<ele>1368.56</ele>
	<time>2023-05-06T13:09:48.000Z</time>
</trkpt>
<trkpt lat="46.1724130" lon="9.4923210">
	<ele>1366.54</ele>
	<time>2023-05-06T13:09:58.000Z</time>
</trkpt>
<trkpt lat="46.1723860" lon="9.4924360">
	<ele>1364.25</ele>
	<time>2023-05-06T13:10:08.000Z</time>
</trkpt>
<trkpt lat="46.1723330" lon="9.4924520">
	<ele>1361.73</ele>
	<time>2023-05-06T13:10:18.000Z</time>
</trkpt>
<trkpt lat="46.1722870" lon="9.4925380">
	<ele>1359.60</ele>
	<time>2023-05-06T13:10:27.000Z</time>
</trkpt>
<trkpt lat="46.1722450" lon="9.4926470">
	<ele>1356.85</ele>
	<time>2023-05-06T13:10:38.000Z</time>
</trkpt>
<trkpt lat="46.1721840" lon="9.4927020">
	<ele>1353.96</ele>
	<time>2023-05-06T13:10:48.000Z</time>
</trkpt>
<trkpt lat="46.1721200" lon="9.4927820">
	<ele>1351.81</ele>
	<time>2023-05-06T13:10:58.000Z</time>
</trkpt>
<trkpt lat="46.1720600" lon="9.4928360">
	<ele>1348.96</ele>
	<time>2023-05-06T13:11:08.000Z</time>
</trkpt>
<trkpt lat="46.1720160" lon="9.4929200">
	<ele>1346.85</ele>
	<time>2023-05-06T13:11:18.000Z</time>
</trkpt>
<trkpt lat="46.1719630" lon="9.4929730">
	<ele>1344.72</ele>
	<time>2023-05-06T13:11:28.000Z</time>
</trkpt>
<trkpt lat="46.1718980" lon="9.4930390">
	<ele>1342.61</ele>
	<time>2023-05-06T13:11:38.000Z</time>
</trkpt>
<trkpt lat="46.1718440" lon="9.4931320">
	<ele>1341.06</ele>
	<time>2023-05-06T13:11:48.000Z</time>
</trkpt>
<trkpt lat="46.1718030" lon="9.4932640">
	<ele>1340.38</ele>
	<time>2023-05-06T13:11:58.000Z</time>
</trkpt>
<trkpt lat="46.1717600" lon="9.4933800">
	<ele>1337.53</ele>
	<time>2023-05-06T13:12:08.000Z</time>
</trkpt>
<trkpt lat="46.1717340" lon="9.4934930">
	<ele>1336.15</ele>
	<time>2023-05-06T13:12:18.000Z</time>
</trkpt>
<trkpt lat="46.1716840" lon="9.4935930">
	<ele>1333.66</ele>
	<time>2023-05-06T13:12:28.000Z</time>
</trkpt>
<trkpt lat="46.1716230" lon="9.4936780">
	<ele>1331.04</ele>
	<time>2023-05-06T13:12:38.000Z</time>
</trkpt>
<trkpt lat="46.1715850" lon="9.4937810">
	<ele>1328.28</ele>
	<time>2023-05-06T13:12:48.000Z</time>
</trkpt>
<trkpt lat="46.1715470" lon="9.4938650">
	<ele>1325.73</ele>
	<time>2023-05-06T13:12:57.000Z</time>
</trkpt>
<trkpt lat="46.1715160" lon="9.4939200">
	<ele>1324.43</ele>
	<time>2023-05-06T13:13:03.000Z</time>
</trkpt>
<trkpt lat="46.1714820" lon="9.4939670">
	<ele>1322.91</ele>
	<time>2023-05-06T13:13:08.000Z</time>
</trkpt>
<trkpt lat="46.1714440" lon="9.4940780">
	<ele>1320.80</ele>
	<time>2023-05-06T13:13:18.000Z</time>
</trkpt>
<trkpt lat="46.1713800" lon="9.4941500">
	<ele>1318.20</ele>
	<time>2023-05-06T13:13:28.000Z</time>
</trkpt>
<trkpt lat="46.1713300" lon="9.4942410">
	<ele>1316.05</ele>
	<time>2023-05-06T13:13:38.000Z</time>
</trkpt>
<trkpt lat="46.1712720" lon="9.4943310">
	<ele>1313.35</ele>
	<time>2023-05-06T13:13:48.000Z</time>
</trkpt>
<trkpt lat="46.1712460" lon="9.4944540">
	<ele>1311.25</ele>
	<time>2023-05-06T13:13:58.000Z</time>
</trkpt>
<trkpt lat="46.1711920" lon="9.4945640">
	<ele>1308.69</ele>
	<time>2023-05-06T13:14:08.000Z</time>
</trkpt>
<trkpt lat="46.1711540" lon="9.4946550">
	<ele>1306.34</ele>
	<time>2023-05-06T13:14:18.000Z</time>
</trkpt>
<trkpt lat="46.1711100" lon="9.4947550">
	<ele>1303.67</ele>
	<time>2023-05-06T13:14:28.000Z</time>
</trkpt>
<trkpt lat="46.1710600" lon="9.4948250">
	<ele>1301.50</ele>
	<time>2023-05-06T13:14:38.000Z</time>
</trkpt>
<trkpt lat="46.1710170" lon="9.4949080">
	<ele>1298.91</ele>
	<time>2023-05-06T13:14:48.000Z</time>
</trkpt>
<trkpt lat="46.1709860" lon="9.4949990">
	<ele>1296.46</ele>
	<time>2023-05-06T13:14:58.000Z</time>
</trkpt>
<trkpt lat="46.1709400" lon="9.4950670">
	<ele>1294.21</ele>
	<time>2023-05-06T13:15:08.000Z</time>
</trkpt>
<trkpt lat="46.1709200" lon="9.4951600">
	<ele>1291.94</ele>
	<time>2023-05-06T13:15:18.000Z</time>
</trkpt>
<trkpt lat="46.1709100" lon="9.4952600">
	<ele>1289.49</ele>
	<time>2023-05-06T13:15:27.000Z</time>
</trkpt>
<trkpt lat="46.1708600" lon="9.4952840">
	<ele>1287.00</ele>
	<time>2023-05-06T13:15:38.000Z</time>
</trkpt>
<trkpt lat="46.1708760" lon="9.4953950">
	<ele>1285.02</ele>
	<time>2023-05-06T13:15:48.000Z</time>
</trkpt>
<trkpt lat="46.1708700" lon="9.4954940">
	<ele>1282.84</ele>
	<time>2023-05-06T13:15:58.000Z</time>
</trkpt>
<trkpt lat="46.1708370" lon="9.4956080">
	<ele>1280.10</ele>
	<time>2023-05-06T13:16:08.000Z</time>
</trkpt>
<trkpt lat="46.1708340" lon="9.4957240">
	<ele>1277.61</ele>
	<time>2023-05-06T13:16:18.000Z</time>
</trkpt>
<trkpt lat="46.1707900" lon="9.4957720">
	<ele>1275.08</ele>
	<time>2023-05-06T13:16:28.000Z</time>
</trkpt>
<trkpt lat="46.1707230" lon="9.4957720">
	<ele>1272.61</ele>
	<time>2023-05-06T13:16:38.000Z</time>
</trkpt>
<trkpt lat="46.1707080" lon="9.4958770">
	<ele>1270.27</ele>
	<time>2023-05-06T13:16:48.000Z</time>
</trkpt>
<trkpt lat="46.1707230" lon="9.4959580">
	<ele>1268.59</ele>
	<time>2023-05-06T13:16:58.000Z</time>
</trkpt>
<trkpt lat="46.1707880" lon="9.4959690">
	<ele>1266.05</ele>
	<time>2023-05-06T13:17:08.000Z</time>
</trkpt>
<trkpt lat="46.1708500" lon="9.4959760">
	<ele>1264.13</ele>
	<time>2023-05-06T13:17:18.000Z</time>
</trkpt>
<trkpt lat="46.1708700" lon="9.4960620">
	<ele>1262.26</ele>
	<time>2023-05-06T13:17:28.000Z</time>
</trkpt>
<trkpt lat="46.1708870" lon="9.4961370">
	<ele>1259.44</ele>
	<time>2023-05-06T13:17:38.000Z</time>
</trkpt>
<trkpt lat="46.1708370" lon="9.4961200">
	<ele>1258.64</ele>
	<time>2023-05-06T13:17:43.000Z</time>
</trkpt>
<trkpt lat="46.1707880" lon="9.4960910">
	<ele>1257.73</ele>
	<time>2023-05-06T13:17:48.000Z</time>
</trkpt>
<trkpt lat="46.1707340" lon="9.4961190">
	<ele>1255.56</ele>
	<time>2023-05-06T13:17:57.000Z</time>
</trkpt>
<trkpt lat="46.1707000" lon="9.4961530">
	<ele>1254.38</ele>
	<time>2023-05-06T13:18:03.000Z</time>
</trkpt>
<trkpt lat="46.1707730" lon="9.4962020">
	<ele>1252.34</ele>
	<time>2023-05-06T13:18:13.000Z</time>
</trkpt>
<trkpt lat="46.1707900" lon="9.4962430">
	<ele>1251.05</ele>
	<time>2023-05-06T13:18:28.000Z</time>
</trkpt>
<trkpt lat="46.1707530" lon="9.4963030">
	<ele>1248.51</ele>
	<time>2023-05-06T13:18:38.000Z</time>
</trkpt>
<trkpt lat="46.1706850" lon="9.4962845">
	<ele>1245.95</ele>
	<time>2023-05-06T13:18:48.000Z</time>
</trkpt>
<trkpt lat="46.1705900" lon="9.4962720">
	<ele>1244.31</ele>
	<time>2023-05-06T13:18:58.000Z</time>
</trkpt>
<trkpt lat="46.1705170" lon="9.4963150">
	<ele>1242.22</ele>
	<time>2023-05-06T13:19:08.000Z</time>
</trkpt>
<trkpt lat="46.1704400" lon="9.4963420">
	<ele>1240.27</ele>
	<time>2023-05-06T13:19:18.000Z</time>
</trkpt>
<trkpt lat="46.1703900" lon="9.4963200">
	<ele>1239.72</ele>
	<time>2023-05-06T13:19:23.000Z</time>
</trkpt>
<trkpt lat="46.1703150" lon="9.4962530">
	<ele>1237.71</ele>
	<time>2023-05-06T13:19:33.000Z</time>
</trkpt>
<trkpt lat="46.1702840" lon="9.4962210">
	<ele>1236.81</ele>
	<time>2023-05-06T13:19:38.000Z</time>
</trkpt>
<trkpt lat="46.1702300" lon="9.4961930">
	<ele>1235.04</ele>
	<time>2023-05-06T13:19:48.000Z</time>
</trkpt>
<trkpt lat="46.1702000" lon="9.4962810">
	<ele>1232.87</ele>
	<time>2023-05-06T13:19:58.000Z</time>
</trkpt>
<trkpt lat="46.1701470" lon="9.4962380">
	<ele>1230.24</ele>
	<time>2023-05-06T13:20:08.000Z</time>
</trkpt>
<trkpt lat="46.1701050" lon="9.4961310">
	<ele>1228.11</ele>
	<time>2023-05-06T13:20:18.000Z</time>
</trkpt>
<trkpt lat="46.1700800" lon="9.4960560">
	<ele>1225.35</ele>
	<time>2023-05-06T13:20:27.000Z</time>
</trkpt>
<trkpt lat="46.1700360" lon="9.4959530">
	<ele>1222.62</ele>
	<time>2023-05-06T13:20:38.000Z</time>
</trkpt>
<trkpt lat="46.1699940" lon="9.4959540">
	<ele>1221.04</ele>
	<time>2023-05-06T13:20:48.000Z</time>
</trkpt>
<trkpt lat="46.1699400" lon="9.4960470">
	<ele>1218.97</ele>
	<time>2023-05-06T13:20:58.000Z</time>
</trkpt>
<trkpt lat="46.1699070" lon="9.4961490">
	<ele>1217.14</ele>
	<time>2023-05-06T13:21:08.000Z</time>
</trkpt>
<trkpt lat="46.1698230" lon="9.4960910">
	<ele>1214.16</ele>
	<time>2023-05-06T13:21:18.000Z</time>
</trkpt>
<trkpt lat="46.1697960" lon="9.4959480">
	<ele>1211.55</ele>
	<time>2023-05-06T13:21:28.000Z</time>
</trkpt>
<trkpt lat="46.1697730" lon="9.4958160">
	<ele>1209.44</ele>
	<time>2023-05-06T13:21:38.000Z</time>
</trkpt>
<trkpt lat="46.1697120" lon="9.4957000">
	<ele>1207.65</ele>
	<time>2023-05-06T13:21:48.000Z</time>
</trkpt>
<trkpt lat="46.1696700" lon="9.4955920">
	<ele>1205.07</ele>
	<time>2023-05-06T13:21:58.000Z</time>
</trkpt>
<trkpt lat="46.1696360" lon="9.4955030">
	<ele>1202.74</ele>
	<time>2023-05-06T13:22:08.000Z</time>
</trkpt>
<trkpt lat="46.1696240" lon="9.4954140">
	<ele>1200.37</ele>
	<time>2023-05-06T13:22:18.000Z</time>
</trkpt>
<trkpt lat="46.1695900" lon="9.4955320">
	<ele>1198.33</ele>
	<time>2023-05-06T13:22:28.000Z</time>
</trkpt>
<trkpt lat="46.1695820" lon="9.4956730">
	<ele>1196.78</ele>
	<time>2023-05-06T13:22:38.000Z</time>
</trkpt>
<trkpt lat="46.1695370" lon="9.4957450">
	<ele>1195.09</ele>
	<time>2023-05-06T13:22:48.000Z</time>
</trkpt>
<trkpt lat="46.1695500" lon="9.4958450">
	<ele>1194.90</ele>
	<time>2023-05-06T13:23:08.000Z</time>
</trkpt>
<trkpt lat="46.1695600" lon="9.4959840">
	<ele>1194.18</ele>
	<time>2023-05-06T13:23:18.000Z</time>
</trkpt>
<trkpt lat="46.1695750" lon="9.4961370">
	<ele>1193.80</ele>
	<time>2023-05-06T13:23:28.000Z</time>
</trkpt>
<trkpt lat="46.1695400" lon="9.4961620">
	<ele>1193.36</ele>
	<time>2023-05-06T13:23:33.000Z</time>
</trkpt>
<trkpt lat="46.1695180" lon="9.4960720">
	<ele>1192.29</ele>
	<time>2023-05-06T13:23:38.000Z</time>
</trkpt>
<trkpt lat="46.1694870" lon="9.4959370">
	<ele>1189.82</ele>
	<time>2023-05-06T13:23:48.000Z</time>
</trkpt>
<trkpt lat="46.1694600" lon="9.4959730">
	<ele>1187.91</ele>
	<time>2023-05-06T13:23:58.000Z</time>
</trkpt>
<trkpt lat="46.1694150" lon="9.4960320">
	<ele>1185.96</ele>
	<time>2023-05-06T13:24:08.000Z</time>
</trkpt>
<trkpt lat="46.1694070" lon="9.4960170">
	<ele>1186.05</ele>
	<time>2023-05-06T13:26:01.000Z</time>
</trkpt>
<trkpt lat="46.1693840" lon="9.4959640">
	<ele>1184.93</ele>
	<time>2023-05-06T13:29:06.000Z</time>
</trkpt>
<trkpt lat="46.1693760" lon="9.4958410">
	<ele>1183.24</ele>
	<time>2023-05-06T13:29:35.000Z</time>
</trkpt>
<trkpt lat="46.1693460" lon="9.4958970">
	<ele>1182.23</ele>
	<time>2023-05-06T13:29:45.000Z</time>
</trkpt>
<trkpt lat="46.1693230" lon="9.4959545">
	<ele>1181.33</ele>
	<time>2023-05-06T13:29:50.000Z</time>
</trkpt>
<trkpt lat="46.1692850" lon="9.4960750">
	<ele>1179.23</ele>
	<time>2023-05-06T13:30:00.000Z</time>
</trkpt>
<trkpt lat="46.1692540" lon="9.4959345">
	<ele>1177.31</ele>
	<time>2023-05-06T13:30:10.000Z</time>
</trkpt>
<trkpt lat="46.1692280" lon="9.4958105">
	<ele>1175.44</ele>
	<time>2023-05-06T13:30:20.000Z</time>
</trkpt>
<trkpt lat="46.1692350" lon="9.4956700">
	<ele>1172.81</ele>
	<time>2023-05-06T13:30:30.000Z</time>
</trkpt>
<trkpt lat="46.1692620" lon="9.4955770">
	<ele>1173.56</ele>
	<time>2023-05-06T13:30:40.000Z</time>
</trkpt>
<trkpt lat="46.1692730" lon="9.4954940">
	<ele>1172.72</ele>
	<time>2023-05-06T13:30:50.000Z</time>
</trkpt>
<trkpt lat="46.1693150" lon="9.4954160">
	<ele>1172.25</ele>
	<time>2023-05-06T13:31:30.000Z</time>
</trkpt>
<trkpt lat="46.1693150" lon="9.4952690">
	<ele>1171.86</ele>
	<time>2023-05-06T13:31:40.000Z</time>
</trkpt>
<trkpt lat="46.1692620" lon="9.4951850">
	<ele>1171.72</ele>
	<time>2023-05-06T13:31:49.000Z</time>
</trkpt>
<trkpt lat="46.1692120" lon="9.4951420">
	<ele>1170.23</ele>
	<time>2023-05-06T13:31:55.000Z</time>
</trkpt>
<trkpt lat="46.1691400" lon="9.4951105">
	<ele>1169.35</ele>
	<time>2023-05-06T13:32:05.000Z</time>
</trkpt>
<trkpt lat="46.1691500" lon="9.4951200">
	<ele>1169.11</ele>
	<time>2023-05-06T13:32:55.000Z</time>
</trkpt>
<trkpt lat="46.1691500" lon="9.4950760">
	<ele>1169.10</ele>
	<time>2023-05-06T13:33:30.000Z</time>
</trkpt>
<trkpt lat="46.1691400" lon="9.4949040">
	<ele>1166.79</ele>
	<time>2023-05-06T13:34:01.000Z</time>
</trkpt>
<trkpt lat="46.1691440" lon="9.4948220">
	<ele>1165.01</ele>
	<time>2023-05-06T13:34:06.000Z</time>
</trkpt>
<trkpt lat="46.1691630" lon="9.4947480">
	<ele>1165.26</ele>
	<time>2023-05-06T13:34:11.000Z</time>
</trkpt>
<trkpt lat="46.1691800" lon="9.4946420">
	<ele>1164.52</ele>
	<time>2023-05-06T13:34:17.000Z</time>
	<extensions>
		<gpxtpx:TrackPointExtension>
			<gpxtpx:hr>91</gpxtpx:hr>
		</gpxtpx:TrackPointExtension>
	</extensions>
</trkpt>
<trkpt lat="46.1691930" lon="9.4945670">
	<ele>1163.23</ele>
	<time>2023-05-06T13:34:22.000Z</time>
</trkpt>
<trkpt lat="46.1692050" lon="9.4944900">
	<ele>1162.06</ele>
	<time>2023-05-06T13:34:27.000Z</time>
</trkpt>
<trkpt lat="46.1692120" lon="9.4944080">
	<ele>1162.15</ele>
	<time>2023-05-06T13:34:32.000Z</time>
</trkpt>
<trkpt lat="46.1692280" lon="9.4943240">
	<ele>1161.17</ele>
	<time>2023-05-06T13:34:37.000Z</time>
</trkpt>
<trkpt lat="46.1692540" lon="9.4942520">
	<ele>1160.06</ele>
	<time>2023-05-06T13:34:42.000Z</time>
</trkpt>
<trkpt lat="46.1692500" lon="9.4941200">
	<ele>1158.47</ele>
	<time>2023-05-06T13:34:52.000Z</time>
</trkpt>
<trkpt lat="46.1692620" lon="9.4940390">
	<ele>1158.49</ele>
	<time>2023-05-06T13:34:57.000Z</time>
</trkpt>
<trkpt lat="46.1692770" lon="9.4939550">
	<ele>1158.72</ele>
	<time>2023-05-06T13:35:02.000Z</time>
</trkpt>
<trkpt lat="46.1692700" lon="9.4938130">
	<ele>1157.21</ele>
	<time>2023-05-06T13:35:12.000Z</time>
</trkpt>
<trkpt lat="46.1692850" lon="9.4936750">
	<ele>1157.30</ele>
	<time>2023-05-06T13:35:22.000Z</time>
</trkpt>
<trkpt lat="46.1693100" lon="9.4935310">
	<ele>1157.00</ele>
	<time>2023-05-06T13:35:32.000Z</time>
</trkpt>
<trkpt lat="46.1693300" lon="9.4933810">
	<ele>1155.60</ele>
	<time>2023-05-06T13:35:42.000Z</time>
</trkpt>
<trkpt lat="46.1693200" lon="9.4932530">
	<ele>1153.11</ele>
	<time>2023-05-06T13:35:52.000Z</time>
</trkpt>
<trkpt lat="46.1692770" lon="9.4932660">
	<ele>1152.01</ele>
	<time>2023-05-06T13:36:02.000Z</time>
</trkpt>
<trkpt lat="46.1692200" lon="9.4934000">
	<ele>1150.10</ele>
	<time>2023-05-06T13:36:12.000Z</time>
</trkpt>
<trkpt lat="46.1691970" lon="9.4934770">
	<ele>1149.49</ele>
	<time>2023-05-06T13:36:17.000Z</time>
	<extensions>
		<gpxtpx:TrackPointExtension>
			<gpxtpx:hr>93</gpxtpx:hr>
		</gpxtpx:TrackPointExtension>
	</extensions>
</trkpt>
<trkpt lat="46.1691300" lon="9.4935880">
	<ele>1148.02</ele>
	<time>2023-05-06T13:36:27.000Z</time>
</trkpt>
<trkpt lat="46.1690940" lon="9.4935540">
	<ele>1146.68</ele>
	<time>2023-05-06T13:36:32.000Z</time>
</trkpt>
<trkpt lat="46.1690330" lon="9.4934880">
	<ele>1144.75</ele>
	<time>2023-05-06T13:36:42.000Z</time>
</trkpt>
<trkpt lat="46.1689800" lon="9.4933950">
	<ele>1141.72</ele>
	<time>2023-05-06T13:36:52.000Z</time>
</trkpt>
<trkpt lat="46.1690060" lon="9.4933240">
	<ele>1140.44</ele>
	<time>2023-05-06T13:36:57.000Z</time>
</trkpt>
<trkpt lat="46.1690370" lon="9.4932575">
	<ele>1139.44</ele>
	<time>2023-05-06T13:37:02.000Z</time>
</trkpt>
<trkpt lat="46.1690670" lon="9.4931150">
	<ele>1138.47</ele>
	<time>2023-05-06T13:37:12.000Z</time>
</trkpt>
<trkpt lat="46.1690670" lon="9.4930380">
	<ele>1137.26</ele>
	<time>2023-05-06T13:37:22.000Z</time>
</trkpt>
<trkpt lat="46.1690250" lon="9.4929580">
	<ele>1133.52</ele>
	<time>2023-05-06T13:37:32.000Z</time>
</trkpt>
<trkpt lat="46.1689950" lon="9.4928740">
	<ele>1131.13</ele>
	<time>2023-05-06T13:37:42.000Z</time>
</trkpt>
<trkpt lat="46.1690000" lon="9.4927435">
	<ele>1129.12</ele>
	<time>2023-05-06T13:37:52.000Z</time>
</trkpt>
<trkpt lat="46.1690370" lon="9.4926820">
	<ele>1129.22</ele>
	<time>2023-05-06T13:37:57.000Z</time>
</trkpt>
<trkpt lat="46.1691200" lon="9.4926050">
	<ele>1129.28</ele>
	<time>2023-05-06T13:38:07.000Z</time>
</trkpt>
<trkpt lat="46.1691400" lon="9.4925480">
	<ele>1128.93</ele>
	<time>2023-05-06T13:38:12.000Z</time>
</trkpt>
<trkpt lat="46.1691550" lon="9.4924300">
	<ele>1126.18</ele>
	<time>2023-05-06T13:38:22.000Z</time>
</trkpt>
<trkpt lat="46.1691670" lon="9.4922990">
	<ele>1123.90</ele>
	<time>2023-05-06T13:38:32.000Z</time>
</trkpt>
<trkpt lat="46.1691630" lon="9.4921660">
	<ele>1122.39</ele>
	<time>2023-05-06T13:38:42.000Z</time>
</trkpt>
<trkpt lat="46.1691700" lon="9.4920300">
	<ele>1121.71</ele>
	<time>2023-05-06T13:38:52.000Z</time>
</trkpt>
<trkpt lat="46.1691250" lon="9.4919210">
	<ele>1120.38</ele>
	<time>2023-05-06T13:39:02.000Z</time>
</trkpt>
<trkpt lat="46.1691440" lon="9.4917730">
	<ele>1119.00</ele>
	<time>2023-05-06T13:39:12.000Z</time>
</trkpt>
<trkpt lat="46.1691470" lon="9.4916910">
	<ele>1118.07</ele>
	<time>2023-05-06T13:39:17.000Z</time>
	<extensions>
		<gpxtpx:TrackPointExtension>
			<gpxtpx:hr>92</gpxtpx:hr>
		</gpxtpx:TrackPointExtension>
	</extensions>
</trkpt>
<trkpt lat="46.1691670" lon="9.4915250">
	<ele>1116.38</ele>
	<time>2023-05-06T13:39:27.000Z</time>
</trkpt>
<trkpt lat="46.1691700" lon="9.4914370">
	<ele>1115.54</ele>
	<time>2023-05-06T13:39:32.000Z</time>
</trkpt>
<trkpt lat="46.1691700" lon="9.4913490">
	<ele>1114.55</ele>
	<time>2023-05-06T13:39:37.000Z</time>
</trkpt>
<trkpt lat="46.1691740" lon="9.4912670">
	<ele>1114.23</ele>
	<time>2023-05-06T13:39:42.000Z</time>
</trkpt>
<trkpt lat="46.1691780" lon="9.4911080">
	<ele>1113.46</ele>
	<time>2023-05-06T13:39:52.000Z</time>
</trkpt>
<trkpt lat="46.1691780" lon="9.4910230">
	<ele>1113.14</ele>
	<time>2023-05-06T13:39:57.000Z</time>
</trkpt>
<trkpt lat="46.1691860" lon="9.4909390">
	<ele>1112.56</ele>
	<time>2023-05-06T13:40:02.000Z</time>
</trkpt>
<trkpt lat="46.1691900" lon="9.4908520">
	<ele>1112.28</ele>
	<time>2023-05-06T13:40:07.000Z</time>
</trkpt>
<trkpt lat="46.1692050" lon="9.4907730">
	<ele>1111.50</ele>
	<time>2023-05-06T13:40:12.000Z</time>
</trkpt>
<trkpt lat="46.1692200" lon="9.4906180">
	<ele>1109.84</ele>
	<time>2023-05-06T13:40:22.000Z</time>
</trkpt>
<trkpt lat="46.1692160" lon="9.4905290">
	<ele>1109.14</ele>
	<time>2023-05-06T13:40:27.000Z</time>
</trkpt>
<trkpt lat="46.1692160" lon="9.4904470">
	<ele>1108.40</ele>
	<time>2023-05-06T13:40:32.000Z</time>
</trkpt>
<trkpt lat="46.1692240" lon="9.4902790">
	<ele>1106.10</ele>
	<time>2023-05-06T13:40:42.000Z</time>
</trkpt>
<trkpt lat="46.1692280" lon="9.4901950">
	<ele>1106.22</ele>
	<time>2023-05-06T13:40:47.000Z</time>
</trkpt>
<trkpt lat="46.1692430" lon="9.4901080">
	<ele>1106.39</ele>
	<time>2023-05-06T13:40:52.000Z</time>
</trkpt>
<trkpt lat="46.1692660" lon="9.4900255">
	<ele>1105.61</ele>
	<time>2023-05-06T13:40:57.000Z</time>
</trkpt>
<trkpt lat="46.1692700" lon="9.4899410">
	<ele>1104.20</ele>
	<time>2023-05-06T13:41:02.000Z</time>
</trkpt>
<trkpt lat="46.1692350" lon="9.4898880">
	<ele>1103.68</ele>
	<time>2023-05-06T13:41:07.000Z</time>
</trkpt>
<trkpt lat="46.1691970" lon="9.4899470">
	<ele>1103.12</ele>
	<time>2023-05-06T13:41:12.000Z</time>
</trkpt>
<trkpt lat="46.1691800" lon="9.4900410">
	<ele>1102.61</ele>
	<time>2023-05-06T13:41:17.000Z</time>
	<extensions>
		<gpxtpx:TrackPointExtension>
			<gpxtpx:hr>89</gpxtpx:hr>
		</gpxtpx:TrackPointExtension>
	</extensions>
</trkpt>
<trkpt lat="46.1691700" lon="9.4901390">
	<ele>1102.24</ele>
	<time>2023-05-06T13:41:22.000Z</time>
</trkpt>
<trkpt lat="46.1691500" lon="9.4902230">
	<ele>1101.44</ele>
	<time>2023-05-06T13:41:27.000Z</time>
</trkpt>
<trkpt lat="46.1691320" lon="9.4903060">
	<ele>1100.97</ele>
	<time>2023-05-06T13:41:32.000Z</time>
</trkpt>
<trkpt lat="46.1691130" lon="9.4903910">
	<ele>1100.15</ele>
	<time>2023-05-06T13:41:37.000Z</time>
</trkpt>
<trkpt lat="46.1690940" lon="9.4904650">
	<ele>1099.32</ele>
	<time>2023-05-06T13:41:42.000Z</time>
</trkpt>
<trkpt lat="46.1690560" lon="9.4905960">
	<ele>1097.18</ele>
	<time>2023-05-06T13:41:52.000Z</time>
</trkpt>
<trkpt lat="46.1690030" lon="9.4907280">
	<ele>1095.48</ele>
	<time>2023-05-06T13:42:02.000Z</time>
</trkpt>
<trkpt lat="46.1689500" lon="9.4908660">
	<ele>1094.02</ele>
	<time>2023-05-06T13:42:12.000Z</time>
</trkpt>
<trkpt lat="46.1689000" lon="9.4910090">
	<ele>1092.71</ele>
	<time>2023-05-06T13:42:22.000Z</time>
</trkpt>
<trkpt lat="46.1688580" lon="9.4911500">
	<ele>1091.61</ele>
	<time>2023-05-06T13:42:32.000Z</time>
</trkpt>
<trkpt lat="46.1688100" lon="9.4912830">
	<ele>1090.63</ele>
	<time>2023-05-06T13:42:42.000Z</time>
</trkpt>
<trkpt lat="46.1687700" lon="9.4914220">
	<ele>1089.86</ele>
	<time>2023-05-06T13:42:52.000Z</time>
</trkpt>
<trkpt lat="46.1687430" lon="9.4915650">
	<ele>1088.87</ele>
	<time>2023-05-06T13:43:02.000Z</time>
</trkpt>
<trkpt lat="46.1687050" lon="9.4916970">
	<ele>1087.98</ele>
	<time>2023-05-06T13:43:12.000Z</time>
</trkpt>
<trkpt lat="46.1687000" lon="9.4917270">
	<ele>1087.38</ele>
	<time>2023-05-06T13:44:22.000Z</time>
</trkpt>
<trkpt lat="46.1686600" lon="9.4917270">
	<ele>1087.20</ele>
	<time>2023-05-06T13:44:42.000Z</time>
</trkpt>
<trkpt lat="46.1686200" lon="9.4916160">
	<ele>1085.45</ele>
	<time>2023-05-06T13:45:02.000Z</time>
</trkpt>
<trkpt lat="46.1685750" lon="9.4914960">
	<ele>1082.31</ele>
	<time>2023-05-06T13:45:12.000Z</time>
</trkpt>
<trkpt lat="46.1685370" lon="9.4913520">
	<ele>1078.75</ele>
	<time>2023-05-06T13:45:22.000Z</time>
</trkpt>
<trkpt lat="46.1684570" lon="9.4913260">
	<ele>1076.61</ele>
	<time>2023-05-06T13:45:32.000Z</time>
</trkpt>
<trkpt lat="46.1684200" lon="9.4912100">
	<ele>1073.54</ele>
	<time>2023-05-06T13:45:42.000Z</time>
</trkpt>
<trkpt lat="46.1684270" lon="9.4910680">
	<ele>1070.37</ele>
	<time>2023-05-06T13:45:52.000Z</time>
</trkpt>
<trkpt lat="46.1684500" lon="9.4909900">
	<ele>1069.83</ele>
	<time>2023-05-06T13:45:57.000Z</time>
</trkpt>
<trkpt lat="46.1684950" lon="9.4909430">
	<ele>1069.02</ele>
	<time>2023-05-06T13:46:02.000Z</time>
</trkpt>
<trkpt lat="46.1684760" lon="9.4908130">
	<ele>1066.27</ele>
	<time>2023-05-06T13:46:12.000Z</time>
</trkpt>
<trkpt lat="46.1684340" lon="9.4907110">
	<ele>1063.16</ele>
	<time>2023-05-06T13:46:21.000Z</time>
</trkpt>
<trkpt lat="46.1684070" lon="9.4906720">
	<ele>1060.43</ele>
	<time>2023-05-06T13:46:31.000Z</time>
</trkpt>
<trkpt lat="46.1683900" lon="9.4906180">
	<ele>1058.78</ele>
	<time>2023-05-06T13:46:36.000Z</time>
</trkpt>
<trkpt lat="46.1683650" lon="9.4905520">
	<ele>1056.56</ele>
	<time>2023-05-06T13:46:44.000Z</time>
</trkpt>
<trkpt lat="46.1683350" lon="9.4904340">
	<ele>1053.86</ele>
	<time>2023-05-06T13:46:54.000Z</time>
</trkpt>
<trkpt lat="46.1683580" lon="9.4902800">
	<ele>1051.72</ele>
	<time>2023-05-06T13:47:04.000Z</time>
</trkpt>
<trkpt lat="46.1683300" lon="9.4902080">
	<ele>1049.90</ele>
	<time>2023-05-06T13:47:09.000Z</time>
</trkpt>
<trkpt lat="46.1683540" lon="9.4900675">
	<ele>1047.41</ele>
	<time>2023-05-06T13:47:19.000Z</time>
</trkpt>
<trkpt lat="46.1683200" lon="9.4900250">
	<ele>1046.17</ele>
	<time>2023-05-06T13:47:24.000Z</time>
</trkpt>
<trkpt lat="46.1682970" lon="9.4899130">
	<ele>1042.57</ele>
	<time>2023-05-06T13:47:34.000Z</time>
</trkpt>
<trkpt lat="46.1682740" lon="9.4897920">
	<ele>1039.10</ele>
	<time>2023-05-06T13:47:44.000Z</time>
</trkpt>
<trkpt lat="46.1682170" lon="9.4897200">
	<ele>1036.86</ele>
	<time>2023-05-06T13:47:54.000Z</time>
</trkpt>
<trkpt lat="46.1681400" lon="9.4896970">
	<ele>1033.33</ele>
	<time>2023-05-06T13:48:04.000Z</time>
</trkpt>
<trkpt lat="46.1680870" lon="9.4895880">
	<ele>1030.24</ele>
	<time>2023-05-06T13:48:14.000Z</time>
</trkpt>
<trkpt lat="46.1680260" lon="9.4895090">
	<ele>1027.67</ele>
	<time>2023-05-06T13:48:24.000Z</time>
</trkpt>
<trkpt lat="46.1679900" lon="9.4893960">
	<ele>1025.26</ele>
	<time>2023-05-06T13:48:34.000Z</time>
</trkpt>
<trkpt lat="46.1680800" lon="9.4892640">
	<ele>1022.30</ele>
	<time>2023-05-06T13:48:44.000Z</time>
</trkpt>
<trkpt lat="46.1681060" lon="9.4891820">
	<ele>1021.03</ele>
	<time>2023-05-06T13:48:49.000Z</time>
</trkpt>
<trkpt lat="46.1681500" lon="9.4891190">
	<ele>1020.02</ele>
	<time>2023-05-06T13:48:54.000Z</time>
</trkpt>
<trkpt lat="46.1681700" lon="9.4890430">
	<ele>1019.50</ele>
	<time>2023-05-06T13:48:59.000Z</time>
</trkpt>
<trkpt lat="46.1682050" lon="9.4889890">
	<ele>1018.54</ele>
	<time>2023-05-06T13:49:04.000Z</time>
</trkpt>
<trkpt lat="46.1682550" lon="9.4888840">
	<ele>1015.48</ele>
	<time>2023-05-06T13:49:14.000Z</time>
</trkpt>
<trkpt lat="46.1682500" lon="9.4887705">
	<ele>1012.52</ele>
	<time>2023-05-06T13:49:24.000Z</time>
</trkpt>
<trkpt lat="46.1682130" lon="9.4886680">
	<ele>1010.02</ele>
	<time>2023-05-06T13:49:34.000Z</time>
</trkpt>
<trkpt lat="46.1681750" lon="9.4885920">
	<ele>1007.65</ele>
	<time>2023-05-06T13:49:44.000Z</time>
</trkpt>
<trkpt lat="46.1681560" lon="9.4884910">
	<ele>1005.32</ele>
	<time>2023-05-06T13:49:54.000Z</time>
</trkpt>
<trkpt lat="46.1681670" lon="9.4883750">
	<ele>1002.91</ele>
	<time>2023-05-06T13:50:04.000Z</time>
</trkpt>
<trkpt lat="46.1681630" lon="9.4882990">
	<ele>1002.64</ele>
	<time>2023-05-06T13:50:09.000Z</time>
</trkpt>
<trkpt lat="46.1681800" lon="9.4881500">
	<ele>1001.48</ele>
	<time>2023-05-06T13:50:19.000Z</time>
</trkpt>
<trkpt lat="46.1682130" lon="9.4880750">
	<ele>1000.22</ele>
	<time>2023-05-06T13:50:24.000Z</time>
</trkpt>
<trkpt lat="46.1682660" lon="9.4880330">
	<ele>999.92</ele>
	<time>2023-05-06T13:50:29.000Z</time>
</trkpt>
<trkpt lat="46.1683160" lon="9.4880030">
	<ele>1000.20</ele>
	<time>2023-05-06T13:50:34.000Z</time>
</trkpt>
<trkpt lat="46.1683460" lon="9.4879930">
	<ele>997.73</ele>
	<time>2023-05-06T13:50:40.000Z</time>
</trkpt>
<trkpt lat="46.1683500" lon="9.4879030">
	<ele>998.64</ele>
	<time>2023-05-06T13:50:50.000Z</time>
</trkpt>
<trkpt lat="46.1682850" lon="9.4878430">
	<ele>996.80</ele>
	<time>2023-05-06T13:50:59.000Z</time>
</trkpt>
<trkpt lat="46.1682500" lon="9.4878230">
	<ele>995.62</ele>
	<time>2023-05-06T13:51:04.000Z</time>
</trkpt>
<trkpt lat="46.1682200" lon="9.4878530">
	<ele>994.60</ele>
	<time>2023-05-06T13:51:44.000Z</time>
</trkpt>
<trkpt lat="46.1681440" lon="9.4877480">
	<ele>992.06</ele>
	<time>2023-05-06T13:52:19.000Z</time>
</trkpt>
<trkpt lat="46.1681100" lon="9.4877430">
	<ele>990.80</ele>
	<time>2023-05-06T13:52:24.000Z</time>
</trkpt>
<trkpt lat="46.1680370" lon="9.4876740">
	<ele>988.79</ele>
	<time>2023-05-06T13:52:34.000Z</time>
</trkpt>
<trkpt lat="46.1679840" lon="9.4876000">
	<ele>986.76</ele>
	<time>2023-05-06T13:52:44.000Z</time>
</trkpt>
<trkpt lat="46.1679530" lon="9.4875400">
	<ele>985.26</ele>
	<time>2023-05-06T13:52:49.000Z</time>
</trkpt>
<trkpt lat="46.1679500" lon="9.4873850">
	<ele>982.71</ele>
	<time>2023-05-06T13:52:59.000Z</time>
</trkpt>
<trkpt lat="46.1679420" lon="9.4873290">
	<ele>981.85</ele>
	<time>2023-05-06T13:53:04.000Z</time>
</trkpt>
<trkpt lat="46.1679200" lon="9.4871860">
	<ele>979.65</ele>
	<time>2023-05-06T13:53:14.000Z</time>
</trkpt>
<trkpt lat="46.1678850" lon="9.4870940">
	<ele>976.98</ele>
	<time>2023-05-06T13:53:23.000Z</time>
</trkpt>
<trkpt lat="46.1678700" lon="9.4870160">
	<ele>975.71</ele>
	<time>2023-05-06T13:53:29.000Z</time>
</trkpt>
<trkpt lat="46.1678400" lon="9.4870580">
	<ele>973.28</ele>
	<time>2023-05-06T13:53:39.000Z</time>
</trkpt>
<trkpt lat="46.1678400" lon="9.4871380">
	<ele>972.25</ele>
	<time>2023-05-06T13:53:44.000Z</time>
</trkpt>
<trkpt lat="46.1678200" lon="9.4872770">
	<ele>970.15</ele>
	<time>2023-05-06T13:53:54.000Z</time>
</trkpt>
<trkpt lat="46.1677970" lon="9.4873510">
	<ele>969.01</ele>
	<time>2023-05-06T13:53:59.000Z</time>
</trkpt>
<trkpt lat="46.1677700" lon="9.4873700">
	<ele>967.30</ele>
	<time>2023-05-06T13:54:04.000Z</time>
</trkpt>
<trkpt lat="46.1677360" lon="9.4873080">
	<ele>965.78</ele>
	<time>2023-05-06T13:54:09.000Z</time>
</trkpt>
<trkpt lat="46.1677060" lon="9.4871510">
	<ele>963.22</ele>
	<time>2023-05-06T13:54:19.000Z</time>
</trkpt>
<trkpt lat="46.1676800" lon="9.4871050">
	<ele>961.94</ele>
	<time>2023-05-06T13:54:24.000Z</time>
</trkpt>
<trkpt lat="46.1676330" lon="9.4870070">
	<ele>959.63</ele>
	<time>2023-05-06T13:54:34.000Z</time>
</trkpt>
<trkpt lat="46.1675900" lon="9.4869180">
	<ele>957.30</ele>
	<time>2023-05-06T13:54:44.000Z</time>
</trkpt>
<trkpt lat="46.1675400" lon="9.4868100">
	<ele>954.62</ele>
	<time>2023-05-06T13:54:54.000Z</time>
</trkpt>
<trkpt lat="46.1675100" lon="9.4866850">
	<ele>951.92</ele>
	<time>2023-05-06T13:55:04.000Z</time>
</trkpt>
<trkpt lat="46.1675000" lon="9.4868230">
	<ele>949.91</ele>
	<time>2023-05-06T13:55:14.000Z</time>
</trkpt>
<trkpt lat="46.1675030" lon="9.4869585">
	<ele>947.14</ele>
	<time>2023-05-06T13:55:24.000Z</time>
</trkpt>
<trkpt lat="46.1674500" lon="9.4870650">
	<ele>944.50</ele>
	<time>2023-05-06T13:55:34.000Z</time>
</trkpt>
<trkpt lat="46.1674400" lon="9.4871590">
	<ele>941.82</ele>
	<time>2023-05-06T13:55:44.000Z</time>
</trkpt>
<trkpt lat="46.1673970" lon="9.4872310">
	<ele>939.22</ele>
	<time>2023-05-06T13:55:53.000Z</time>
</trkpt>
<trkpt lat="46.1673470" lon="9.4873200">
	<ele>936.11</ele>
	<time>2023-05-06T13:56:04.000Z</time>
</trkpt>
<trkpt lat="46.1673130" lon="9.4874210">
	<ele>933.52</ele>
	<time>2023-05-06T13:56:14.000Z</time>
</trkpt>
<trkpt lat="46.1673000" lon="9.4875450">
	<ele>932.04</ele>
	<time>2023-05-06T13:56:24.000Z</time>
</trkpt>
<trkpt lat="46.1672600" lon="9.4876160">
	<ele>930.13</ele>
	<time>2023-05-06T13:56:34.000Z</time>
</trkpt>
<trkpt lat="46.1672360" lon="9.4877330">
	<ele>927.54</ele>
	<time>2023-05-06T13:56:44.000Z</time>
</trkpt>
<trkpt lat="46.1672400" lon="9.4878450">
	<ele>925.80</ele>
	<time>2023-05-06T13:56:54.000Z</time>
</trkpt>
<trkpt lat="46.1671830" lon="9.4877360">
	<ele>923.67</ele>
	<time>2023-05-06T13:57:04.000Z</time>
</trkpt>
<trkpt lat="46.1671700" lon="9.4876560">
	<ele>922.37</ele>
	<time>2023-05-06T13:57:09.000Z</time>
</trkpt>
<trkpt lat="46.1671300" lon="9.4876690">
	<ele>920.72</ele>
	<time>2023-05-06T13:57:19.000Z</time>
</trkpt>
<trkpt lat="46.1671400" lon="9.4877290">
	<ele>919.59</ele>
	<time>2023-05-06T13:57:24.000Z</time>
</trkpt>
<trkpt lat="46.1670880" lon="9.4877480">
	<ele>916.90</ele>
	<time>2023-05-06T13:57:34.000Z</time>
</trkpt>
<trkpt lat="46.1670270" lon="9.4876360">
	<ele>915.01</ele>
	<time>2023-05-06T13:57:44.000Z</time>
</trkpt>
<trkpt lat="46.1669850" lon="9.4875145">
	<ele>912.92</ele>
	<time>2023-05-06T13:57:54.000Z</time>
</trkpt>
<trkpt lat="46.1669800" lon="9.4873810">
	<ele>911.52</ele>
	<time>2023-05-06T13:58:04.000Z</time>
</trkpt>
<trkpt lat="46.1669460" lon="9.4872680">
	<ele>909.36</ele>
	<time>2023-05-06T13:58:14.000Z</time>
</trkpt>
<trkpt lat="46.1669160" lon="9.4871920">
	<ele>906.38</ele>
	<time>2023-05-06T13:58:23.000Z</time>
</trkpt>
<trkpt lat="46.1668740" lon="9.4871610">
	<ele>904.58</ele>
	<time>2023-05-06T13:58:29.000Z</time>
</trkpt>
<trkpt lat="46.1668550" lon="9.4872970">
	<ele>902.08</ele>
	<time>2023-05-06T13:58:39.000Z</time>
</trkpt>
<trkpt lat="46.1668360" lon="9.4873620">
	<ele>900.86</ele>
	<time>2023-05-06T13:58:44.000Z</time>
</trkpt>
<trkpt lat="46.1667980" lon="9.4874620">
	<ele>898.02</ele>
	<time>2023-05-06T13:58:54.000Z</time>
</trkpt>
<trkpt lat="46.1667670" lon="9.4875480">
	<ele>895.76</ele>
	<time>2023-05-06T13:59:04.000Z</time>
</trkpt>
<trkpt lat="46.1667250" lon="9.4876460">
	<ele>893.41</ele>
	<time>2023-05-06T13:59:14.000Z</time>
</trkpt>
<trkpt lat="46.1667140" lon="9.4877530">
	<ele>891.87</ele>
	<time>2023-05-06T13:59:24.000Z</time>
</trkpt>
<trkpt lat="46.1666680" lon="9.4877010">
	<ele>890.77</ele>
	<time>2023-05-06T13:59:29.000Z</time>
</trkpt>
<trkpt lat="46.1666400" lon="9.4876220">
	<ele>889.79</ele>
	<time>2023-05-06T13:59:34.000Z</time>
</trkpt>
<trkpt lat="46.1666500" lon="9.4875330">
	<ele>889.12</ele>
	<time>2023-05-06T13:59:39.000Z</time>
</trkpt>
<trkpt lat="46.1666370" lon="9.4874610">
	<ele>888.17</ele>
	<time>2023-05-06T13:59:44.000Z</time>
</trkpt>
<trkpt lat="46.1666260" lon="9.4873780">
	<ele>886.96</ele>
	<time>2023-05-06T13:59:49.000Z</time>
</trkpt>
<trkpt lat="46.1665800" lon="9.4872560">
	<ele>883.92</ele>
	<time>2023-05-06T13:59:58.000Z</time>
</trkpt>
<trkpt lat="46.1665760" lon="9.4871640">
	<ele>885.27</ele>
	<time>2023-05-06T14:00:04.000Z</time>
</trkpt>
<trkpt lat="46.1665000" lon="9.4869970">
	<ele>879.31</ele>
	<time>2023-05-06T14:00:25.000Z</time>
</trkpt>
<trkpt lat="46.1664280" lon="9.4868610">
	<ele>878.69</ele>
	<time>2023-05-06T14:00:35.000Z</time>
</trkpt>
<trkpt lat="46.1663630" lon="9.4867840">
	<ele>876.46</ele>
	<time>2023-05-06T14:00:45.000Z</time>
</trkpt>
<trkpt lat="46.1663000" lon="9.4866770">
	<ele>874.61</ele>
	<time>2023-05-06T14:00:55.000Z</time>
</trkpt>
<trkpt lat="46.1662700" lon="9.4865850">
	<ele>874.28</ele>
	<time>2023-05-06T14:01:05.000Z</time>
</trkpt>
<trkpt lat="46.1662700" lon="9.4864750">
	<ele>871.56</ele>
	<time>2023-05-06T14:01:25.000Z</time>
</trkpt>
<trkpt lat="46.1662830" lon="9.4863230">
	<ele>869.12</ele>
	<time>2023-05-06T14:01:35.000Z</time>
</trkpt>
<trkpt lat="46.1663100" lon="9.4862300">
	<ele>869.11</ele>
	<time>2023-05-06T14:01:40.000Z</time>
</trkpt>
<trkpt lat="46.1663250" lon="9.4861710">
	<ele>867.99</ele>
	<time>2023-05-06T14:01:45.000Z</time>
</trkpt>
<trkpt lat="46.1662940" lon="9.4860720">
	<ele>865.49</ele>
	<time>2023-05-06T14:01:55.000Z</time>
</trkpt>
<trkpt lat="46.1662600" lon="9.4860230">
	<ele>862.93</ele>
	<time>2023-05-06T14:02:05.000Z</time>
</trkpt>
<trkpt lat="46.1662060" lon="9.4860230">
	<ele>861.13</ele>
	<time>2023-05-06T14:02:40.000Z</time>
</trkpt>
<trkpt lat="46.1662030" lon="9.4860850">
	<ele>860.32</ele>
	<time>2023-05-06T14:02:45.000Z</time>
</trkpt>
<trkpt lat="46.1661340" lon="9.4860410">
	<ele>857.64</ele>
	<time>2023-05-06T14:02:55.000Z</time>
</trkpt>
<trkpt lat="46.1660920" lon="9.4859770">
	<ele>856.24</ele>
	<time>2023-05-06T14:03:05.000Z</time>
</trkpt>
<trkpt lat="46.1660770" lon="9.4860870">
	<ele>854.42</ele>
	<time>2023-05-06T14:03:15.000Z</time>
</trkpt>
<trkpt lat="46.1660270" lon="9.4860070">
	<ele>852.26</ele>
	<time>2023-05-06T14:03:25.000Z</time>
</trkpt>
<trkpt lat="46.1660160" lon="9.4858830">
	<ele>850.12</ele>
	<time>2023-05-06T14:03:35.000Z</time>
</trkpt>
<trkpt lat="46.1659800" lon="9.4857900">
	<ele>847.30</ele>
	<time>2023-05-06T14:03:45.000Z</time>
</trkpt>
<trkpt lat="46.1659620" lon="9.4856800">
	<ele>845.24</ele>
	<time>2023-05-06T14:03:55.000Z</time>
</trkpt>
<trkpt lat="46.1659700" lon="9.4855610">
	<ele>842.57</ele>
	<time>2023-05-06T14:04:05.000Z</time>
</trkpt>
<trkpt lat="46.1660000" lon="9.4854360">
	<ele>841.19</ele>
	<time>2023-05-06T14:04:15.000Z</time>
</trkpt>
<trkpt lat="46.1659700" lon="9.4854040">
	<ele>839.51</ele>
	<time>2023-05-06T14:04:25.000Z</time>
</trkpt>
<trkpt lat="46.1659100" lon="9.4854850">
	<ele>837.91</ele>
	<time>2023-05-06T14:04:33.000Z</time>
</trkpt>
<trkpt lat="46.1658600" lon="9.4855995">
	<ele>836.26</ele>
	<time>2023-05-06T14:04:42.000Z</time>
</trkpt>
<trkpt lat="46.1657800" lon="9.4856390">
	<ele>833.71</ele>
	<time>2023-05-06T14:04:52.000Z</time>
</trkpt>
<trkpt lat="46.1657560" lon="9.4856690">
	<ele>832.10</ele>
	<time>2023-05-06T14:04:57.000Z</time>
</trkpt>
<trkpt lat="46.1657140" lon="9.4857400">
	<ele>830.47</ele>
	<time>2023-05-06T14:05:07.000Z</time>
</trkpt>
<trkpt lat="46.1657000" lon="9.4857090">
	<ele>828.57</ele>
	<time>2023-05-06T14:05:17.000Z</time>
</trkpt>
<trkpt lat="46.1656650" lon="9.4857590">
	<ele>826.63</ele>
	<time>2023-05-06T14:05:27.000Z</time>
</trkpt>
<trkpt lat="46.1656570" lon="9.4856110">
	<ele>824.47</ele>
	<time>2023-05-06T14:05:37.000Z</time>
</trkpt>
<trkpt lat="46.1656800" lon="9.4854560">
	<ele>822.59</ele>
	<time>2023-05-06T14:05:47.000Z</time>
</trkpt>
<trkpt lat="46.1656840" lon="9.4853490">
	<ele>821.45</ele>
	<time>2023-05-06T14:05:57.000Z</time>
</trkpt>
<trkpt lat="46.1657260" lon="9.4852495">
	<ele>819.62</ele>
	<time>2023-05-06T14:06:07.000Z</time>
</trkpt>
<trkpt lat="46.1657000" lon="9.4851570">
	<ele>816.67</ele>
	<time>2023-05-06T14:06:17.000Z</time>
</trkpt>
<trkpt lat="46.1657000" lon="9.4850610">
	<ele>815.27</ele>
	<time>2023-05-06T14:06:27.000Z</time>
</trkpt>
<trkpt lat="46.1656650" lon="9.4849770">
	<ele>812.10</ele>
	<time>2023-05-06T14:06:37.000Z</time>
</trkpt>
<trkpt lat="46.1656570" lon="9.4848970">
	<ele>810.86</ele>
	<time>2023-05-06T14:06:47.000Z</time>
</trkpt>
<trkpt lat="46.1656040" lon="9.4849750">
	<ele>808.78</ele>
	<time>2023-05-06T14:06:57.000Z</time>
</trkpt>
<trkpt lat="46.1656300" lon="9.4848660">
	<ele>806.45</ele>
	<time>2023-05-06T14:07:06.000Z</time>
</trkpt>
<trkpt lat="46.1655900" lon="9.4847765">
	<ele>803.99</ele>
	<time>2023-05-06T14:07:17.000Z</time>
</trkpt>
<trkpt lat="46.1655350" lon="9.4847600">
	<ele>800.37</ele>
	<time>2023-05-06T14:07:27.000Z</time>
</trkpt>
<trkpt lat="46.1655430" lon="9.4846990">
	<ele>799.45</ele>
	<time>2023-05-06T14:07:32.000Z</time>
</trkpt>
<trkpt lat="46.1655300" lon="9.4846510">
	<ele>798.10</ele>
	<time>2023-05-06T14:07:37.000Z</time>
</trkpt>
<trkpt lat="46.1654780" lon="9.4846710">
	<ele>796.40</ele>
	<time>2023-05-06T14:07:47.000Z</time>
</trkpt>
<trkpt lat="46.1654470" lon="9.4845960">
	<ele>793.89</ele>
	<time>2023-05-06T14:07:57.000Z</time>
</trkpt>
<trkpt lat="46.1654100" lon="9.4845120">
	<ele>791.86</ele>
	<time>2023-05-06T14:08:07.000Z</time>
</trkpt>
<trkpt lat="46.1653900" lon="9.4844070">
	<ele>790.10</ele>
	<time>2023-05-06T14:08:17.000Z</time>
	<extensions>
		<gpxtpx:TrackPointExtension>
			<gpxtpx:hr>96</gpxtpx:hr>
		</gpxtpx:TrackPointExtension>
	</extensions>
</trkpt>
<trkpt lat="46.1653630" lon="9.4843140">
	<ele>787.24</ele>
	<time>2023-05-06T14:08:32.000Z</time>
</trkpt>
<trkpt lat="46.1653630" lon="9.4842550">
	<ele>785.65</ele>
	<time>2023-05-06T14:08:37.000Z</time>
</trkpt>
<trkpt lat="46.1653480" lon="9.4841570">
	<ele>784.01</ele>
	<time>2023-05-06T14:08:47.000Z</time>
</trkpt>
<trkpt lat="46.1653020" lon="9.4842010">
	<ele>782.56</ele>
	<time>2023-05-06T14:08:57.000Z</time>
</trkpt>
<trkpt lat="46.1652570" lon="9.4842970">
	<ele>781.12</ele>
	<time>2023-05-06T14:09:07.000Z</time>
</trkpt>
<trkpt lat="46.1652340" lon="9.4843980">
	<ele>779.18</ele>
	<time>2023-05-06T14:09:17.000Z</time>
	<extensions>
		<gpxtpx:TrackPointExtension>
			<gpxtpx:hr>101</gpxtpx:hr>
		</gpxtpx:TrackPointExtension>
	</extensions>
</trkpt>
<trkpt lat="46.1652220" lon="9.4845090">
	<ele>777.08</ele>
	<time>2023-05-06T14:09:27.000Z</time>
</trkpt>
<trkpt lat="46.1651950" lon="9.4846120">
	<ele>775.03</ele>
	<time>2023-05-06T14:09:36.000Z</time>
</trkpt>
<trkpt lat="46.1651540" lon="9.4845915">
	<ele>773.66</ele>
	<time>2023-05-06T14:09:42.000Z</time>
</trkpt>
<trkpt lat="46.1651100" lon="9.4844830">
	<ele>771.92</ele>
	<time>2023-05-06T14:09:52.000Z</time>
</trkpt>
<trkpt lat="46.1650900" lon="9.4844280">
	<ele>770.93</ele>
	<time>2023-05-06T14:09:57.000Z</time>
</trkpt>
<trkpt lat="46.1650470" lon="9.4843470">
	<ele>769.79</ele>
	<time>2023-05-06T14:10:07.000Z</time>
</trkpt>
<trkpt lat="46.1649930" lon="9.4843070">
	<ele>768.01</ele>
	<time>2023-05-06T14:10:17.000Z</time>
	<extensions>
		<gpxtpx:TrackPointExtension>
			<gpxtpx:hr>107</gpxtpx:hr>
		</gpxtpx:TrackPointExtension>
	</extensions>
</trkpt>
<trkpt lat="46.1649670" lon="9.4842970">
	<ele>766.38</ele>
	<time>2023-05-06T14:10:27.000Z</time>
</trkpt>
<trkpt lat="46.1649500" lon="9.4843690">
	<ele>765.50</ele>
	<time>2023-05-06T14:11:25.000Z</time>
</trkpt>
<trkpt lat="46.1649400" lon="9.4843230">
	<ele>764.12</ele>
	<time>2023-05-06T14:12:35.000Z</time>
</trkpt>
<trkpt lat="46.1648940" lon="9.4843500">
	<ele>762.34</ele>
	<time>2023-05-06T14:12:45.000Z</time>
</trkpt>
<trkpt lat="46.1648750" lon="9.4844360">
	<ele>760.39</ele>
	<time>2023-05-06T14:12:55.000Z</time>
</trkpt>
<trkpt lat="46.1648500" lon="9.4845520">
	<ele>757.59</ele>
	<time>2023-05-06T14:13:05.000Z</time>
</trkpt>
<trkpt lat="46.1648560" lon="9.4846460">
	<ele>755.75</ele>
	<time>2023-05-06T14:13:10.000Z</time>
</trkpt>
<trkpt lat="46.1648640" lon="9.4847240">
	<ele>754.39</ele>
	<time>2023-05-06T14:13:15.000Z</time>
</trkpt>
<trkpt lat="46.1648400" lon="9.4848180">
	<ele>752.96</ele>
	<time>2023-05-06T14:13:20.000Z</time>
</trkpt>
<trkpt lat="46.1648000" lon="9.4848850">
	<ele>751.34</ele>
	<time>2023-05-06T14:13:25.000Z</time>
</trkpt>
<trkpt lat="46.1647260" lon="9.4849550">
	<ele>748.44</ele>
	<time>2023-05-06T14:13:35.000Z</time>
</trkpt>
<trkpt lat="46.1646840" lon="9.4849840">
	<ele>746.78</ele>
	<time>2023-05-06T14:13:40.000Z</time>
</trkpt>
<trkpt lat="46.1646540" lon="9.4850190">
	<ele>745.35</ele>
	<time>2023-05-06T14:13:45.000Z</time>
</trkpt>
<trkpt lat="46.1646100" lon="9.4851120">
	<ele>742.18</ele>
	<time>2023-05-06T14:13:55.000Z</time>
</trkpt>
<trkpt lat="46.1645660" lon="9.4851420">
	<ele>740.96</ele>
	<time>2023-05-06T14:14:00.000Z</time>
</trkpt>
<trkpt lat="46.1645400" lon="9.4851930">
	<ele>739.79</ele>
	<time>2023-05-06T14:14:05.000Z</time>
</trkpt>
<trkpt lat="46.1645360" lon="9.4853030">
	<ele>737.48</ele>
	<time>2023-05-06T14:14:15.000Z</time>
</trkpt>
<trkpt lat="46.1645100" lon="9.4853990">
	<ele>735.63</ele>
	<time>2023-05-06T14:14:25.000Z</time>
</trkpt>
<trkpt lat="46.1645000" lon="9.4855340">
	<ele>733.99</ele>
	<time>2023-05-06T14:14:35.000Z</time>
</trkpt>
<trkpt lat="46.1644940" lon="9.4857100">
	<ele>732.39</ele>
	<time>2023-05-06T14:14:45.000Z</time>
</trkpt>
<trkpt lat="46.1644630" lon="9.4857890">
	<ele>731.37</ele>
	<time>2023-05-06T14:14:50.000Z</time>
</trkpt>
<trkpt lat="46.1644250" lon="9.4858540">
	<ele>730.49</ele>
	<time>2023-05-06T14:14:55.000Z</time>
</trkpt>
<trkpt lat="46.1643560" lon="9.4859690">
	<ele>727.93</ele>
	<time>2023-05-06T14:15:05.000Z</time>
</trkpt>
<trkpt lat="46.1643030" lon="9.4860450">
	<ele>725.55</ele>
	<time>2023-05-06T14:15:15.000Z</time>
</trkpt>
<trkpt lat="46.1642400" lon="9.4861320">
	<ele>723.55</ele>
	<time>2023-05-06T14:15:25.000Z</time>
</trkpt>
<trkpt lat="46.1641900" lon="9.4862300">
	<ele>721.67</ele>
	<time>2023-05-06T14:15:35.000Z</time>
</trkpt>
<trkpt lat="46.1641200" lon="9.4863150">
	<ele>719.67</ele>
	<time>2023-05-06T14:15:45.000Z</time>
</trkpt>
<trkpt lat="46.1640470" lon="9.4863980">
	<ele>716.91</ele>
	<time>2023-05-06T14:15:55.000Z</time>
</trkpt>
<trkpt lat="46.1640050" lon="9.4862585">
	<ele>713.99</ele>
	<time>2023-05-06T14:16:05.000Z</time>
</trkpt>
<trkpt lat="46.1639860" lon="9.4861830">
	<ele>712.52</ele>
	<time>2023-05-06T14:16:10.000Z</time>
</trkpt>
<trkpt lat="46.1639670" lon="9.4861040">
	<ele>711.21</ele>
	<time>2023-05-06T14:16:15.000Z</time>
</trkpt>
<trkpt lat="46.1639600" lon="9.4859660">
	<ele>708.90</ele>
	<time>2023-05-06T14:16:25.000Z</time>
</trkpt>
<trkpt lat="46.1639400" lon="9.4858530">
	<ele>706.42</ele>
	<time>2023-05-06T14:16:35.000Z</time>
</trkpt>
<trkpt lat="46.1639330" lon="9.4857310">
	<ele>704.07</ele>
	<time>2023-05-06T14:16:45.000Z</time>
</trkpt>
<trkpt lat="46.1639000" lon="9.4856060">
	<ele>702.80</ele>
	<time>2023-05-06T14:16:55.000Z</time>
</trkpt>
<trkpt lat="46.1638700" lon="9.4854890">
	<ele>700.95</ele>
	<time>2023-05-06T14:17:05.000Z</time>
</trkpt>
<trkpt lat="46.1638400" lon="9.4853640">
	<ele>699.06</ele>
	<time>2023-05-06T14:17:15.000Z</time>
</trkpt>
<trkpt lat="46.1638220" lon="9.4853300">
	<ele>698.68</ele>
	<time>2023-05-06T14:17:25.000Z</time>
</trkpt>
<trkpt lat="46.1637340" lon="9.4853940">
	<ele>697.03</ele>
	<time>2023-05-06T14:17:45.000Z</time>
</trkpt>
<trkpt lat="46.1636600" lon="9.4854120">
	<ele>696.02</ele>
	<time>2023-05-06T14:17:50.000Z</time>
</trkpt>
<trkpt lat="46.1636960" lon="9.4852840">
	<ele>694.72</ele>
	<time>2023-05-06T14:18:00.000Z</time>
</trkpt>
<trkpt lat="46.1636900" lon="9.4852520">
	<ele>694.02</ele>
	<time>2023-05-06T14:18:05.000Z</time>
</trkpt>
<trkpt lat="46.1637420" lon="9.4851580">
	<ele>695.25</ele>
	<time>2023-05-06T14:18:15.000Z</time>
</trkpt>
<trkpt lat="46.1637800" lon="9.4851110">
	<ele>696.11</ele>
	<time>2023-05-06T14:18:25.000Z</time>
</trkpt>
<trkpt lat="46.1637200" lon="9.4850100">
	<ele>694.23</ele>
	<time>2023-05-06T14:18:35.000Z</time>
</trkpt>
<trkpt lat="46.1636730" lon="9.4848960">
	<ele>692.07</ele>
	<time>2023-05-06T14:18:45.000Z</time>
</trkpt>
<trkpt lat="46.1636050" lon="9.4848460">
	<ele>689.50</ele>
	<time>2023-05-06T14:18:55.000Z</time>
</trkpt>
<trkpt lat="46.1635670" lon="9.4847200">
	<ele>687.59</ele>
	<time>2023-05-06T14:19:05.000Z</time>
</trkpt>
<trkpt lat="46.1635740" lon="9.4845730">
	<ele>686.27</ele>
	<time>2023-05-06T14:19:15.000Z</time>
</trkpt>
<trkpt lat="46.1635440" lon="9.4844700">
	<ele>684.06</ele>
	<time>2023-05-06T14:19:25.000Z</time>
</trkpt>
<trkpt lat="46.1635440" lon="9.4843250">
	<ele>682.21</ele>
	<time>2023-05-06T14:19:35.000Z</time>
</trkpt>
<trkpt lat="46.1634830" lon="9.4843400">
	<ele>679.89</ele>
	<time>2023-05-06T14:19:45.000Z</time>
</trkpt>
<trkpt lat="46.1634370" lon="9.4844520">
	<ele>677.97</ele>
	<time>2023-05-06T14:19:55.000Z</time>
</trkpt>
<trkpt lat="46.1633700" lon="9.4845360">
	<ele>676.00</ele>
	<time>2023-05-06T14:20:05.000Z</time>
</trkpt>
<trkpt lat="46.1633450" lon="9.4844090">
	<ele>674.10</ele>
	<time>2023-05-06T14:20:15.000Z</time>
</trkpt>
<trkpt lat="46.1633500" lon="9.4842780">
	<ele>672.32</ele>
	<time>2023-05-06T14:20:25.000Z</time>
</trkpt>
<trkpt lat="46.1632700" lon="9.4842650">
	<ele>669.44</ele>
	<time>2023-05-06T14:20:35.000Z</time>
</trkpt>
<trkpt lat="46.1631770" lon="9.4842730">
	<ele>666.73</ele>
	<time>2023-05-06T14:20:45.000Z</time>
</trkpt>
<trkpt lat="46.1630900" lon="9.4842910">
	<ele>664.26</ele>
	<time>2023-05-06T14:20:55.000Z</time>
</trkpt>
<trkpt lat="46.1630250" lon="9.4843080">
	<ele>662.11</ele>
	<time>2023-05-06T14:21:03.000Z</time>
</trkpt>
<trkpt lat="46.1629750" lon="9.4843080">
	<ele>660.52</ele>
	<time>2023-05-06T14:21:09.000Z</time>
</trkpt>
<trkpt lat="46.1628950" lon="9.4843250">
	<ele>658.04</ele>
	<time>2023-05-06T14:21:18.000Z</time>
</trkpt>
<trkpt lat="46.1628340" lon="9.4843320">
	<ele>656.52</ele>
	<time>2023-05-06T14:21:25.000Z</time>
</trkpt>
<trkpt lat="46.1627660" lon="9.4843180">
	<ele>654.81</ele>
	<time>2023-05-06T14:21:33.000Z</time>
</trkpt>
<trkpt lat="46.1626800" lon="9.4843220">
	<ele>652.45</ele>
	<time>2023-05-06T14:21:43.000Z</time>
</trkpt>
<trkpt lat="46.1626400" lon="9.4843230">
	<ele>651.15</ele>
	<time>2023-05-06T14:21:49.000Z</time>
</trkpt>
<trkpt lat="46.1625700" lon="9.4843230">
	<ele>649.27</ele>
	<time>2023-05-06T14:21:57.000Z</time>
</trkpt>
<trkpt lat="46.1625060" lon="9.4843200">
	<ele>647.52</ele>
	<time>2023-05-06T14:22:05.000Z</time>
</trkpt>
<trkpt lat="46.1624450" lon="9.4843140">
	<ele>645.63</ele>
	<time>2023-05-06T14:22:13.000Z</time>
</trkpt>
<trkpt lat="46.1623650" lon="9.4843160">
	<ele>643.38</ele>
	<time>2023-05-06T14:22:25.000Z</time>
</trkpt>
<trkpt lat="46.1622920" lon="9.4842970">
	<ele>641.75</ele>
	<time>2023-05-06T14:22:35.000Z</time>
</trkpt>
<trkpt lat="46.1622540" lon="9.4843480">
	<ele>640.02</ele>
	<time>2023-05-06T14:24:41.000Z</time>
</trkpt>
<trkpt lat="46.1622280" lon="9.4844530">
	<ele>637.66</ele>
	<time>2023-05-06T14:24:51.000Z</time>
</trkpt>
<trkpt lat="46.1621900" lon="9.4845705">
	<ele>635.37</ele>
	<time>2023-05-06T14:25:01.000Z</time>
</trkpt>
<trkpt lat="46.1621480" lon="9.4847000">
	<ele>633.36</ele>
	<time>2023-05-06T14:25:11.000Z</time>
</trkpt>
<trkpt lat="46.1621060" lon="9.4848280">
	<ele>631.05</ele>
	<time>2023-05-06T14:25:21.000Z</time>
</trkpt>
<trkpt lat="46.1620560" lon="9.4849320">
	<ele>629.84</ele>
	<time>2023-05-06T14:25:30.000Z</time>
</trkpt>
<trkpt lat="46.1620200" lon="9.4850110">
	<ele>629.05</ele>
	<time>2023-05-06T14:25:37.000Z</time>
</trkpt>
<trkpt lat="46.1619760" lon="9.4851180">
	<ele>627.30</ele>
	<time>2023-05-06T14:25:46.000Z</time>
</trkpt>
<trkpt lat="46.1619200" lon="9.4852470">
	<ele>626.35</ele>
	<time>2023-05-06T14:25:56.000Z</time>
</trkpt>
<trkpt lat="46.1618960" lon="9.4853150">
	<ele>625.72</ele>
	<time>2023-05-06T14:26:01.000Z</time>
</trkpt>
<trkpt lat="46.1618420" lon="9.4854430">
	<ele>623.86</ele>
	<time>2023-05-06T14:26:11.000Z</time>
</trkpt>
<trkpt lat="46.1618040" lon="9.4855600">
	<ele>621.52</ele>
	<time>2023-05-06T14:26:21.000Z</time>
</trkpt>
<trkpt lat="46.1617600" lon="9.4856830">
	<ele>619.43</ele>
	<time>2023-05-06T14:26:31.000Z</time>
</trkpt>
<trkpt lat="46.1617160" lon="9.4858000">
	<ele>617.39</ele>
	<time>2023-05-06T14:26:41.000Z</time>
</trkpt>
<trkpt lat="46.1616820" lon="9.4859110">
	<ele>614.58</ele>
	<time>2023-05-06T14:26:51.000Z</time>
</trkpt>
<trkpt lat="46.1616550" lon="9.4860300">
	<ele>612.55</ele>
	<time>2023-05-06T14:27:01.000Z</time>
</trkpt>
<trkpt lat="46.1616130" lon="9.4861610">
	<ele>611.06</ele>
	<time>2023-05-06T14:27:11.000Z</time>
</trkpt>
<trkpt lat="46.1615200" lon="9.4862420">
	<ele>610.09</ele>
	<time>2023-05-06T14:27:21.000Z</time>
</trkpt>
<trkpt lat="46.1614340" lon="9.4863150">
	<ele>608.74</ele>
	<time>2023-05-06T14:27:31.000Z</time>
</trkpt>
<trkpt lat="46.1614340" lon="9.4864350">
	<ele>607.11</ele>
	<time>2023-05-06T14:27:41.000Z</time>
</trkpt>
<trkpt lat="46.1614570" lon="9.4865370">
	<ele>604.99</ele>
	<time>2023-05-06T14:27:51.000Z</time>
</trkpt>
<trkpt lat="46.1614400" lon="9.4866620">
	<ele>603.18</ele>
	<time>2023-05-06T14:28:01.000Z</time>
</trkpt>
<trkpt lat="46.1613600" lon="9.4867115">
	<ele>602.74</ele>
	<time>2023-05-06T14:28:10.000Z</time>
</trkpt>
<trkpt lat="46.1612470" lon="9.4866700">
	<ele>601.07</ele>
	<time>2023-05-06T14:28:21.000Z</time>
</trkpt>
<trkpt lat="46.1611630" lon="9.4866270">
	<ele>599.82</ele>
	<time>2023-05-06T14:28:30.000Z</time>
</trkpt>
<trkpt lat="46.1611060" lon="9.4865820">
	<ele>598.51</ele>
	<time>2023-05-06T14:28:37.000Z</time>
</trkpt>
<trkpt lat="46.1610030" lon="9.4865820">
	<ele>596.83</ele>
	<time>2023-05-06T14:28:47.000Z</time>
</trkpt>
<trkpt lat="46.1609200" lon="9.4866540">
	<ele>595.17</ele>
	<time>2023-05-06T14:28:57.000Z</time>
</trkpt>
<trkpt lat="46.1609100" lon="9.4867830">
	<ele>593.84</ele>
	<time>2023-05-06T14:29:07.000Z</time>
</trkpt>
<trkpt lat="46.1609420" lon="9.4869110">
	<ele>592.10</ele>
	<time>2023-05-06T14:29:17.000Z</time>
</trkpt>
<trkpt lat="46.1609200" lon="9.4870610">
	<ele>592.19</ele>
	<time>2023-05-06T14:29:27.000Z</time>
</trkpt>
<trkpt lat="46.1608850" lon="9.4871170">
	<ele>591.59</ele>
	<time>2023-05-06T14:29:32.000Z</time>
</trkpt>
<trkpt lat="46.1608350" lon="9.4871140">
	<ele>590.50</ele>
	<time>2023-05-06T14:29:37.000Z</time>
</trkpt>
<trkpt lat="46.1607600" lon="9.4870360">
	<ele>588.49</ele>
	<time>2023-05-06T14:29:47.000Z</time>
</trkpt>
<trkpt lat="46.1606800" lon="9.4869795">
	<ele>586.37</ele>
	<time>2023-05-06T14:29:57.000Z</time>
</trkpt>
<trkpt lat="46.1605950" lon="9.4869760">
	<ele>584.62</ele>
	<time>2023-05-06T14:30:07.000Z</time>
</trkpt>
<trkpt lat="46.1605260" lon="9.4870670">
	<ele>583.03</ele>
	<time>2023-05-06T14:30:17.000Z</time>
</trkpt>
<trkpt lat="46.1604800" lon="9.4871620">
	<ele>581.04</ele>
	<time>2023-05-06T14:30:27.000Z</time>
</trkpt>
<trkpt lat="46.1604300" lon="9.4872620">
	<ele>578.85</ele>
	<time>2023-05-06T14:30:37.000Z</time>
</trkpt>
<trkpt lat="46.1603900" lon="9.4873630">
	<ele>577.74</ele>
	<time>2023-05-06T14:30:47.000Z</time>
</trkpt>
<trkpt lat="46.1603400" lon="9.4874660">
	<ele>576.77</ele>
	<time>2023-05-06T14:30:57.000Z</time>
</trkpt>
<trkpt lat="46.1602900" lon="9.4875690">
	<ele>574.98</ele>
	<time>2023-05-06T14:31:07.000Z</time>
</trkpt>
<trkpt lat="46.1602400" lon="9.4876550">
	<ele>572.66</ele>
	<time>2023-05-06T14:31:17.000Z</time>
</trkpt>
<trkpt lat="46.1601520" lon="9.4876930">
	<ele>570.93</ele>
	<time>2023-05-06T14:31:27.000Z</time>
</trkpt>
<trkpt lat="46.1600650" lon="9.4876920">
	<ele>568.94</ele>
	<time>2023-05-06T14:31:37.000Z</time>
</trkpt>
<trkpt lat="46.1600500" lon="9.4876240">
	<ele>568.61</ele>
	<time>2023-05-06T14:32:34.000Z</time>
</trkpt>
</trkseg>
</trk>
</gpx>
